ECMWFNIL_500_spd_000.txt.gz
Wind_Speed
27 27 28 28 29 31 32 34 35 36 37 37 37 38 39 40 42 43 44 45 45 44 42 40 38 37 37 36 35 35 34 34 34 34 35 35 36 36 36 38 38 37
29 29 29 30 31 32 33 35 36 37 37 37 38 38 39 40 42 43 43 44 44 43 41 39 37 37 37 35 34 34 34 34 34 35 36 37 38 37 37 39 40 40
31 31 31 31 32 33 34 35 36 37 37 38 38 39 40 41 42 43 42 42 42 41 39 38 38 38 37 35 34 34 34 34 36 36 36 37 39 39 39 40 40 42
33 33 32 32 33 34 35 36 37 38 38 38 39 40 40 41 42 42 41 40 40 39 38 37 38 38 38 37 36 36 36 36 36 37 37 36 37 39 41 41 41 41
35 35 34 34 34 35 36 37 38 38 38 39 39 40 41 41 42 42 40 39 38 37 37 37 37 38 38 37 37 38 38 37 36 36 36 36 36 37 40 41 42 43
36 36 35 35 35 36 37 38 38 39 39 39 39 40 41 42 42 42 39 37 37 37 36 37 37 38 38 38 39 40 40 39 37 36 37 37 37 38 39 40 42 44
37 36 36 36 36 37 37 38 39 39 39 40 40 41 42 43 42 41 39 37 37 37 37 37 38 38 39 39 40 42 42 42 40 39 38 39 39 40 40 40 41 43
37 37 36 36 36 37 38 39 40 40 40 40 40 41 42 43 43 42 39 38 37 37 37 38 39 39 40 41 41 42 43 43 42 40 39 38 39 40 41 41 41 42
38 38 37 37 37 38 39 40 40 41 41 40 41 41 43 44 43 42 40 39 38 38 38 39 40 42 43 43 43 43 42 43 42 40 38 36 36 37 39 40 40 41
39 39 38 38 38 39 40 41 41 42 42 41 41 42 43 44 43 42 40 39 39 39 39 41 42 44 45 45 45 43 42 41 40 39 37 35 34 34 35 37 38 39
40 40 39 39 39 40 41 42 43 43 43 42 42 42 43 44 44 42 40 39 39 39 40 42 44 45 46 46 45 43 40 39 38 37 36 34 34 34 34 35 37 38
41 41 41 40 40 41 42 44 45 46 45 44 43 43 43 44 43 42 41 40 40 40 41 43 44 46 47 46 44 41 39 38 37 36 35 35 35 36 36 36 35 36
42 42 41 41 42 43 44 45 47 47 46 45 45 44 44 44 43 42 41 41 42 42 43 44 45 46 46 45 41 39 38 37 37 36 36 36 36 37 38 37 34 32
42 42 43 43 43 44 45 47 48 48 47 46 45 45 44 44 43 42 42 42 43 44 44 45 45 45 45 42 39 37 37 36 35 35 35 36 36 36 37 37 34 29
43 43 44 44 45 45 46 48 49 49 48 47 45 45 44 43 43 42 43 43 45 46 45 45 46 44 43 40 36 34 35 35 34 33 33 34 34 33 33 34 33 28
44 44 45 45 46 46 48 49 51 50 49 48 46 45 44 44 43 43 44 44 45 46 46 46 45 42 40 38 35 33 34 34 33 32 32 33 33 31 30 31 30 27
45 45 46 46 47 48 49 50 51 51 49 48 46 46 45 44 43 43 44 45 45 46 46 45 43 40 37 36 34 32 32 32 31 31 32 33 33 31 29 28 27 26
46 46 46 46 47 49 50 51 52 51 50 48 46 46 45 45 44 44 45 46 46 45 44 43 41 37 35 34 32 31 31 30 30 30 31 32 32 30 28 27 26 24
46 46 46 47 48 50 51 51 52 51 49 48 46 45 45 45 44 45 46 46 45 44 42 40 37 34 33 32 30 29 29 28 28 29 30 30 30 28 27 26 26 24
47 47 47 48 49 50 51 52 52 51 49 48 46 45 45 44 45 46 46 45 43 42 40 38 35 32 31 31 29 28 27 27 27 28 29 30 29 26 25 26 26 24
47 47 48 49 50 51 52 52 51 50 48 47 46 45 44 44 45 45 44 43 42 40 37 35 33 30 29 29 28 27 26 27 27 28 28 29 29 26 23 25 26 23
48 48 49 49 50 51 51 51 50 48 48 47 46 45 44 44 44 42 41 41 39 36 33 32 31 29 28 28 28 26 26 27 27 28 28 28 30 28 23 23 24 23
49 49 49 50 50 50 50 50 49 49 49 48 46 44 44 43 42 40 39 38 35 32 30 30 30 29 28 27 28 26 26 27 28 29 29 29 30 29 25 21 21 21
49 48 49 49 49 49 48 48 49 49 49 48 46 44 43 41 40 36 34 34 32 30 28 27 28 29 28 28 28 27 26 28 28 29 30 30 31 31 28 23 19 19
48 48 48 48 49 48 47 47 49 50 50 48 46 44 42 40 39 36 32 31 30 28 27 26 27 28 29 29 28 27 27 29 29 29 30 31 32 33 31 27 22 20
49 48 48 48 47 46 46 48 50 51 50 49 47 44 41 39 39 36 33 31 29 27 26 26 26 27 29 29 28 27 27 29 30 29 30 31 33 34 32 29 25 22

ECMWFNIL_500_spd_003.txt.gz
Wind_Speed
28 29 30 31 31 32 32 33 33 34 34 34 35 35 35 36 35 35 35 35 36 37 39 40 42 43 43 42 42 42 42 41 41 39 37 35 35 34 33 34 36 37
29 30 31 32 32 33 33 34 34 35 35 35 35 36 36 36 36 36 36 36 37 38 39 40 42 43 44 43 42 42 41 41 41 41 39 37 37 37 37 37 38 39
31 31 33 34 34 34 34 35 36 36 36 36 36 37 37 37 37 37 38 38 39 39 40 41 42 43 44 44 43 42 41 41 41 42 41 40 39 39 39 40 40 40
32 33 34 35 35 36 36 37 38 38 38 38 38 38 38 39 39 39 39 40 40 41 41 43 43 44 45 45 44 43 42 42 42 42 42 42 42 41 41 41 41 41
33 34 35 36 37 37 37 38 39 39 39 39 39 39 39 40 40 41 41 42 42 42 43 44 45 45 45 45 44 43 42 43 43 43 44 44 45 45 44 42 41 42
35 35 37 38 38 38 38 39 40 40 40 40 40 40 40 41 41 42 43 43 43 44 44 45 47 47 46 45 44 43 43 44 44 44 45 46 47 46 46 45 42 41
36 37 38 39 39 39 39 40 40 40 41 41 41 41 41 42 42 43 44 44 45 45 45 46 47 48 47 46 45 45 46 46 46 46 47 47 48 47 47 46 44 42
37 37 38 39 40 40 40 41 41 40 40 41 42 42 42 42 43 44 45 46 46 46 46 46 47 48 48 47 47 47 48 49 48 48 48 47 48 48 46 46 44 42
38 38 39 39 40 41 41 41 42 41 41 41 41 43 43 44 45 46 47 47 46 46 46 46 47 48 49 49 48 48 49 50 50 50 49 47 47 46 45 45 43 41
38 38 39 39 40 41 41 42 42 43 43 42 42 43 44 45 46 47 47 47 46 46 46 46 47 48 50 50 49 50 51 50 49 49 49 47 45 45 44 43 42 41
39 38 39 39 40 41 42 43 44 44 45 44 44 44 45 46 47 47 47 46 46 45 46 46 47 49 51 50 48 48 47 45 45 46 46 46 43 42 42 42 41 40
39 38 39 40 41 42 43 44 45 46 46 46 45 45 45 46 47 47 46 46 46 45 45 46 46 48 49 50 50 49 42 39 43 44 43 43 42 41 41 41 40 40
39 38 40 41 42 43 45 46 46 47 47 47 46 46 46 47 47 47 46 46 46 46 46 47 47 47 47 48 51 52 46 44 45 43 41 41 40 39 39 39 39 40
40 40 41 43 44 46 47 47 47 48 47 47 46 46 46 47 47 47 47 47 46 46 46 47 47 47 47 47 48 49 50 48 46 42 40 40 39 38 37 37 38 39
42 43 43 45 46 47 48 47 48 48 47 47 47 46 47 47 48 48 48 47 47 47 47 47 47 47 48 47 46 46 47 46 43 40 38 37 37 36 35 36 37 38
44 45 45 47 48 49 49 48 48 48 48 48 48 47 47 48 48 48 48 47 47 47 47 47 46 47 47 47 45 44 42 41 39 37 36 35 35 35 34 34 36 38
46 46 47 49 50 50 50 49 49 49 49 49 48 48 48 48 49 48 47 47 47 47 48 47 47 46 46 45 43 41 38 36 36 35 34 33 33 33 34 34 35 37
47 47 49 50 51 50 50 50 50 49 49 49 49 49 49 49 49 48 47 48 48 48 47 45 43 43 42 41 39 37 35 33 33 33 32 31 31 32 33 33 34 36
47 49 50 51 51 51 50 50 50 50 50 50 50 50 50 49 49 48 48 49 48 47 45 41 39 40 40 39 36 33 32 31 31 31 30 30 30 31 33 35 35 36
48 49 50 51 51 51 51 50 49 49 50 50 50 50 50 50 48 48 49 49 48 47 45 42 40 40 40 38 34 31 31 31 30 29 29 29 29 31 33 35 37 38
48 50 51 51 51 51 51 50 48 48 49 50 50 50 50 49 48 48 49 48 46 45 44 43 41 39 38 37 34 31 30 30 29 29 29 29 29 31 33 35 37 39
49 51 52 52 51 51 50 48 47 46 47 49 49 50 49 49 48 49 49 48 46 44 43 42 41 39 38 37 34 31 29 29 29 29 28 28 29 31 33 35 37 39
49 51 51 50 50 49 48 47 46 45 46 48 48 49 49 48 49 50 49 47 46 45 43 41 39 37 36 35 34 31 28 28 30 29 28 28 29 31 33 35 37 39
49 50 50 50 49 48 48 46 44 44 45 46 48 48 48 47 49 50 48 46 45 44 43 41 37 35 34 33 32 30 28 28 29 29 28 28 28 31 33 33 34 36
48 49 50 50 49 47 47 46 44 42 43 45 47 48 47 48 49 49 47 45 44 43 42 40 36 33 32 32 31 29 27 28 28 28 28 28 27 29 32 32 32 33
48 49 50 50 48 46 46 47 45 43 43 46 48 47 45 46 48 48 46 44 43 43 42 38 34 31 31 31 30 27 26 27 28 27 28 27 27 28 30 31 31 32

ECMWFNIL_500_spd_006.txt.gz
Wind_Speed
26 27 29 30 30 31 32 33 33 33 33 33 34 35 35 35 35 36 36 37 37 37 37 37 38 39 40 40 40 41 41 41 41 42 43 44 44 45 44 43 43 42
27 28 30 31 32 32 33 34 35 35 35 35 35 35 36 36 36 37 37 37 38 38 39 39 40 40 41 41 42 42 42 42 42 42 43 43 44 45 45 45 45 44
28 30 31 32 33 33 34 35 35 36 36 36 36 36 36 36 36 37 37 38 39 39 40 40 41 42 43 43 43 43 43 43 43 43 43 44 44 44 45 46 46 46
28 31 33 34 35 35 35 35 36 36 36 37 37 37 37 37 37 37 38 39 40 40 41 42 43 43 44 44 44 44 44 44 44 44 45 45 45 45 46 47 48 48
30 32 34 35 36 36 36 36 36 36 36 37 38 38 37 37 38 39 39 40 40 41 42 43 44 45 45 45 45 44 44 44 45 46 47 47 47 47 47 48 49 51
31 33 35 36 37 37 37 37 37 37 37 37 38 38 38 38 39 39 40 41 41 42 43 44 45 46 46 46 45 45 45 44 45 47 48 49 49 48 46 47 50 51
32 34 36 37 37 37 37 36 36 36 36 37 37 38 39 39 40 40 41 42 43 43 44 45 46 47 47 46 46 46 45 45 46 48 49 50 50 49 47 46 47 47
33 34 36 36 36 37 37 36 35 35 35 36 36 37 38 39 40 41 42 43 44 45 45 45 46 47 47 47 47 46 46 46 47 49 50 51 51 51 48 43 41 43
33 35 36 36 36 37 36 35 35 35 36 36 37 37 38 39 40 41 43 44 45 46 46 46 46 46 46 47 47 47 47 47 48 50 51 52 52 52 49 44 42 44
36 37 37 36 35 35 35 35 36 36 37 37 38 39 41 41 42 42 44 45 45 46 46 46 46 46 46 46 47 47 47 48 49 51 52 52 52 52 50 47 44 44
39 38 37 36 35 34 35 36 37 37 38 39 40 41 43 43 43 43 44 44 45 45 46 46 47 47 46 47 47 48 48 49 50 51 52 52 51 51 49 46 44 42
39 38 37 35 34 34 36 37 38 38 39 40 41 43 44 44 44 45 45 45 45 45 46 47 48 48 48 48 48 48 49 50 51 51 51 51 49 48 47 45 42 40
38 36 36 35 35 36 37 38 39 40 41 42 44 46 46 46 46 46 47 46 46 47 47 48 49 49 49 49 49 48 49 49 49 49 49 48 47 46 45 42 40 38
36 35 35 36 37 38 38 39 40 41 43 45 46 48 48 48 47 47 47 47 47 48 48 49 49 49 49 50 49 49 49 48 47 47 47 46 45 44 42 40 38 36
37 35 35 36 38 39 39 40 41 42 44 46 48 48 49 48 48 48 48 48 48 48 48 49 49 49 50 51 51 50 49 47 47 46 45 45 43 41 39 37 35 34
37 37 37 38 38 39 40 41 42 44 46 48 48 49 49 49 49 49 49 49 49 48 49 50 49 49 50 51 51 50 49 48 47 45 43 42 41 39 36 35 34 32
38 38 39 39 40 40 41 42 44 46 48 49 49 49 50 50 50 49 49 49 49 49 50 50 49 49 50 51 50 50 48 48 46 43 40 40 39 37 34 33 32 32
38 39 40 40 41 42 43 45 46 48 50 50 50 49 50 49 49 50 50 50 49 49 50 50 49 49 49 50 49 48 47 47 44 41 39 38 37 35 32 31 31 32
40 40 41 42 42 43 45 46 48 50 51 51 50 50 49 48 48 50 51 51 49 49 49 49 49 49 49 49 48 46 45 44 42 38 37 36 35 32 31 30 30 31
40 41 42 43 44 45 46 47 49 50 51 50 50 49 47 47 49 50 51 50 49 49 49 48 48 49 49 48 46 44 43 42 38 35 34 34 33 31 30 30 30 30
41 41 42 44 45 46 47 49 50 51 51 50 49 48 47 47 48 48 49 49 49 48 48 48 49 50 47 45 44 42 41 39 35 32 31 32 30 29 30 30 29 29
41 42 43 45 46 48 49 50 51 51 51 51 49 47 46 45 46 47 48 48 48 48 48 48 49 48 45 43 42 40 38 37 33 30 30 30 29 28 29 29 28 29
42 43 44 45 47 48 50 51 51 51 51 51 48 45 43 43 45 46 47 47 47 47 47 48 47 45 43 42 41 39 37 35 32 29 29 29 28 27 28 29 28 28
43 44 45 46 47 48 50 50 51 51 51 50 47 43 42 44 45 46 46 47 46 47 48 47 45 43 41 40 40 38 36 34 31 28 28 28 27 27 28 29 28 28
45 45 45 46 48 49 49 49 50 51 51 50 46 43 43 43 44 45 45 45 45 47 47 46 43 42 41 39 39 38 35 32 29 27 27 27 27 28 28 28 28 28
46 46 46 46 47 48 49 49 50 51 50 48 43 42 43 42 42 43 43 44 46 46 44 43 43 43 40 38 38 37 33 30 27 25 26 26 27 28 28 28 28 28

ECMWFNIL_500_spd_009.txt.gz
Wind_Speed
24 25 25 25 25 25 26 26 27 28 29 29 29 29 28 28 29 29 30 31 32 33 34 35 36 36 37 38 38 39 40 41 42 43 43 43 43 43 42 41 41 41
23 25 26 26 26 26 27 27 28 29 30 30 30 29 29 28 29 29 30 31 33 34 35 35 36 36 37 38 38 39 40 41 42 43 43 43 43 43 43 42 42 42
23 25 26 26 26 27 27 28 28 29 29 30 30 29 29 28 28 29 30 32 33 34 35 36 36 37 37 38 39 40 40 41 43 43 43 43 43 43 42 42 43 44
24 25 26 27 27 26 27 28 28 28 29 30 30 29 28 28 28 29 31 32 34 35 36 36 36 37 38 39 40 41 41 42 43 43 44 44 44 43 43 43 43 44
25 25 26 27 27 26 27 28 28 28 28 29 29 29 29 29 30 31 32 34 35 36 37 38 38 38 39 39 40 41 42 43 43 44 44 44 44 44 43 43 44 45
25 25 26 26 25 26 28 29 29 29 28 29 29 29 30 31 32 33 33 35 36 38 39 39 40 40 40 40 40 41 42 43 44 44 45 45 45 45 44 44 46 47
26 25 25 24 24 26 29 30 30 30 29 28 28 29 30 30 31 32 33 34 36 38 39 39 40 40 40 41 41 41 42 43 44 45 45 46 46 46 46 47 47 47
27 26 25 24 25 28 30 31 31 31 30 28 28 28 28 29 30 32 33 35 36 38 39 40 40 41 41 42 42 42 42 43 44 46 46 46 47 48 48 49 49 48
27 27 26 25 28 31 31 31 32 32 30 28 28 28 28 29 31 33 35 36 38 39 40 41 41 42 42 43 43 43 42 43 44 46 47 47 48 49 49 50 50 49
27 27 26 26 29 31 31 32 32 31 30 29 29 29 29 30 33 35 37 38 40 40 41 42 42 42 42 43 44 43 43 43 44 46 48 48 49 50 51 50 49 48
28 27 26 27 30 31 31 32 32 32 31 30 30 30 31 32 34 37 39 40 41 42 42 43 43 43 43 44 45 44 43 44 45 46 48 49 50 51 51 50 49 47
29 27 26 28 31 32 32 32 33 32 32 31 31 31 32 33 35 38 40 42 43 44 45 46 45 44 44 44 44 44 44 45 46 47 48 50 51 50 50 49 48 46
27 26 27 30 32 33 33 33 33 33 32 31 31 32 33 35 37 40 42 44 44 45 46 46 45 45 45 45 45 45 46 46 47 47 48 49 49 48 48 48 46 44
24 25 28 31 33 33 33 33 33 32 31 31 32 34 35 37 39 41 43 44 45 45 46 46 46 47 47 45 45 46 46 47 47 48 48 47 47 46 46 45 44 42
23 26 29 31 32 33 33 32 32 31 31 32 33 35 37 38 40 42 44 45 46 46 47 47 47 47 46 45 46 46 46 46 47 47 47 46 46 45 44 43 41 38
25 27 29 30 32 33 33 32 31 31 32 33 35 37 39 40 42 44 45 46 46 47 47 47 47 46 46 46 46 46 46 47 46 46 45 45 45 44 42 40 37 34
24 26 28 30 32 32 32 32 32 33 34 35 36 38 40 42 43 45 46 46 46 47 48 47 46 46 45 45 46 47 47 47 45 45 45 45 43 42 41 38 33 31
25 27 29 31 31 31 33 34 34 35 36 37 38 40 42 43 45 46 46 46 47 48 48 48 47 47 46 46 47 47 48 46 45 44 44 43 42 41 41 36 31 30
28 30 31 32 32 33 34 35 36 37 37 38 39 41 43 45 46 47 47 47 48 49 49 48 48 48 47 46 47 47 47 44 42 41 41 41 41 41 39 34 30 29
33 32 32 32 33 35 36 37 38 38 38 39 40 42 44 46 47 48 49 48 48 49 50 49 49 48 47 47 47 46 43 39 37 37 39 40 41 40 36 31 29 28
36 34 32 33 35 37 38 39 39 39 39 40 41 43 45 46 48 49 50 50 50 49 49 48 47 47 46 46 46 43 38 35 34 37 40 41 40 37 33 29 28 28
36 34 33 34 36 38 39 40 40 40 40 39 40 43 46 47 49 50 50 50 50 48 45 45 46 46 45 45 44 42 39 37 37 39 41 40 39 35 32 29 28 27
34 34 34 35 37 38 39 40 41 40 38 38 41 44 47 48 49 50 51 50 49 46 45 47 48 47 46 46 44 43 42 41 41 41 40 39 37 34 31 29 28 26
33 33 34 36 37 38 39 40 40 39 38 39 43 46 47 48 49 50 51 50 48 46 47 49 48 46 45 46 46 45 44 42 42 41 39 37 36 33 30 30 28 26
33 35 36 37 37 38 39 39 38 38 39 43 46 46 46 47 49 49 49 49 47 46 47 48 47 46 46 46 46 45 44 43 42 41 38 36 35 31 30 30 29 27
35 36 38 38 38 38 37 37 38 40 43 45 46 45 46 48 48 46 46 47 47 47 47 47 47 46 46 46 45 44 44 43 43 41 38 35 31 29 29 29 28 28

ECMWFNIL_500_spd_012.txt.gz
Wind_Speed
21 19 20 22 23 23 24 25 26 28 29 29 29 29 30 29 29 28 27 27 26 26 27 28 29 30 31 31 32 33 34 35 36 36 36 36 36 37 37 37 37 37
19 17 18 21 22 23 24 25 27 28 29 29 29 29 29 28 27 27 26 26 26 27 28 29 30 31 31 31 32 33 34 35 36 36 36 36 37 37 37 37 38 39
20 18 19 21 22 23 24 26 27 28 29 29 29 29 29 28 27 26 26 26 27 27 28 29 30 31 32 32 32 33 34 35 36 36 37 37 37 37 38 38 39 40
21 21 21 22 22 22 24 25 26 26 27 28 28 28 27 27 26 26 27 27 28 28 29 30 31 32 33 34 34 34 35 36 36 37 38 39 39 39 38 39 39 40
22 22 23 23 21 21 23 24 24 24 26 27 27 27 26 26 27 27 28 28 28 29 29 31 32 34 35 35 35 34 35 36 37 38 39 40 40 40 39 39 40 41
23 23 24 23 22 22 23 23 23 24 25 26 26 26 26 27 28 29 29 29 29 30 31 33 34 34 35 36 36 35 36 37 38 39 40 40 41 41 41 41 41 42
23 23 24 24 23 24 23 22 22 24 25 26 26 26 26 28 29 30 30 30 30 31 33 34 34 35 36 37 37 36 36 37 38 39 40 41 41 42 42 42 42 43
24 24 24 24 24 24 23 22 23 24 26 27 27 27 27 28 30 31 30 30 31 33 34 34 35 36 37 37 37 37 37 38 39 41 42 42 42 43 43 44 44 45
25 24 24 25 25 25 24 23 24 25 27 28 28 28 28 29 31 31 31 31 32 32 33 34 35 37 38 38 38 38 39 40 41 42 42 42 43 44 45 46 46 47
27 25 24 25 26 25 24 23 24 26 29 30 29 29 30 30 32 32 31 31 32 33 33 35 36 37 38 39 39 39 39 40 41 41 41 42 44 46 47 48 48 48
28 26 25 25 26 26 25 23 24 27 29 30 30 31 32 32 33 33 32 33 34 35 35 36 37 38 38 39 38 39 39 40 41 41 42 43 45 47 48 48 49 50
30 28 26 25 26 27 27 25 25 28 30 30 30 32 33 34 34 34 34 35 36 36 37 38 38 38 39 39 39 39 40 41 42 42 43 45 47 48 49 49 49 47
32 31 29 27 27 27 27 26 26 29 30 30 31 34 35 35 35 35 35 36 36 37 38 38 38 38 39 40 40 41 42 42 42 42 43 45 47 48 49 48 44 41
34 35 33 28 27 28 27 26 28 30 30 29 32 34 35 35 36 36 36 35 36 37 38 38 38 39 40 40 41 42 42 41 41 41 43 45 46 48 47 43 38 38
33 35 32 29 30 31 27 26 28 29 28 29 32 34 35 36 37 36 35 35 35 36 37 38 38 39 40 41 41 41 40 39 39 41 43 44 46 46 45 40 37 40
33 33 32 32 34 32 25 24 26 26 27 29 32 34 36 37 37 36 35 35 35 36 37 38 38 39 40 41 41 41 39 39 40 43 44 45 46 46 44 42 43 46
34 36 39 40 37 31 24 25 25 25 27 29 32 35 37 37 37 36 35 34 34 37 39 40 39 39 40 41 41 41 41 41 43 45 45 45 46 46 45 45 46 48
36 42 46 45 38 33 27 28 26 25 27 30 33 35 36 36 36 35 35 34 35 39 41 40 39 40 41 41 42 42 43 43 44 45 45 45 46 46 46 46 46 46
38 42 45 43 37 33 30 30 27 26 29 31 33 35 35 36 36 35 34 35 38 41 41 40 40 41 41 41 42 43 44 44 45 45 45 45 46 46 47 46 45 44
38 38 41 40 35 32 32 32 28 28 29 31 32 34 34 34 34 33 35 37 40 42 41 41 42 42 41 41 43 45 45 45 44 44 45 45 46 47 47 46 45 43
33 30 31 30 30 31 33 30 28 29 30 31 32 32 31 31 32 34 37 39 41 42 43 44 43 41 41 43 45 45 44 44 44 44 45 46 46 47 46 45 44 43
24 27 29 28 29 30 29 28 29 30 32 32 32 30 30 31 34 37 39 39 41 44 46 45 43 42 43 45 45 44 44 44 44 44 45 46 46 46 45 44 44 42
33 35 33 31 29 28 28 30 32 34 35 35 33 32 32 34 37 37 38 41 44 46 45 43 42 45 46 45 44 44 45 45 44 44 45 45 46 45 44 44 43 41
40 35 33 31 29 29 31 33 35 36 36 35 34 34 35 37 38 39 42 44 44 43 43 43 46 48 47 45 44 44 45 45 45 45 45 45 45 44 43 43 42 40
36 35 34 31 29 31 33 35 36 37 35 34 34 36 37 39 41 43 45 44 41 42 45 47 48 49 47 46 46 46 46 45 45 45 45 45 44 43 43 43 42 39
37 37 35 32 32 34 34 35 36 36 34 34 35 37 39 41 42 42 42 41 43 47 49 48 48 49 48 47 47 46 46 45 45 45 45 44 42 42 42 42 40 37

ECMWFNIL_500_spd_018.txt.gz
Wind_Speed
19 19 19 20 21 23 25 26 26 26 27 28 28 29 30 30 30 29 27 26 26 25 24 23 23 23 23 23 22 22 22 23 25 27 29 30 32 34 35 36 35 34
20 20 20 21 22 24 25 26 27 27 29 30 29 29 29 30 30 29 28 27 26 26 25 24 24 24 24 25 24 24 23 23 25 27 30 32 33 35 36 36 35 35
21 22 22 24 25 26 27 28 29 29 29 30 29 29 29 30 30 30 29 28 27 26 26 25 25 25 26 27 27 26 25 25 26 28 31 32 34 35 37 36 36 36
22 23 26 28 28 28 28 29 30 32 31 30 29 30 30 31 30 30 30 28 27 27 27 26 26 26 27 28 28 28 27 26 27 29 31 33 34 36 37 37 37 38
23 26 29 31 30 30 30 30 31 33 33 31 30 30 32 31 31 31 31 30 29 28 28 28 27 27 28 29 29 29 28 28 29 31 33 34 35 35 36 37 37 39
27 29 30 32 31 31 33 34 34 35 35 33 31 32 32 32 32 32 32 32 31 29 28 29 28 28 29 29 30 29 28 29 30 32 34 34 35 35 36 37 38 39
30 31 32 33 33 33 36 38 38 38 38 37 36 35 35 33 33 33 33 33 32 30 29 29 29 29 29 29 29 29 29 30 31 33 34 35 35 35 35 37 38 37
32 32 33 35 35 36 39 40 42 43 41 40 39 38 38 37 35 34 33 33 33 31 31 31 30 30 30 29 29 29 30 31 32 33 34 35 35 35 36 36 37 38
33 33 35 36 36 38 41 43 45 46 45 44 42 41 41 40 38 36 33 32 34 33 32 32 32 31 30 30 30 31 32 33 34 34 35 35 35 36 37 38 39 40
35 35 37 38 37 40 42 42 42 44 46 47 45 45 45 42 38 36 32 31 32 33 32 32 32 32 31 31 32 32 33 35 35 36 37 37 37 38 39 41 43 44
36 36 38 38 38 40 40 40 41 43 46 47 47 48 46 40 35 31 29 31 32 31 30 30 30 31 32 32 32 33 34 35 36 37 38 39 39 41 42 43 45 46
35 36 38 39 39 40 39 40 44 46 46 45 46 46 42 38 33 29 28 31 32 30 28 27 28 30 31 31 32 33 34 35 36 37 39 40 41 42 42 44 45 45
37 37 38 40 40 39 38 41 44 44 40 38 39 40 38 37 34 29 27 30 31 30 30 30 30 29 29 30 31 32 34 34 35 37 38 40 40 41 42 42 43 45
39 37 39 42 42 39 39 42 43 36 29 30 35 37 35 34 30 25 25 30 34 34 34 34 33 29 27 29 30 31 32 33 35 37 38 39 40 41 41 42 44 46
37 38 40 43 43 42 40 42 44 35 25 26 31 33 32 27 23 22 26 31 36 38 38 38 35 29 26 28 29 31 32 33 35 38 39 40 40 40 40 43 46 47
36 37 41 44 45 45 41 42 45 37 25 25 30 30 29 24 22 26 30 32 35 39 40 37 32 28 27 28 29 30 32 34 37 39 40 40 38 38 42 45 46 45
36 37 41 44 47 48 44 42 40 29 21 27 31 28 26 24 26 31 33 33 35 37 36 31 28 28 28 29 30 31 33 35 37 39 39 37 37 41 44 45 44 44
39 38 40 42 45 47 43 37 32 25 25 33 32 26 24 25 27 32 33 34 35 34 31 28 28 30 29 29 31 33 34 36 37 38 36 36 40 44 44 44 44 46
41 40 40 41 43 45 38 30 28 27 31 36 34 26 24 24 27 30 32 33 33 31 29 29 30 30 29 30 32 34 36 37 36 35 35 38 43 44 43 44 46 47
41 41 41 41 43 42 34 28 27 28 31 37 36 29 25 26 28 29 31 32 31 29 29 30 30 28 29 30 32 36 40 39 34 33 37 40 42 43 44 45 47 48
41 43 44 45 44 39 31 29 31 31 33 38 37 31 29 29 29 30 30 29 27 28 29 29 28 29 30 32 37 42 41 34 31 34 38 40 42 43 45 46 47 47
42 44 45 47 45 36 30 32 35 33 34 35 33 31 30 30 30 30 28 26 26 28 28 28 29 31 33 38 44 43 35 29 31 36 38 39 41 43 45 46 46 46
43 44 46 47 43 35 32 35 35 33 33 32 30 29 29 30 30 28 26 26 27 28 28 29 32 33 36 41 41 32 26 29 35 37 37 39 42 43 45 46 46 46
44 45 46 46 43 39 38 38 34 32 30 28 27 28 28 29 28 27 26 25 26 26 27 28 31 34 38 41 35 27 27 35 39 38 40 41 42 43 45 46 46 46
45 46 46 46 45 45 44 41 37 34 30 26 26 28 29 30 29 28 27 25 24 24 26 29 33 37 40 41 35 32 35 40 40 40 42 42 42 45 46 46 46 45
46 46 45 44 44 44 44 43 41 37 32 29 29 30 30 31 29 28 27 25 24 26 31 34 36 38 39 39 36 35 38 41 42 41 41 42 44 46 46 46 44 42

ECMWFNIL_500_spd_021.txt.gz
Wind_Speed
14 15 17 19 19 20 21 23 24 25 27 28 27 27 28 28 28 28 27 27 26 25 25 25 25 23 23 22 22 22 22 22 24 25 25 25 24 24 23 24 25 26
14 16 18 20 21 22 23 24 25 26 27 27 28 29 29 30 31 31 30 28 27 27 26 27 27 26 25 24 24 23 23 23 24 25 26 26 25 25 25 25 26 27
15 17 19 21 23 24 25 26 26 26 26 26 28 29 30 32 33 33 32 32 31 30 29 28 28 28 27 26 26 26 25 25 25 26 27 26 26 26 25 26 27 27
16 18 20 21 23 24 26 27 28 28 27 27 28 29 31 33 35 35 35 36 36 36 34 31 30 30 29 28 27 28 27 27 27 28 27 27 26 26 26 26 27 28
18 19 20 22 23 24 26 28 30 30 30 30 30 30 32 34 37 38 38 39 40 39 37 35 34 32 30 29 28 29 30 30 30 30 29 28 27 26 27 27 29 30
18 19 22 24 25 26 27 29 31 32 31 31 31 32 33 35 38 40 40 40 40 40 39 38 36 35 33 31 30 31 31 31 31 32 31 30 29 28 28 29 30 31
18 21 23 25 27 28 29 30 32 33 33 33 33 34 34 35 37 39 41 39 39 41 41 39 37 36 34 32 32 32 32 32 32 32 32 31 31 30 29 29 31 32
19 21 24 27 29 30 31 31 32 33 34 34 35 36 36 36 37 40 41 40 40 43 42 38 35 34 32 31 31 33 33 33 33 33 33 32 32 31 29 29 31 32
19 22 25 28 29 32 33 32 31 31 33 34 36 38 38 39 39 39 38 39 42 44 39 33 30 30 29 29 31 32 32 32 32 33 33 32 31 30 29 29 30 32
21 24 27 28 29 31 33 34 32 31 33 34 36 38 39 39 37 36 37 37 41 43 36 26 25 27 28 30 32 33 32 30 31 32 32 32 31 30 29 29 30 32
24 26 28 28 30 31 33 35 34 33 34 34 35 38 38 34 30 32 34 34 36 36 27 20 22 25 28 31 33 33 32 30 30 30 31 30 30 29 28 28 30 33
25 27 28 29 30 31 34 35 34 34 34 35 35 37 37 30 24 26 27 27 29 25 17 18 22 24 28 32 33 34 34 33 33 31 30 30 29 28 28 29 32 34
25 28 30 31 31 33 35 36 37 35 33 35 35 36 38 31 21 23 23 20 21 19 18 21 24 25 29 32 33 35 36 38 37 32 30 30 29 28 28 30 33 35
27 30 32 33 35 36 35 36 39 37 35 37 36 36 41 36 25 23 24 19 19 20 22 26 26 27 29 30 32 36 38 39 36 31 29 29 28 28 29 32 34 36
28 32 33 35 38 39 38 38 39 37 37 38 37 40 43 34 26 24 24 20 21 23 26 29 30 31 30 29 31 36 37 36 32 30 30 29 28 29 31 34 37 37
29 32 34 37 39 39 41 42 40 39 39 38 40 42 34 22 20 25 24 21 22 25 28 31 33 33 33 31 32 36 36 33 31 31 31 30 30 31 33 37 38 37
30 33 35 38 39 39 42 43 43 42 38 37 43 37 22 18 24 25 23 23 24 26 29 32 33 34 33 32 34 36 34 32 31 32 32 32 32 32 35 37 36 36
32 34 35 38 40 40 41 43 46 45 38 40 43 31 19 25 29 24 24 25 24 26 29 31 33 34 33 33 35 35 33 31 32 32 33 33 33 35 38 37 34 36
36 37 38 40 40 41 41 42 45 46 43 42 35 23 20 31 29 25 27 26 24 26 28 29 31 32 32 33 33 33 32 32 33 34 35 35 37 41 40 35 33 36
41 42 42 42 42 42 41 41 43 44 43 37 27 21 26 31 27 26 28 25 25 26 26 27 28 29 30 30 30 31 32 33 35 36 36 37 41 42 35 30 33 38
45 45 44 43 43 42 40 41 42 43 40 35 31 31 33 30 27 28 27 26 26 26 26 26 25 26 28 28 29 31 33 35 36 36 36 39 42 39 32 31 38 43
46 47 46 44 42 42 40 40 42 42 39 36 35 35 33 30 29 28 27 27 28 27 26 25 24 26 27 27 30 33 33 34 34 34 37 40 40 38 36 37 43 47
49 48 46 43 41 41 40 41 43 42 38 36 36 35 34 33 31 28 27 28 28 28 26 25 25 26 27 29 33 33 33 34 34 35 38 40 39 37 37 40 45 48
50 47 43 41 40 40 40 41 43 41 38 38 37 36 36 35 31 28 25 25 25 26 25 24 25 27 28 31 34 35 36 37 36 36 37 38 37 35 36 41 46 48
48 43 41 40 40 40 41 42 42 40 39 39 38 38 38 35 30 26 23 21 21 22 23 24 26 28 30 33 35 37 38 38 37 36 36 36 35 36 39 44 47 47
44 41 40 39 39 40 41 42 41 40 39 39 38 38 38 35 30 26 23 20 19 22 24 26 28 30 32 34 36 37 37 37 39 40 40 39 39 42 45 46 47 47

ECMWFNIL_500_spd_024.txt.gz
Wind_Speed
14 13 12 12 12 12 13 14 15 17 17 18 19 19 20 21 22 23 25 26 26 27 27 27 27 28 29 29 29 28 28 28 27 27 27 27 27 26 25 25 25 26
14 13 12 13 13 13 13 14 15 16 17 18 19 20 21 22 23 24 26 27 28 29 30 31 31 32 33 33 31 30 31 31 30 29 28 28 27 26 26 26 27 27
14 13 13 14 14 14 14 15 16 18 19 20 21 21 22 23 23 24 26 27 28 30 32 33 34 35 36 36 35 33 32 32 32 31 29 29 28 28 27 27 28 28
14 14 14 14 15 15 16 17 18 20 22 23 24 23 23 23 24 25 26 27 28 30 32 34 35 36 38 38 37 36 34 33 33 33 32 30 29 29 28 28 29 29
14 14 14 15 16 17 17 18 20 22 24 25 25 24 24 25 25 26 28 29 30 33 34 35 35 35 36 38 38 37 35 33 33 34 33 31 30 29 29 28 29 29
14 14 15 16 17 18 19 20 21 23 24 25 25 25 25 26 27 28 30 31 33 35 35 35 35 34 34 37 38 34 31 32 34 34 32 32 31 30 29 29 29 29
14 15 16 17 17 18 20 22 22 23 25 25 24 24 26 27 28 29 31 32 33 33 33 34 34 32 32 35 33 27 27 31 33 33 32 31 32 31 30 29 28 29
14 15 16 18 19 20 23 25 24 25 27 26 25 25 26 27 28 30 31 31 31 32 34 35 33 29 29 28 25 23 26 29 31 32 32 31 32 32 30 28 28 28
15 16 17 19 21 22 25 26 27 27 29 29 27 25 26 27 29 30 30 31 29 29 32 33 30 27 23 20 22 25 26 27 29 31 32 33 34 33 30 28 28 29
16 17 19 20 21 23 25 27 28 28 30 30 28 25 26 28 29 30 31 31 28 25 27 28 28 25 19 19 25 27 26 26 28 29 31 33 35 34 32 30 30 31
17 18 18 19 20 22 24 27 28 28 30 30 28 26 26 29 31 30 31 32 29 26 25 24 25 24 22 23 27 29 28 28 28 29 31 33 34 34 34 34 35 35
17 18 18 19 20 22 25 28 29 30 32 32 29 26 27 30 32 32 33 34 33 31 28 25 25 25 27 28 29 30 30 29 29 30 30 31 33 34 35 35 35 33
17 17 18 19 21 23 26 29 30 32 33 31 27 26 27 31 34 35 34 31 26 23 23 25 25 26 29 31 31 32 33 31 31 32 30 30 32 33 33 32 31 31
17 18 20 21 23 25 28 31 33 36 36 33 31 31 31 33 35 36 32 24 17 18 20 22 23 24 28 32 33 34 34 33 33 33 32 32 33 32 31 30 30 31
20 21 23 24 26 28 31 34 36 39 38 33 35 36 33 34 35 36 34 27 22 25 29 24 21 22 26 31 34 34 33 33 33 33 33 33 33 33 31 30 31 33
23 24 25 27 29 31 35 37 39 42 39 32 33 35 31 32 35 35 32 27 26 30 32 25 20 21 25 30 33 33 32 32 32 32 32 33 33 33 32 32 33 35
25 26 28 30 32 34 38 40 41 43 41 36 35 35 31 31 33 30 26 23 24 28 28 25 22 22 25 30 33 32 31 31 31 32 31 32 32 33 34 35 35 36
26 27 29 31 34 37 40 42 43 45 44 39 37 35 32 32 32 30 27 27 26 26 26 26 24 23 26 31 33 31 31 31 31 31 31 31 32 34 35 36 36 37
27 29 31 33 36 38 41 43 45 45 44 41 37 34 33 32 30 30 30 29 27 26 26 26 26 25 27 31 33 32 31 31 31 31 30 30 33 35 36 36 37 39
29 31 33 35 37 40 42 44 45 45 44 41 38 35 33 31 30 29 29 28 27 26 27 26 27 27 29 32 34 33 32 32 31 30 29 31 33 35 36 36 38 40
32 34 35 37 39 41 43 45 46 45 42 40 38 36 33 31 29 28 28 27 26 27 27 27 27 29 30 32 33 33 33 32 29 28 31 33 34 35 36 38 39 40
35 36 38 39 40 42 44 45 45 44 40 38 37 36 34 32 30 28 27 27 27 28 27 26 28 29 30 31 32 32 32 30 29 30 33 34 34 36 38 38 39 39
38 39 40 42 43 45 46 46 44 41 38 37 36 36 35 34 31 29 28 28 28 28 26 26 28 28 27 28 30 30 29 29 30 32 35 35 36 38 39 39 40 41
40 41 43 45 46 47 47 45 41 38 35 35 36 36 35 34 32 30 29 29 30 29 26 25 26 25 24 26 27 27 28 30 32 34 36 37 38 39 39 40 41 41
43 44 47 48 48 46 44 42 38 35 34 34 36 36 35 33 32 31 30 31 31 28 24 22 22 22 22 23 24 24 27 30 32 35 37 37 37 38 39 40 40 41
45 47 50 50 47 43 41 39 36 34 33 34 35 35 34 32 32 31 31 31 30 25 20 19 21 23 24 25 25 25 27 31 33 36 37 36 36 37 39 40 41 43

ECMWFNIL_500_spd_027.txt.gz
Wind_Speed
16 16 16 16 15 15 14 13 13 14 14 15 16 17 18 19 20 21 22 22 22 23 24 25 26 28 29 30 31 31 30 30 30 29 28 29 30 30 28 27 27 28
17 17 17 16 16 16 15 14 14 15 16 17 18 19 20 21 22 24 24 23 22 23 25 26 27 29 30 32 32 32 32 32 31 30 29 29 31 32 30 28 28 28
19 18 17 17 16 16 15 14 14 15 17 18 19 20 21 22 22 24 24 23 23 24 26 27 29 31 31 32 33 33 33 32 30 29 29 28 28 29 29 29 28 28
20 19 18 17 17 16 15 14 15 16 17 19 19 20 20 21 22 23 23 23 23 24 27 28 30 32 32 31 33 35 34 32 30 28 28 26 25 25 26 28 27 27
20 18 18 17 17 16 16 15 16 17 18 19 20 21 21 22 23 23 23 22 22 25 28 29 30 33 33 32 34 36 34 32 30 27 26 26 26 25 26 27 27 27
18 17 17 17 16 16 16 17 17 18 19 21 22 22 22 23 23 24 24 23 24 26 28 28 30 34 35 33 34 35 33 30 28 26 25 26 27 27 27 27 27 27
17 16 17 16 16 17 17 18 19 19 21 23 23 23 23 23 23 24 26 27 26 27 28 29 30 33 34 32 31 34 33 29 27 26 26 26 27 28 28 28 27 26
16 16 16 16 16 17 18 19 20 20 22 23 23 24 24 25 25 25 27 28 26 27 29 30 31 32 32 28 27 31 32 29 29 29 29 28 28 27 27 28 28 28
15 16 17 17 17 17 19 21 22 21 22 23 23 24 25 27 26 25 26 28 28 30 31 32 32 33 32 27 24 28 32 32 32 32 33 32 31 28 26 27 30 30
15 16 17 17 18 19 20 22 22 20 20 22 24 25 26 27 26 25 26 29 32 34 34 33 32 31 30 28 26 29 34 35 36 35 35 35 33 29 27 28 30 30
16 17 18 18 19 20 21 22 21 18 18 22 25 26 26 27 25 25 26 29 32 34 33 31 27 24 21 19 24 30 35 37 39 38 37 36 34 31 30 31 30 30
17 17 17 18 18 18 19 20 20 17 17 22 26 28 28 28 26 26 26 28 30 31 31 30 28 24 19 20 24 30 34 37 39 40 38 37 35 33 32 32 32 32
15 15 16 16 16 17 18 19 19 19 20 23 27 30 31 31 30 28 27 28 28 29 31 30 28 27 28 31 32 33 34 36 38 39 38 37 36 34 33 33 33 33
15 16 16 17 17 18 19 20 20 21 23 26 28 31 32 33 32 31 30 30 29 29 30 28 25 25 27 32 33 33 34 35 37 38 36 35 35 33 33 33 33 33
16 16 16 17 17 18 19 21 21 22 25 27 29 32 34 34 34 33 32 32 31 29 29 29 27 26 26 28 30 32 33 33 36 37 35 34 34 33 33 34 34 34
16 16 16 17 18 19 20 21 22 24 26 29 31 33 35 36 36 35 34 34 33 31 30 31 31 29 27 28 30 32 33 33 36 38 35 34 35 34 34 35 36 36
17 17 18 19 20 22 23 24 25 27 29 31 33 35 38 38 38 37 35 35 34 32 30 32 33 31 30 31 32 33 33 34 37 38 36 35 35 35 35 36 37 36
18 19 19 21 23 24 26 27 28 29 32 34 36 38 41 42 41 39 37 35 34 32 31 32 32 30 31 33 32 33 34 36 38 38 36 35 35 35 36 37 36 36
20 21 22 24 26 27 29 30 30 31 34 36 39 41 44 45 44 41 37 35 33 31 31 32 30 29 31 33 33 33 35 37 38 37 35 35 35 36 37 37 36 35
23 24 25 26 28 30 31 33 33 34 36 39 42 44 46 46 44 40 37 35 32 31 31 32 31 30 31 32 32 34 37 38 38 36 35 35 35 36 36 36 35 33
27 28 28 30 31 33 34 36 36 37 39 42 44 46 48 46 41 37 34 33 32 31 31 32 32 31 31 32 33 36 38 38 37 36 35 35 36 36 36 36 34 33
29 30 31 33 35 36 37 38 39 40 42 43 46 49 49 44 38 34 32 31 31 31 31 32 32 30 30 32 35 36 37 36 34 34 34 35 36 36 35 35 34 34
31 32 33 35 37 39 40 41 43 43 44 45 48 51 49 42 36 33 31 29 30 31 30 31 31 30 30 32 34 34 33 31 31 32 34 35 37 37 36 35 35 37
33 34 35 37 40 41 43 46 47 46 46 48 50 52 48 41 37 34 31 29 30 31 31 30 30 30 30 30 31 30 28 27 28 31 34 36 38 38 37 35 36 39
35 36 38 39 41 43 46 49 49 47 48 51 53 51 46 40 37 35 32 31 31 31 32 32 31 31 30 27 27 26 26 27 29 32 35 37 38 38 37 36 38 40
39 39 40 41 43 46 48 49 48 47 50 53 53 49 44 39 37 36 35 34 33 33 33 33 32 31 29 26 25 27 29 29 30 33 36 38 38 38 39 39 39 39

ECMWFNIL_500_spd_030.txt.gz
Wind_Speed
18 18 18 17 16 16 16 16 16 15 15 15 15 16 16 16 16 17 18 19 21 22 23 23 24 24 26 27 28 29 31 33 33 33 32 31 30 28 27 30 30 29
19 19 19 18 17 17 17 16 16 16 16 16 16 17 17 17 17 17 18 20 21 22 23 24 25 26 27 28 29 30 32 33 34 34 33 32 31 28 27 31 30 25
21 20 20 20 19 18 17 17 17 17 17 16 16 16 16 17 18 19 20 21 23 23 23 23 24 25 27 27 28 31 32 33 33 33 33 32 30 27 26 28 27 23
22 22 22 22 20 18 18 17 17 17 17 17 16 15 16 18 19 20 22 22 24 25 24 24 25 26 27 28 29 31 32 33 33 32 33 32 30 28 27 28 26 24
22 22 23 22 20 18 18 17 17 17 17 16 16 16 17 18 19 20 22 23 24 26 26 27 27 26 27 28 30 31 33 34 33 32 32 32 30 29 30 31 29 28
20 21 21 20 18 18 17 16 16 16 16 16 16 17 17 18 19 19 21 23 24 26 27 28 28 28 29 30 31 32 33 33 33 31 31 32 33 32 32 33 33 32
16 17 17 17 16 15 15 16 16 15 15 15 16 16 17 17 19 19 21 23 24 25 26 28 30 31 32 32 31 31 32 32 30 30 30 33 36 37 35 35 35 34
13 13 13 13 13 13 14 15 16 15 15 16 17 17 16 18 19 20 21 22 24 25 26 27 30 31 32 32 31 30 31 29 26 27 30 34 37 40 40 38 36 35
12 12 12 12 12 13 14 15 16 16 16 17 18 17 17 18 19 21 22 23 24 26 27 28 30 31 31 31 31 30 29 26 22 23 27 32 36 40 41 40 37 35
11 12 12 12 13 13 14 14 16 16 16 17 17 17 18 19 21 23 24 25 26 28 29 29 30 31 30 31 31 30 28 25 24 26 29 34 39 41 42 41 38 36
12 12 13 13 13 13 13 14 14 14 14 16 18 18 19 21 23 25 26 27 29 30 31 31 32 32 30 30 31 30 27 27 29 33 36 38 41 43 44 42 39 36
13 13 13 14 13 12 12 13 13 14 14 16 19 21 21 22 24 26 27 29 31 33 35 34 35 35 32 31 31 30 28 28 30 33 35 36 37 40 43 42 39 36
14 14 14 14 13 11 11 13 15 15 15 17 19 22 23 23 24 26 28 29 32 35 37 38 38 38 35 32 32 32 30 30 30 31 32 33 34 37 41 42 39 37
16 15 14 12 11 11 12 14 16 17 17 17 18 20 23 24 25 26 28 30 34 37 39 39 40 40 37 34 33 33 33 32 31 31 32 32 34 36 41 42 40 38
16 15 13 12 12 12 13 14 15 16 17 17 18 20 23 25 26 28 30 33 36 39 40 41 40 40 38 36 35 34 34 34 33 33 32 32 34 37 40 42 40 38
16 15 13 13 13 13 13 14 15 16 18 20 21 23 26 28 30 32 34 36 39 41 43 42 41 40 39 38 36 34 33 33 33 34 34 33 35 37 40 41 40 39
17 16 15 15 15 14 14 15 16 18 20 23 25 27 29 31 33 35 37 39 41 42 43 43 41 40 39 38 36 34 32 32 33 35 34 34 36 38 41 41 39 39
18 17 16 16 16 15 16 18 19 22 24 26 28 30 32 33 35 38 40 42 43 43 43 42 40 39 37 37 36 34 32 33 34 34 34 34 36 39 41 41 39 38
19 18 17 16 17 19 20 22 23 25 27 28 31 33 34 36 38 41 43 45 46 47 45 42 39 37 36 37 37 35 33 34 34 33 32 33 37 40 41 41 40 38
20 18 17 18 19 21 23 24 26 27 29 30 32 35 36 37 39 42 44 45 47 49 48 44 39 36 36 37 37 35 34 33 33 32 31 34 38 40 41 41 39 37
20 19 19 20 21 23 24 26 27 29 31 32 34 36 38 38 40 43 44 45 47 49 49 45 40 37 36 37 37 34 33 32 31 30 32 35 38 39 39 39 38 36
21 22 23 23 24 25 26 27 29 31 32 34 36 38 39 41 43 44 45 47 48 49 48 45 41 38 36 37 38 36 34 33 30 30 32 35 37 37 37 36 35 36
24 25 26 28 29 29 29 29 31 32 34 36 38 40 41 43 45 45 47 49 50 49 48 45 42 40 38 38 40 39 37 35 32 31 33 36 36 35 34 34 34 37
28 28 30 32 33 33 33 33 33 35 37 38 40 42 43 45 46 47 48 50 51 50 48 44 42 40 39 39 40 39 37 35 33 32 34 35 35 34 34 35 36 39
32 33 34 34 35 37 37 37 37 38 40 40 42 43 44 46 48 49 49 51 52 51 47 44 42 41 40 40 39 37 36 35 34 34 34 34 34 35 36 37 38 40
36 37 37 37 38 40 40 40 41 42 42 43 43 44 46 48 50 50 50 52 52 51 48 44 42 42 41 40 37 36 35 34 35 35 35 35 36 37 37 37 38 41

ECMWFNIL_500_spd_033.txt.gz
Wind_Speed
17 16 17 17 16 16 16 14 13 13 13 12 12 12 13 13 14 14 14 15 17 18 19 20 21 21 21 22 23 23 25 26 27 29 30 33 32 28 25 26 26 26
19 18 18 18 18 18 17 15 14 13 13 12 12 13 13 14 14 16 16 17 18 19 20 21 22 22 22 22 24 25 27 27 28 29 30 33 34 29 24 23 25 27
21 20 20 20 19 19 18 16 15 14 13 12 12 13 13 14 14 15 17 19 20 20 21 21 22 23 22 22 24 26 28 29 28 29 30 32 35 32 26 22 24 27
22 22 22 21 21 20 19 17 15 14 12 11 12 13 14 14 14 15 17 19 19 20 20 21 22 23 23 23 25 26 28 30 29 29 29 31 34 34 30 26 25 26
22 22 22 22 21 20 18 17 15 13 11 11 12 13 14 15 15 16 16 17 18 19 19 20 22 24 25 26 27 27 28 29 30 29 28 30 32 33 32 30 28 26
19 19 20 20 20 18 17 16 14 11 10 10 11 13 14 15 16 17 16 17 18 18 20 21 23 24 26 28 29 29 29 29 30 30 29 28 30 31 31 32 32 32
16 16 17 17 16 15 15 14 12 9 9 10 11 13 14 15 16 17 18 18 19 20 21 23 24 25 27 28 29 30 30 30 31 31 31 29 29 30 31 33 35 38
13 13 13 13 12 12 12 11 9 8 8 9 11 13 14 14 16 17 19 19 20 22 23 24 26 27 29 30 31 32 32 32 32 31 31 30 29 29 31 33 35 38
12 11 10 10 10 10 10 9 8 7 8 9 12 14 15 16 16 17 19 20 22 23 23 24 26 29 32 34 35 36 35 35 34 32 31 30 30 29 30 32 34 36
12 10 9 9 9 10 9 8 8 8 8 10 12 14 15 16 17 18 20 21 22 22 23 24 27 31 34 36 37 38 38 37 36 33 30 29 30 30 31 32 33 35
11 10 10 10 10 10 9 9 8 9 10 11 12 13 15 16 17 19 20 21 21 22 23 26 28 31 34 36 37 38 38 37 36 33 31 29 29 30 31 32 33 34
12 11 11 11 11 11 10 9 9 10 10 12 13 14 15 16 17 18 18 19 19 21 24 27 29 31 34 37 38 38 38 36 35 34 34 32 31 31 31 31 33 34
13 12 12 12 12 11 10 9 9 10 11 13 14 16 16 16 16 16 17 18 20 22 25 28 30 32 35 38 39 39 38 36 34 34 34 34 33 32 31 32 33 35
14 14 14 13 12 11 10 10 10 11 12 13 15 16 16 14 14 16 17 19 21 24 27 30 32 33 35 38 40 40 39 36 34 34 33 33 33 32 32 33 35 35
16 16 15 13 12 11 11 11 12 12 12 12 14 14 14 15 16 18 20 21 24 26 30 32 34 34 36 39 40 40 39 36 34 34 33 33 33 32 32 34 35 35
18 16 14 12 12 12 12 12 12 13 12 12 12 13 15 17 19 20 22 24 26 28 30 32 34 35 37 40 41 40 39 36 34 33 33 33 33 33 33 34 34 34
18 17 14 13 14 14 14 14 14 14 13 13 13 15 18 19 21 22 24 25 27 29 31 32 34 36 38 40 42 41 40 36 33 32 32 32 33 33 33 34 34 34
18 17 15 15 15 15 16 16 16 15 15 16 17 18 20 21 23 25 26 27 28 30 32 34 34 36 39 41 43 43 40 36 32 31 31 32 33 33 33 33 34 35
19 17 17 16 16 17 18 17 17 16 17 18 19 20 22 24 25 27 28 29 31 32 34 35 35 37 40 42 44 43 40 36 32 30 31 31 33 34 33 34 35 36
20 18 17 17 17 18 18 18 17 17 18 19 21 22 24 26 28 29 31 32 33 34 35 36 37 39 41 43 44 44 41 37 33 31 32 33 34 34 35 35 37 38
21 19 18 18 19 20 19 18 18 19 19 20 22 23 25 27 30 32 33 34 35 36 38 39 40 41 43 44 44 44 42 39 35 33 34 35 36 36 36 36 38 38
21 20 20 20 21 20 20 20 20 20 21 22 24 26 28 30 32 34 36 37 37 38 40 41 42 43 44 44 45 45 43 40 38 36 37 38 38 37 37 37 38 39
21 21 21 21 21 20 21 22 22 22 24 25 27 29 31 33 34 36 38 39 39 41 42 43 44 45 44 44 46 46 44 41 40 39 39 39 38 37 37 37 39 39
23 23 22 21 21 21 23 24 24 25 26 28 30 32 34 36 37 39 40 41 41 43 44 45 46 45 43 43 46 46 44 41 40 40 40 39 37 36 36 37 39 40
26 24 23 23 23 24 26 27 26 27 29 31 33 35 37 39 41 42 43 44 45 45 46 46 47 46 43 43 45 45 43 41 40 40 39 37 36 35 35 36 38 39
28 26 25 24 26 28 30 30 30 31 32 34 35 37 39 42 44 45 46 46 48 49 49 48 47 45 44 45 45 44 43 41 39 38 37 36 35 35 36 36 36 37

ECMWFNIL_500_spd_036.txt.gz
Wind_Speed
18 17 16 15 14 14 14 13 13 12 12 12 12 12 11 10 11 12 11 10 10 11 13 15 16 17 17 17 18 19 20 22 24 25 26 27 28 29 30 30 27 22
21 20 18 17 16 16 15 15 14 14 13 13 13 13 12 11 11 11 12 12 11 11 13 14 15 16 16 17 19 20 22 24 26 27 27 28 29 29 30 31 30 25
23 22 21 20 19 19 18 16 15 15 14 14 13 13 12 12 11 11 12 12 12 12 13 13 14 16 17 19 21 22 24 25 26 27 28 28 28 29 29 30 30 29
24 24 23 23 22 21 20 18 16 16 15 14 14 13 12 12 12 11 11 12 12 13 13 13 14 16 18 20 22 24 25 26 26 27 27 27 27 28 28 29 29 30
25 25 24 24 24 23 22 20 18 18 16 15 14 13 12 13 12 11 11 12 13 14 13 14 15 18 20 22 23 24 25 26 26 26 26 26 26 26 27 27 28 28
25 25 25 25 25 24 23 22 20 18 16 16 15 13 13 13 12 11 12 13 14 15 15 16 17 19 21 22 23 24 26 27 27 27 26 26 25 25 25 26 27 28
23 23 23 23 23 23 22 22 20 18 16 16 15 14 13 13 12 12 13 14 14 15 16 18 19 20 21 22 24 26 27 29 29 28 27 25 25 24 23 24 26 28
22 21 21 20 20 20 20 20 19 18 16 15 15 15 14 13 12 12 13 14 14 15 17 19 20 20 20 22 25 27 29 30 30 29 28 26 25 24 24 24 25 27
20 20 19 18 19 19 19 19 19 17 16 16 16 15 14 13 12 13 14 14 14 15 17 18 19 20 22 24 26 27 29 30 31 30 28 27 26 26 25 25 25 26
18 18 17 17 18 18 18 18 18 17 17 17 16 15 15 13 12 13 13 14 15 15 16 17 18 21 23 25 27 28 29 30 31 30 29 28 27 26 26 25 25 25
18 17 17 17 18 18 18 18 18 17 17 17 16 16 15 14 13 13 14 14 15 15 15 17 19 21 23 25 27 28 29 30 31 31 29 28 27 25 24 23 23 24
18 17 17 18 20 19 18 18 18 18 18 17 17 16 15 14 14 14 14 15 14 14 16 17 19 21 23 25 27 28 29 30 31 31 30 28 27 26 23 22 22 24
19 19 19 21 21 21 20 19 19 19 18 18 17 16 14 14 14 14 14 14 14 15 16 18 19 21 22 25 27 28 29 31 32 32 32 31 29 28 25 22 22 24
21 21 22 23 23 23 22 21 20 19 19 19 17 15 15 15 15 14 14 14 14 15 17 18 20 21 22 25 27 29 31 32 33 34 34 33 31 30 27 24 23 24
23 23 24 25 25 24 23 22 21 20 20 18 16 16 17 16 15 14 14 15 15 16 18 19 21 22 24 26 28 30 32 33 34 34 35 34 32 30 29 27 25 26
24 24 25 25 25 24 24 23 22 21 20 18 17 17 17 16 15 15 15 16 17 17 19 20 22 23 25 28 29 31 33 34 35 34 35 34 32 30 29 28 27 28
26 25 25 25 24 25 25 25 24 22 20 19 19 18 17 17 16 15 16 17 17 18 20 21 23 25 27 29 31 33 35 36 36 35 34 34 33 31 30 29 29 30
27 26 25 24 25 26 26 26 25 23 21 20 19 19 18 17 16 16 17 17 18 20 22 23 25 27 29 32 34 36 37 37 38 37 36 35 35 33 31 30 30 31
29 28 26 24 24 26 28 28 26 24 22 21 20 21 20 18 17 17 17 18 19 21 23 25 27 29 31 34 37 39 40 39 40 40 38 37 36 35 33 32 32 32
30 30 27 25 25 27 29 29 27 25 23 23 23 22 20 18 17 17 17 18 20 22 24 27 29 31 33 35 38 41 42 42 42 42 40 39 37 36 35 34 34 33
32 31 29 26 27 29 31 30 28 26 25 24 23 22 20 18 17 17 18 19 22 24 26 28 30 33 34 36 39 42 45 45 44 44 42 40 39 38 37 36 35 35
33 33 31 29 28 31 32 30 29 27 25 25 23 21 20 18 17 18 19 21 23 25 27 30 33 35 36 38 41 44 48 48 46 45 43 41 40 39 38 37 36 36
35 35 34 31 29 31 32 30 29 27 26 25 23 21 20 18 18 19 21 23 25 27 30 33 35 36 38 40 43 47 50 49 45 43 42 41 41 40 39 38 38 37
37 37 36 33 30 30 31 30 29 28 27 25 24 22 20 19 20 21 22 24 26 29 33 35 36 38 40 41 43 45 46 42 37 37 39 41 42 41 40 40 40 39
38 38 37 35 32 30 30 30 30 29 27 26 24 22 21 21 21 22 24 26 28 31 34 35 37 38 39 39 41 41 40 38 35 36 39 42 42 42 41 40 40 40
39 39 39 37 35 32 30 31 31 30 28 27 26 25 23 23 23 25 26 28 30 33 33 34 37 38 37 39 42 41 39 39 39 39 41 43 44 42 41 40 40 40

ECMWFNIL_500_spd_039.txt.gz
Wind_Speed
17 16 17 18 18 18 17 17 16 15 14 15 15 14 13 11 9 8 8 7 7 6 5 6 8 9 10 11 13 16 18 20 21 22 22 21 20 19 20 21 22 21
19 19 19 20 20 20 20 20 19 17 16 16 16 15 14 13 11 9 8 8 7 6 6 7 8 9 10 12 14 16 18 19 21 21 21 20 18 17 18 19 21 22
21 21 21 21 22 22 23 23 21 19 18 17 17 17 16 14 12 10 9 8 7 7 7 8 8 8 10 13 15 16 17 18 20 21 21 20 18 17 17 18 19 21
23 23 23 24 25 25 25 24 23 20 19 18 19 19 17 16 13 12 10 8 7 7 8 9 9 9 11 13 15 15 16 17 19 21 22 21 19 18 17 17 19 20
25 25 25 26 27 27 27 25 24 23 21 20 21 20 18 17 15 13 11 9 8 8 8 9 10 11 12 13 14 15 16 18 20 21 22 22 21 20 19 18 19 20
25 26 27 28 28 28 27 26 26 25 23 22 22 22 20 18 16 15 13 10 9 9 9 10 11 11 13 14 15 16 18 19 20 21 22 22 22 22 21 20 20 20
24 26 28 29 29 29 27 27 28 27 25 24 24 23 21 19 17 16 14 12 10 10 10 10 11 12 13 14 15 17 19 21 21 22 22 22 22 22 22 22 22 23
22 25 27 28 29 29 28 28 28 28 27 26 24 23 22 20 19 17 14 13 11 10 11 11 11 12 13 14 16 18 20 21 22 23 23 23 23 23 23 23 23 25
20 22 24 26 27 28 28 28 28 28 27 25 24 24 23 22 21 18 15 13 12 11 11 11 12 13 13 15 16 18 20 21 23 24 25 25 26 25 24 23 23 24
19 19 21 22 23 25 25 26 26 26 25 25 25 25 24 23 22 19 16 14 13 12 12 11 13 14 15 15 17 19 20 21 23 24 26 27 28 28 26 25 23 24
18 18 18 19 20 22 24 25 25 25 25 25 26 25 24 25 23 19 16 15 15 14 12 12 13 15 16 16 17 19 20 22 23 24 26 28 29 29 28 27 25 24
18 18 17 17 18 21 23 24 24 25 25 26 27 26 26 26 23 19 18 17 16 14 13 13 14 16 17 17 18 20 21 22 23 24 27 28 29 29 29 28 27 25
18 18 18 18 19 21 23 24 23 24 25 26 27 27 28 27 23 20 20 20 17 15 13 13 14 16 17 17 19 20 21 22 23 25 27 28 29 29 29 29 28 27
18 19 19 20 21 22 24 24 23 24 25 27 28 28 28 26 23 22 22 20 17 15 14 14 15 16 17 18 19 19 21 22 24 26 27 28 29 30 30 29 29 28
20 20 21 22 23 23 23 23 24 25 26 28 28 28 28 26 24 24 23 20 17 16 15 14 15 16 17 18 19 20 21 24 26 27 28 29 30 31 31 31 29 28
22 22 22 23 24 24 24 24 24 26 28 28 28 28 28 27 26 24 22 20 18 17 16 15 16 17 17 18 20 21 22 24 27 28 30 32 33 35 35 33 31 29
25 24 24 24 24 25 25 25 26 27 28 29 28 29 29 27 26 24 22 20 20 18 16 16 16 16 17 19 21 22 23 24 27 29 32 35 37 39 38 36 33 31
27 27 27 26 26 26 26 26 27 28 29 29 29 30 29 28 27 24 22 22 21 19 17 16 16 16 17 20 22 22 23 25 28 30 32 36 39 40 39 36 32 30
29 29 29 29 28 28 27 26 27 28 29 30 31 31 31 30 27 25 24 23 21 19 18 17 17 16 18 20 23 23 23 26 28 30 31 34 37 37 34 30 28 28
31 31 31 31 31 30 30 29 27 26 28 31 33 33 32 30 28 26 25 23 21 20 19 19 18 17 18 21 23 24 25 27 28 29 31 33 33 33 31 28 28 29
32 33 33 34 34 33 32 31 29 27 28 31 34 34 32 31 29 27 26 25 23 21 21 20 19 19 20 22 24 25 25 27 27 27 30 32 32 31 31 31 31 32
33 34 36 37 37 36 33 32 31 29 28 30 34 34 33 32 30 29 27 26 24 23 22 21 20 21 22 24 26 25 26 27 28 28 30 32 33 32 32 33 35 36
35 35 37 38 39 38 36 34 33 31 28 29 33 34 34 33 31 30 29 27 26 25 23 22 22 23 24 26 27 26 27 29 30 30 32 33 35 35 35 36 38 40
38 38 39 40 39 39 38 35 35 33 31 30 32 34 35 34 32 32 31 30 28 26 25 24 24 25 26 28 27 26 28 31 33 33 34 35 36 37 37 38 41 43
39 40 41 40 39 39 38 37 36 35 33 32 33 34 35 36 35 34 34 32 29 28 27 27 26 26 28 29 28 27 29 32 34 34 34 36 38 39 40 42 44 45
38 41 42 40 38 38 39 39 38 38 37 35 34 35 36 37 37 37 36 34 31 30 30 29 27 27 30 31 30 30 32 34 34 34 36 38 40 41 43 44 46 48

ECMWFNIL_500_spd_045.txt.gz
Wind_Speed
17 16 15 16 16 17 18 18 16 16 16 16 16 16 14 13 11 10 9 9 10 11 12 13 12 11 11 9 7 5 4 4 5 7 9 10 11 12 12 12 12 11
17 17 16 16 16 17 18 19 18 17 17 17 17 16 15 13 12 12 11 10 11 11 12 14 13 12 12 10 8 6 5 4 5 7 9 10 10 11 12 12 12 12
19 18 17 16 16 17 18 19 19 18 18 18 17 16 15 14 13 13 13 12 11 12 12 14 14 13 13 12 10 8 6 5 5 7 9 9 10 11 11 12 11 11
21 20 19 19 18 19 19 19 19 19 19 19 19 18 16 15 15 14 14 13 12 12 13 14 15 15 14 13 11 9 7 6 6 7 8 9 10 11 11 11 11 11
23 23 22 21 21 21 20 19 19 20 20 20 20 19 18 17 16 16 15 15 14 13 14 14 15 16 16 14 12 10 8 7 7 8 8 8 9 10 11 12 12 11
21 22 22 23 23 23 22 21 21 21 21 22 22 21 20 19 18 17 16 16 16 15 14 15 15 17 17 15 13 11 9 8 7 8 8 8 8 9 10 11 12 12
19 19 20 21 22 23 23 23 23 23 23 23 23 22 21 20 19 19 18 18 17 17 16 16 16 17 18 16 15 12 10 9 8 8 9 9 8 9 9 10 11 12
18 19 19 19 20 22 23 24 25 25 25 25 24 23 23 22 21 20 19 19 19 18 18 17 17 18 19 17 15 13 11 9 8 9 9 9 9 8 9 10 11 12
17 17 17 17 17 19 21 23 25 27 27 26 25 25 24 23 23 22 21 21 20 20 20 19 18 18 19 18 17 15 12 10 9 9 10 10 9 9 10 11 12 13
15 15 15 15 15 16 18 21 23 26 27 27 26 26 25 24 24 24 23 22 21 21 21 20 19 19 20 20 18 16 14 11 9 9 10 10 10 11 12 14 15 15
14 13 12 12 13 14 16 18 20 22 24 25 26 26 25 25 25 25 24 23 22 22 22 22 22 21 22 21 19 17 15 13 11 10 10 11 12 12 14 16 16 16
13 12 11 11 10 11 12 14 15 17 18 20 21 22 22 23 23 24 23 23 23 23 24 24 24 23 23 22 21 18 16 14 12 12 12 13 13 13 16 17 17 17
13 12 11 11 10 9 8 8 9 10 12 13 14 14 14 15 17 19 20 21 23 24 25 25 25 24 23 23 22 20 18 16 15 14 14 14 14 15 17 17 17 18
14 14 13 12 11 9 7 5 5 6 7 8 9 11 11 12 13 14 16 17 20 22 24 26 25 24 24 24 23 22 20 18 17 16 16 16 15 16 18 18 18 18
16 16 14 13 12 10 8 7 6 6 7 7 8 9 10 11 12 13 13 13 16 20 23 25 24 23 23 24 24 24 22 21 20 18 18 18 16 16 17 19 19 19
18 17 16 15 13 12 12 10 9 9 9 8 8 9 9 10 11 12 13 13 14 16 19 21 21 22 24 25 25 26 25 23 22 20 20 19 17 16 17 18 19 21
19 18 17 16 15 15 15 13 13 13 12 11 10 10 11 10 10 9 11 13 15 16 17 18 18 20 24 26 27 28 28 26 24 23 21 20 18 17 17 18 20 23
19 19 18 17 17 17 18 17 17 17 16 14 13 14 14 12 10 10 11 12 14 16 16 17 18 20 23 26 28 30 30 28 26 25 23 21 20 19 18 20 22 23
20 20 19 19 19 20 21 22 21 20 20 19 18 18 17 14 13 14 14 13 13 14 16 18 19 21 23 26 29 31 31 30 29 27 25 22 22 21 20 22 25 24
22 22 21 21 21 23 24 25 24 23 23 23 23 22 20 18 18 18 17 16 15 15 16 18 19 22 24 26 29 31 33 33 32 30 27 24 23 22 22 24 26 25
24 23 24 23 23 24 25 26 27 26 26 26 27 26 25 23 23 22 21 20 18 17 18 17 18 21 24 26 29 32 34 35 34 32 29 26 25 24 24 25 26 25
27 28 27 26 25 26 26 27 28 28 28 28 29 30 30 28 27 26 26 25 23 22 21 19 19 21 24 27 30 33 36 37 36 34 31 28 27 27 26 26 26 25
33 33 30 28 28 29 28 28 29 29 30 30 30 32 33 33 33 31 31 30 29 28 26 23 23 24 26 29 32 35 37 38 37 36 34 31 30 29 27 27 27 27
39 38 33 30 30 31 30 30 30 30 32 33 34 35 35 35 36 35 34 35 35 34 32 30 28 27 28 30 33 36 38 38 39 39 36 34 33 31 29 29 29 29
39 40 37 33 33 33 31 31 33 33 35 36 36 36 36 37 38 39 39 39 39 38 38 36 34 33 32 31 34 37 39 40 41 41 38 36 35 32 31 31 31 31
37 39 38 36 35 35 34 35 35 35 37 37 37 37 37 39 39 39 40 40 40 41 41 40 38 37 36 34 35 38 41 42 42 42 41 39 37 35 33 33 34 34

ECMWFNIL_500_spd_048.txt.gz
Wind_Speed
20 19 18 17 17 17 18 19 19 18 18 18 18 18 17 16 14 13 12 10 8 7 7 9 10 11 11 11 12 11 10 8 7 6 7 7 6 5 4 4 4 3
21 20 19 18 17 17 18 19 19 19 18 19 19 18 18 16 14 14 14 12 10 9 9 9 10 11 12 12 12 12 11 9 7 6 6 6 6 5 5 4 4 3
20 19 19 19 18 18 19 19 19 19 19 19 19 19 18 16 15 15 14 14 12 11 11 11 11 11 12 13 13 13 12 11 8 6 6 6 5 5 5 5 4 4
19 19 19 19 19 19 19 18 19 19 19 19 19 20 19 17 16 15 15 14 14 13 12 12 12 12 12 13 14 14 13 12 9 7 6 6 5 5 5 5 5 5
20 20 20 19 19 19 19 18 18 19 19 19 20 20 19 18 17 16 16 15 15 14 14 14 14 14 13 13 14 14 14 13 11 8 7 7 6 5 5 5 5 6
20 20 20 20 20 20 19 19 19 20 19 20 20 20 20 19 18 17 17 16 16 15 15 16 16 15 15 14 15 15 15 14 12 9 8 8 7 6 6 6 6 7
20 20 20 20 20 20 20 20 21 21 21 21 21 20 20 20 19 18 18 17 17 16 16 17 18 18 17 16 16 16 16 15 13 11 9 9 9 7 6 6 8 10
20 20 20 20 20 20 20 21 22 22 23 23 23 22 21 21 20 20 19 19 18 17 18 18 19 20 19 18 17 17 17 16 15 13 11 10 10 9 8 8 9 11
20 19 18 18 18 19 19 20 22 23 24 24 24 24 24 22 22 21 21 21 20 19 19 20 20 21 21 20 18 18 18 17 17 15 12 11 11 10 10 9 10 12
19 18 17 16 16 17 18 20 21 22 23 24 24 24 24 24 24 23 23 22 22 21 21 22 22 22 23 22 21 20 19 19 18 17 15 13 12 12 11 11 11 13
19 17 16 15 16 16 17 18 19 20 21 22 22 22 23 24 25 24 24 23 23 24 23 23 24 24 24 23 23 22 21 20 20 19 17 15 14 13 12 12 12 14
18 17 15 15 16 15 15 15 15 16 17 18 19 19 20 22 23 24 24 24 25 26 26 25 25 26 26 25 25 24 23 21 21 20 20 18 16 14 13 13 13 14
18 17 16 16 15 14 12 11 10 11 12 13 14 15 15 17 18 19 20 22 24 25 25 25 26 27 27 27 27 26 24 23 22 22 22 21 19 17 15 14 14 15
19 19 18 17 15 14 11 9 7 7 7 8 8 9 10 12 13 14 15 17 19 20 21 22 24 25 26 27 27 26 25 24 23 23 24 24 23 20 17 15 15 16
21 21 19 18 16 14 12 10 8 7 6 5 5 5 5 7 8 10 12 13 14 15 16 18 19 21 23 25 27 26 26 26 26 25 26 26 25 24 21 18 17 18
23 22 20 19 17 15 14 13 11 9 8 6 5 5 4 4 5 6 9 11 12 14 15 15 16 17 20 24 26 27 26 27 28 28 28 28 27 26 24 21 19 19
23 22 20 19 17 17 17 16 14 13 11 9 8 7 6 6 5 5 6 8 10 13 15 16 16 15 17 21 24 26 27 28 29 30 30 29 29 28 26 24 22 21
23 22 21 19 18 17 18 18 17 16 14 13 11 10 9 9 8 7 7 7 8 10 12 15 17 17 18 20 22 24 26 27 29 31 32 31 30 29 29 27 26 25
23 22 21 19 18 19 19 20 20 19 17 16 15 14 14 12 10 10 10 10 9 10 11 13 15 17 20 22 23 24 25 27 30 31 32 33 32 31 31 30 29 28
24 23 21 20 21 21 22 21 21 20 19 19 18 18 18 16 14 14 14 13 13 13 13 14 14 15 18 22 25 26 27 28 30 32 33 34 33 32 32 32 31 30
24 23 23 22 22 23 23 22 23 23 22 22 21 21 21 21 21 20 18 17 17 17 17 17 17 17 18 21 24 26 29 31 32 33 34 34 34 34 33 33 32 32
23 23 24 24 24 24 24 24 25 25 25 25 24 24 25 26 27 26 23 22 23 23 23 22 22 22 22 23 25 27 29 31 34 35 35 34 34 33 33 34 35 34
23 24 26 27 27 27 26 26 26 25 25 26 27 27 28 29 29 30 30 30 29 29 29 28 27 27 27 28 29 31 32 32 33 35 36 36 35 34 34 35 37 36
25 27 29 29 29 29 29 29 28 28 28 30 31 30 30 31 31 30 31 32 33 34 33 32 32 32 32 33 34 35 36 36 36 36 36 36 36 34 34 36 37 37
27 27 28 28 28 29 32 34 34 33 33 34 34 33 33 33 32 31 30 32 34 35 35 34 34 34 35 35 37 39 40 41 41 41 39 38 37 36 35 36 38 38
27 27 26 26 27 30 34 37 37 37 39 40 39 37 36 35 34 32 31 32 34 35 36 37 36 36 36 35 36 40 43 45 46 46 43 41 40 39 37 36 38 39

ECMWFNIL_500_spd_051.txt.gz
Wind_Speed
21 21 21 22 22 21 20 19 18 18 17 16 16 17 16 16 15 14 14 13 12 10 9 9 9 9 9 9 8 8 8 8 7 7 7 7 8 9 9 9 8 7
21 21 20 20 20 20 21 20 20 19 18 17 17 16 16 16 16 16 15 14 13 12 11 11 10 10 10 9 9 9 9 8 7 7 8 8 8 8 8 8 8 8
21 20 19 19 19 19 21 21 20 19 19 18 18 17 17 16 16 16 16 15 15 13 12 12 12 11 11 10 10 9 9 9 8 8 8 8 7 7 8 7 7 7
21 20 19 19 18 19 19 19 19 19 19 18 18 18 18 17 17 16 16 16 16 15 13 13 13 13 12 12 11 11 10 10 9 8 9 9 8 7 7 7 6 6
21 20 19 18 18 18 18 18 18 19 18 18 18 18 18 18 18 17 17 17 17 16 15 14 14 14 14 13 13 12 11 11 10 9 9 10 9 7 6 6 6 6
20 19 19 19 18 18 18 18 18 18 18 18 18 18 19 19 19 18 18 19 19 17 16 15 15 15 15 15 15 14 13 13 12 11 10 11 10 9 7 6 6 7
20 20 20 20 19 19 19 19 19 19 19 19 19 19 19 19 20 20 20 20 20 19 17 16 16 16 17 17 17 16 16 15 13 12 11 11 12 11 9 7 6 7
22 22 21 21 20 20 20 20 20 20 20 20 20 21 21 21 21 21 21 21 21 21 19 18 18 18 19 19 18 19 18 17 15 14 13 13 13 13 11 9 8 7
23 22 22 21 21 20 20 20 20 20 20 20 20 21 22 22 22 22 22 22 23 22 21 20 20 20 20 20 20 20 20 20 18 16 15 14 14 15 14 12 10 9
22 22 22 21 20 20 20 20 19 19 18 18 19 19 20 21 22 23 23 23 24 23 23 22 22 22 22 22 22 22 22 22 21 19 17 16 16 16 16 15 13 12
22 22 22 21 20 20 20 20 19 18 17 17 18 18 18 19 21 23 24 24 24 24 24 24 24 24 24 24 23 23 24 24 23 22 20 18 17 17 18 18 16 15
22 22 22 21 20 20 20 19 18 17 17 17 17 17 17 18 19 21 22 23 24 25 25 26 26 26 26 26 25 25 25 25 25 24 23 21 19 18 19 19 19 18
22 22 22 21 21 21 20 19 17 17 16 16 16 16 16 16 17 19 21 22 24 25 26 26 27 27 27 27 27 26 26 26 26 25 24 23 22 21 20 21 21 21
22 23 23 22 22 22 20 18 17 17 16 16 15 14 14 15 16 18 19 20 21 24 25 26 27 27 27 27 26 26 26 26 26 26 25 25 24 23 23 22 23 24
23 24 24 23 23 22 19 17 17 17 16 15 13 12 13 13 14 15 16 16 17 19 21 21 22 22 22 22 23 23 24 24 24 25 25 25 26 26 25 25 25 25
25 26 26 25 24 22 20 19 19 18 16 14 13 12 12 12 12 12 12 13 14 15 16 16 16 15 16 17 19 20 22 22 23 24 25 26 27 27 27 27 26 26
26 27 27 26 25 24 21 20 20 18 16 15 13 12 12 12 11 10 10 11 11 12 13 14 14 14 15 16 18 20 21 22 23 24 26 27 28 28 29 28 28 27
26 28 28 27 26 25 23 22 21 20 18 17 15 14 14 13 12 12 11 11 10 10 11 11 12 13 14 16 19 20 22 23 24 25 26 27 28 29 29 30 29 29
26 28 29 28 27 26 24 23 22 20 19 19 18 17 17 16 15 14 13 13 12 11 11 11 12 11 11 13 16 18 21 23 25 26 26 27 28 28 29 29 29 29
25 28 29 28 27 26 25 23 22 21 21 21 21 21 20 18 17 16 15 15 15 15 14 14 14 12 12 13 15 17 19 22 24 25 26 26 27 28 29 29 29 29
23 26 27 27 27 27 25 24 23 22 22 22 22 23 22 21 21 19 18 17 18 18 18 17 17 16 15 16 18 21 23 24 25 26 26 25 26 26 28 29 29 29
21 24 26 26 27 27 26 24 23 22 22 23 23 23 23 23 23 22 21 21 21 22 22 21 20 20 20 19 21 25 27 28 29 30 30 29 28 28 28 29 30 29
20 22 24 25 26 25 24 22 22 23 24 24 24 24 25 24 24 24 24 25 26 27 27 26 25 25 25 24 25 28 30 32 33 34 34 34 33 33 33 33 34 33
17 19 22 23 23 22 21 21 22 24 25 25 26 26 26 26 26 27 27 29 30 30 31 31 30 28 27 26 27 28 31 35 36 36 37 37 37 38 38 38 39 40
17 17 18 20 21 21 21 23 24 24 25 25 26 27 28 29 30 31 32 32 33 33 33 32 32 32 30 28 28 29 31 34 36 37 38 38 39 39 39 39 40 41
20 19 19 20 21 21 22 23 24 25 25 26 28 29 31 31 32 34 35 35 35 35 35 34 34 34 33 31 31 32 32 34 37 38 38 38 38 37 37 37 38 40

ECMWFNIL_500_spd_054.txt.gz
Wind_Speed
18 17 18 19 18 16 15 15 14 14 14 14 14 13 12 12 11 11 11 10 10 10 10 8 7 7 7 6 6 6 6 6 6 6 6 7 8 9 9 8 8 8
18 18 18 18 18 17 16 15 15 14 14 14 14 14 14 14 13 12 12 11 11 11 12 11 9 8 7 7 7 6 6 6 7 7 6 7 7 8 9 8 7 8
18 17 17 17 17 17 17 16 15 14 14 14 14 14 14 15 15 14 14 13 13 12 13 12 11 9 8 8 7 7 7 7 7 8 7 7 7 7 8 8 7 6
17 16 16 16 16 16 16 16 16 16 15 15 14 14 14 15 15 16 16 15 14 14 14 14 13 11 10 9 9 8 8 8 7 8 9 8 7 7 8 8 7 6
17 16 15 15 14 14 14 15 16 16 17 16 15 15 15 15 16 17 17 17 16 16 15 15 14 14 12 11 10 10 10 9 9 9 10 9 9 8 8 9 9 8
17 16 15 14 13 13 13 14 15 16 16 16 16 15 15 16 16 17 18 18 18 18 17 16 16 15 15 13 12 11 11 11 10 10 11 11 10 10 9 10 10 10
18 17 16 15 15 15 15 15 16 16 16 16 17 17 17 17 18 18 19 19 19 19 19 18 17 17 17 16 15 14 13 12 12 12 12 12 12 11 11 11 11 11
19 18 17 17 16 16 16 17 17 17 18 18 18 18 19 19 19 20 20 20 20 20 20 20 19 19 19 18 17 17 15 14 13 13 14 13 13 13 13 12 12 13
19 18 18 17 17 17 18 18 18 19 19 19 19 19 19 19 19 20 20 20 21 21 21 21 21 21 21 20 19 19 18 16 15 15 15 15 14 14 15 14 14 14
18 17 17 17 17 18 19 19 20 20 19 19 18 18 17 17 18 18 19 19 20 21 22 22 22 21 22 22 21 21 20 19 18 16 17 17 17 16 16 15 15 15
17 17 17 17 17 18 19 20 20 19 18 17 16 16 16 16 17 17 17 18 19 20 21 22 23 22 23 23 22 22 22 22 21 19 18 18 19 18 17 16 16 17
17 17 17 18 18 19 19 20 20 19 18 17 16 16 15 15 15 16 16 16 17 19 19 21 23 23 23 23 23 23 23 23 23 22 21 19 19 20 19 18 17 18
17 18 19 19 19 20 20 20 20 19 17 17 17 16 14 13 14 14 14 14 15 17 18 19 21 22 23 23 24 24 24 24 25 25 24 22 21 21 21 20 19 19
18 20 20 21 21 21 21 20 20 19 18 18 17 16 14 13 13 13 13 13 13 15 17 17 18 20 22 23 23 24 24 24 25 25 25 23 22 21 22 21 20 20
19 20 21 22 22 22 21 21 20 20 19 19 18 16 15 14 13 12 12 12 12 13 14 15 15 17 19 20 21 22 22 21 22 23 23 22 21 21 22 22 21 21
19 20 21 22 23 23 22 22 22 21 20 20 18 17 16 15 13 12 12 12 12 12 12 12 13 14 15 16 17 17 18 17 17 18 20 20 19 19 21 22 23 22
18 19 21 22 24 24 24 23 23 22 21 20 19 17 17 16 14 13 12 12 12 10 10 10 11 12 13 14 15 15 16 17 16 16 17 19 19 19 19 21 22 23
16 18 19 21 24 25 24 23 23 22 21 20 19 18 18 16 15 14 13 13 11 10 9 9 9 11 11 12 13 14 15 16 16 16 16 17 18 19 19 20 21 23
16 16 17 19 21 24 24 23 23 22 21 20 19 19 19 17 16 15 14 13 11 10 10 9 10 10 10 10 11 13 15 16 16 16 16 16 17 18 19 20 21 22
18 16 16 17 19 22 23 23 23 22 21 21 21 20 19 18 17 17 15 15 14 13 13 12 12 12 12 11 12 14 16 18 19 18 18 17 18 19 20 21 23 24
19 18 18 18 19 21 22 22 22 22 22 22 21 21 20 20 20 19 18 17 17 17 16 15 15 15 15 15 15 17 19 22 22 22 20 20 20 21 22 24 25 27
19 19 20 20 20 20 20 20 21 22 23 23 22 21 21 22 22 21 20 20 20 20 20 19 18 19 19 18 19 20 22 25 25 25 24 22 22 23 24 25 26 27
21 19 20 21 21 20 19 19 21 23 24 24 23 22 22 22 22 22 22 22 22 22 22 22 22 23 23 22 23 24 25 27 29 29 28 26 25 25 26 27 27 29
21 17 17 19 20 19 18 19 22 23 24 24 23 22 21 21 20 21 21 21 21 21 22 23 24 26 27 26 26 26 27 28 30 32 32 30 29 29 29 29 29 30
23 17 15 15 16 17 18 19 21 22 22 22 22 21 21 20 19 19 19 20 21 22 23 24 26 29 30 30 30 30 30 30 30 32 32 32 33 33 33 33 33 33
25 19 16 14 14 14 16 17 18 19 20 20 21 21 21 21 20 20 20 21 22 23 24 25 26 28 29 31 33 34 34 34 33 33 32 33 34 36 37 37 37 36

ECMWFNIL_500_spd_057.txt.gz
Wind_Speed
12 12 13 13 11 10 9 9 9 8 8 8 8 7 7 6 7 6 6 7 8 8 8 7 6 5 6 7 8 8 7 7 7 7 6 6 6 6 6 6 6 6
12 11 12 12 11 10 10 10 9 9 9 9 9 9 9 9 9 8 8 8 9 10 9 8 7 6 6 6 8 9 9 9 8 8 7 7 7 7 7 6 6 7
12 11 11 11 11 11 10 9 9 9 9 9 10 10 10 11 11 11 11 10 10 11 11 10 9 8 7 6 7 8 9 10 10 10 9 9 8 7 7 7 6 7
12 11 11 11 11 11 10 9 9 9 9 9 9 10 10 11 12 12 13 12 12 12 13 12 11 9 9 8 7 8 9 10 10 11 11 10 10 9 8 8 7 7
12 11 11 10 10 10 9 9 10 10 9 9 8 8 9 10 11 12 13 13 13 13 14 14 13 12 11 10 9 8 9 9 10 11 11 11 11 11 10 9 9 8
12 11 11 10 10 10 9 10 11 11 10 10 9 9 9 10 11 12 13 14 14 14 13 14 15 14 13 12 11 10 10 10 10 11 12 12 12 12 11 11 10 9
12 11 11 11 11 10 10 11 11 11 11 11 11 11 11 12 12 13 14 14 14 15 14 14 15 15 15 14 13 13 12 11 10 11 12 13 12 13 13 12 11 11
13 13 13 12 12 11 11 12 11 11 11 11 12 13 13 13 14 14 14 14 14 15 15 15 15 15 16 15 15 14 14 13 12 12 13 14 14 14 13 13 13 13
14 13 13 12 12 12 12 12 11 11 12 12 13 14 13 13 13 13 14 14 14 14 14 15 16 16 16 16 16 15 15 14 14 13 13 14 15 15 15 14 14 14
13 13 13 12 12 13 13 12 12 11 11 12 13 13 13 13 12 12 13 13 13 13 13 14 15 16 16 17 17 17 16 15 15 14 14 14 15 16 17 16 15 15
14 13 13 13 13 14 14 12 12 11 11 11 11 12 12 12 12 12 12 12 13 13 13 13 13 14 15 16 17 17 16 16 15 15 15 16 16 16 17 17 16 16
14 14 13 14 14 14 14 13 12 11 11 11 11 11 12 12 12 12 12 12 11 11 12 12 13 13 14 15 16 17 17 16 16 15 15 16 17 18 17 17 16 16
13 14 14 14 14 14 14 13 13 12 12 11 11 11 12 12 12 13 12 11 10 9 10 11 11 12 13 14 15 15 16 16 16 16 16 17 18 19 19 18 17 17
13 14 14 15 15 15 15 14 14 14 13 12 12 12 12 13 13 13 12 11 10 9 9 9 10 11 11 12 13 14 14 15 16 17 16 16 15 16 16 16 16 16
13 14 14 16 16 16 16 16 16 15 15 14 13 13 13 13 12 12 11 10 10 9 10 9 9 9 10 11 12 12 13 12 12 13 13 12 10 10 10 11 12 12
13 14 15 16 17 17 18 18 18 17 16 15 14 14 13 12 11 10 10 11 10 9 9 9 9 9 9 10 10 10 11 10 8 9 9 10 9 8 8 8 9 10
14 15 16 17 17 18 20 20 20 20 18 16 14 14 14 13 11 10 10 11 10 9 9 9 9 9 9 9 9 9 9 9 8 7 8 8 8 8 8 8 8 8
13 14 16 16 17 18 20 21 22 22 20 16 15 15 15 14 12 10 10 11 11 9 9 9 9 8 8 8 9 9 9 8 7 7 7 7 7 8 8 9 9 10
12 14 15 16 16 17 19 21 22 21 19 17 16 16 15 14 13 12 11 11 11 10 9 9 8 8 8 9 9 10 10 9 9 9 8 9 9 10 10 11 12 13
13 13 14 16 16 17 18 19 19 18 18 18 17 16 15 15 14 14 12 12 11 10 9 8 8 8 9 10 10 12 12 12 12 12 12 12 13 13 13 14 15 16
16 15 14 15 16 18 17 17 17 17 17 17 17 16 16 16 16 14 13 12 11 11 10 9 9 10 10 11 12 14 16 16 16 16 15 15 15 15 16 16 18 19
18 18 17 16 16 18 18 17 17 17 17 17 17 17 17 17 16 14 13 13 13 12 11 10 11 12 12 13 14 16 18 19 20 21 21 21 20 19 18 19 20 21
20 20 20 18 17 17 19 20 19 18 18 18 17 17 17 17 16 15 15 15 14 14 13 12 13 14 14 15 16 18 20 21 23 25 26 27 26 25 24 23 23 23
21 21 22 22 20 17 18 21 21 21 20 20 18 16 16 16 17 16 16 15 15 14 14 14 15 15 16 17 18 20 22 23 24 26 27 28 29 30 29 28 27 27
23 23 23 24 23 19 17 19 21 22 22 21 19 16 15 15 16 16 16 16 15 15 15 15 15 16 17 18 20 21 21 22 23 24 25 27 29 31 32 32 32 32
25 24 24 24 24 20 16 16 19 21 22 21 19 17 16 15 16 15 15 16 16 16 16 16 17 17 19 19 20 20 20 21 22 22 23 24 26 28 30 32 34 35

ECMWFNIL_500_spd_060.txt.gz
Wind_Speed
16 15 15 15 13 12 11 10 8 7 7 6 5 5 4 4 4 4 4 4 4 4 4 5 5 5 6 7 8 8 9 9 9 9 9 8 8 7 5 4 3 3
18 17 16 15 13 12 12 11 10 9 8 7 6 6 6 6 6 5 6 6 6 6 6 6 7 6 6 6 7 8 9 9 9 9 9 9 8 8 7 6 5 3
20 19 17 16 15 14 13 12 11 10 9 8 8 7 7 7 7 7 7 8 8 8 8 8 8 8 8 7 7 8 8 9 9 9 9 9 9 9 8 8 7 6
20 19 18 18 17 15 13 12 11 10 10 9 9 8 8 8 8 8 8 9 9 9 9 9 10 10 10 9 8 8 9 9 9 9 10 10 10 10 10 9 8 8
21 20 20 19 17 15 13 12 12 11 10 10 9 8 8 8 8 8 9 9 9 10 10 10 10 11 11 11 10 10 10 10 10 9 10 10 11 12 12 11 10 9
20 20 19 17 16 15 14 14 13 12 11 10 9 8 8 8 8 9 9 9 9 10 10 10 10 11 12 13 13 12 11 11 11 11 10 10 11 12 12 13 12 11
19 19 18 17 16 15 15 15 14 13 12 11 9 8 8 8 8 9 9 9 10 11 11 11 11 11 12 13 13 13 13 12 12 12 11 10 10 11 12 13 12 12
19 19 19 18 17 17 16 15 14 13 12 10 9 9 8 8 9 9 9 10 10 11 12 12 12 12 12 12 12 13 13 13 13 13 12 11 10 11 11 12 12 12
20 19 19 18 17 17 17 16 14 13 12 10 10 9 8 8 9 9 9 10 11 11 12 12 13 13 13 13 12 12 12 12 13 13 13 12 11 11 10 11 11 12
19 19 18 17 16 16 16 16 15 14 12 11 9 8 8 8 8 8 9 10 11 11 12 12 13 13 13 13 12 11 11 11 11 12 13 13 12 12 11 11 11 11
18 18 17 16 16 16 16 16 15 14 12 10 9 8 8 8 8 8 9 10 11 11 12 12 12 12 13 13 12 11 11 10 10 11 11 12 12 13 12 12 12 12
18 18 17 17 17 16 16 16 15 13 11 10 9 9 9 9 9 9 10 11 11 11 11 12 12 12 12 12 12 11 11 10 10 10 11 11 12 13 13 13 13 12
17 18 19 19 18 17 16 15 14 13 12 11 10 10 10 9 10 10 11 11 11 11 11 11 11 11 11 11 11 11 11 10 9 10 10 11 12 12 12 11 11 10
18 19 19 19 19 17 16 15 14 13 12 12 11 11 11 11 11 11 11 10 10 11 10 10 10 11 11 11 10 10 10 9 8 8 8 9 10 9 8 6 5 5
19 19 18 18 17 16 15 14 14 13 13 13 13 12 12 12 12 11 10 10 11 10 9 9 10 10 10 10 10 9 8 7 6 6 5 5 5 5 3 2 2 2
19 19 18 17 16 16 15 15 15 15 15 14 14 14 13 13 12 11 11 11 11 10 9 9 10 10 9 9 8 8 6 5 4 4 4 4 4 3 2 1 0 1
17 17 17 17 17 17 17 17 17 17 17 17 16 15 14 13 12 12 12 12 12 10 9 10 10 9 8 8 7 6 5 5 5 5 4 4 3 3 3 2 1 1
13 14 14 15 15 16 17 18 19 19 19 19 17 16 15 14 13 12 12 13 12 11 10 10 10 9 8 8 7 7 7 6 5 5 4 3 3 2 2 3 3 3
11 10 11 12 13 15 17 18 18 19 19 19 18 18 17 15 14 13 13 13 13 11 11 11 10 9 9 9 9 8 8 7 6 6 5 4 4 4 5 6 7 7
10 9 9 10 11 13 15 16 16 17 18 18 19 19 18 16 15 15 14 13 13 12 11 10 10 10 10 11 11 10 9 8 7 6 6 6 7 8 9 11 11 11
11 10 10 10 11 12 13 13 14 15 16 17 19 20 19 18 17 16 15 14 13 12 11 11 11 11 11 11 11 11 9 8 7 7 8 8 9 11 13 14 15 16
13 12 11 11 11 11 11 11 13 14 15 17 19 20 20 19 18 16 15 15 14 13 12 12 12 12 12 12 12 12 10 9 9 9 10 10 12 13 15 16 17 18
16 15 14 14 13 12 11 11 13 15 17 18 19 20 20 19 18 17 17 17 17 16 14 14 14 14 13 13 13 13 12 11 11 11 12 13 14 16 18 19 20 21
19 19 18 17 16 15 14 13 13 15 18 20 20 20 20 20 20 20 20 19 18 17 16 16 16 15 14 14 14 14 14 14 15 16 16 17 19 21 22 22 23 23
21 21 21 20 18 17 17 17 16 15 17 20 21 21 21 22 23 23 21 20 19 18 18 17 17 17 16 15 15 16 16 17 19 20 20 20 21 22 22 23 23 24
23 23 24 23 21 21 20 19 18 16 15 17 20 22 23 24 24 23 22 21 20 19 19 18 18 19 19 18 18 19 20 22 23 22 21 20 20 21 21 22 23 24

ECMWFNIL_500_spd_063.txt.gz
Wind_Speed
18 19 19 18 17 16 15 14 14 13 13 12 12 10 9 8 7 6 5 4 3 2 2 3 3 4 5 7 8 10 11 11 11 11 11 10 9 8 6 5 4 3
20 21 20 19 18 17 16 15 14 14 13 12 11 10 10 9 9 8 7 6 6 5 5 4 4 4 4 5 6 8 9 9 10 11 11 11 11 10 9 7 5 4
22 22 21 20 19 18 17 16 15 14 13 12 11 11 11 10 9 9 8 7 7 7 7 6 6 6 6 6 6 7 7 8 9 10 11 11 12 12 11 10 8 6
23 23 22 21 20 19 18 17 16 15 14 13 12 12 11 10 9 9 8 7 7 7 7 7 7 7 7 7 7 7 7 8 8 8 9 10 11 11 12 12 10 9
24 24 23 22 21 20 19 17 16 15 15 14 13 12 12 11 10 9 8 8 7 7 7 8 8 8 8 8 8 8 8 8 8 8 8 8 9 10 11 12 11 10
25 25 24 23 22 21 19 18 18 16 16 15 14 13 12 11 10 10 9 8 8 8 8 8 8 8 8 8 8 9 9 9 9 9 8 8 8 8 9 10 11 10
25 25 24 24 23 21 20 19 18 17 17 16 15 14 13 12 11 10 9 9 8 8 8 8 8 8 8 8 8 9 9 9 10 9 9 8 7 7 7 8 9 9
25 25 25 24 23 21 21 20 19 18 18 17 16 15 14 13 12 10 9 9 9 8 8 8 9 9 9 9 8 8 9 9 9 9 9 8 7 7 7 7 7 8
25 25 25 24 22 21 21 21 20 19 19 18 17 16 14 13 12 11 10 10 9 9 9 9 10 10 10 10 9 9 9 9 9 9 8 8 7 7 7 7 8 8
24 24 24 22 22 22 22 21 20 20 18 18 17 16 14 14 13 12 11 10 11 11 11 11 10 10 10 10 10 9 9 9 9 9 8 8 8 7 8 8 9 9
25 24 23 22 22 22 22 21 21 20 18 18 17 15 15 14 13 12 12 12 13 12 12 11 10 10 10 10 10 10 10 10 9 9 9 8 8 9 9 9 9 10
24 24 24 23 23 23 23 22 21 20 19 18 17 16 15 14 13 13 13 14 13 12 11 11 10 10 10 10 10 10 10 10 10 10 10 10 10 10 10 10 10 10
23 24 25 25 25 24 23 22 21 21 20 19 18 17 16 15 14 14 14 14 13 11 11 10 9 10 10 9 9 10 10 11 11 12 11 11 11 11 11 10 10 8
23 25 25 26 26 25 24 23 22 22 22 21 19 18 17 16 16 15 15 14 12 11 10 9 9 9 9 9 9 10 10 11 11 12 12 12 13 12 11 10 8 6
25 26 26 26 25 24 23 23 23 24 23 22 20 19 19 18 17 16 14 13 12 12 11 9 9 9 9 9 9 9 9 10 11 12 13 13 13 12 10 8 7 6
26 26 26 25 24 24 24 24 25 24 24 23 21 20 19 19 17 15 14 14 14 13 11 10 10 10 9 8 8 8 9 9 11 11 12 12 12 10 9 7 7 6
26 26 26 25 24 24 24 24 24 24 23 23 22 21 20 19 17 15 15 15 15 14 12 11 10 10 9 8 9 9 9 9 10 11 11 11 10 9 8 8 7 6
26 26 26 25 25 25 24 24 24 24 23 23 22 21 20 19 17 16 16 17 16 14 12 12 11 10 9 9 10 9 9 9 10 10 10 10 9 9 8 8 7 6
24 24 24 24 24 24 25 25 24 23 23 22 22 22 21 19 18 18 18 18 17 15 14 13 13 11 10 11 11 10 10 9 10 10 10 10 9 9 8 7 6 6
19 18 18 19 19 20 21 21 20 20 21 21 22 21 20 20 19 19 19 19 18 17 17 15 14 13 13 13 13 12 11 10 10 10 10 10 9 8 8 8 8 8
15 15 15 15 16 16 15 15 15 17 18 19 19 19 20 21 22 21 21 20 20 20 18 17 16 15 15 15 15 14 14 13 11 11 10 10 9 9 9 9 10 10
16 16 15 15 14 14 13 13 14 15 16 17 17 18 20 22 23 23 22 21 21 21 19 18 17 17 17 17 17 17 16 14 12 12 12 11 10 11 11 11 11 13
18 17 16 15 14 13 13 13 14 14 15 17 17 17 19 21 23 25 24 22 22 22 20 19 19 19 19 19 19 19 17 16 15 15 14 13 12 12 13 13 14 16
20 19 18 17 16 15 14 14 14 14 15 16 17 18 19 20 23 26 26 24 23 22 22 22 21 21 20 20 20 19 18 18 18 18 16 14 14 15 15 15 16 18
22 21 20 20 18 18 17 16 15 15 15 16 16 18 19 21 22 24 26 25 24 23 23 23 23 23 22 21 20 19 19 20 20 19 17 16 16 17 17 18 18 19
23 22 22 22 21 21 20 19 18 17 17 17 17 17 20 22 22 22 24 26 26 25 25 25 25 24 23 22 21 21 21 21 21 19 17 17 18 19 19 19 21 22

ECMWFNIL_500_spd_066.txt.gz
Wind_Speed
17 17 18 19 18 17 16 15 15 15 14 14 13 11 9 8 7 6 6 5 4 3 2 2 3 3 5 6 8 10 11 13 13 13 12 12 10 8 6 4 4 4
18 19 20 19 18 17 17 17 17 16 16 15 14 12 10 9 9 8 7 6 5 4 3 2 1 1 1 2 4 5 7 8 10 11 11 11 11 10 8 6 4 3
21 21 21 21 20 19 18 18 17 16 16 15 14 13 12 12 11 10 9 8 7 6 5 4 3 3 2 1 1 2 3 4 5 7 8 9 10 9 9 8 6 4
23 23 23 23 22 21 20 19 17 16 16 15 15 14 14 14 12 11 11 10 9 8 7 6 5 5 4 4 3 2 2 2 2 3 4 6 7 8 8 8 7 6
25 25 26 25 24 23 22 20 18 17 16 16 15 15 15 14 14 13 12 11 10 9 8 7 6 6 6 6 5 4 4 3 3 2 2 2 4 5 6 7 7 7
27 27 28 27 26 24 23 22 21 19 18 17 16 16 15 15 14 13 13 11 10 9 8 7 7 6 6 6 6 6 5 5 4 4 3 2 1 2 3 5 6 6
28 29 29 28 27 26 25 24 23 21 19 18 17 17 16 15 14 13 13 11 10 9 8 7 7 7 7 7 7 7 6 6 5 5 5 4 3 3 2 2 4 5
29 30 30 29 28 27 26 25 24 22 21 19 18 18 17 16 15 14 13 12 11 10 9 8 8 8 8 8 8 7 7 7 6 6 5 5 5 5 3 2 3 4
30 30 30 29 28 28 27 26 24 23 21 20 20 19 18 17 16 14 13 12 11 10 9 9 10 9 9 9 8 8 8 8 7 7 6 6 7 6 5 4 4 5
30 30 29 29 29 29 28 27 25 24 22 21 21 20 19 18 16 15 14 13 12 12 11 11 11 11 10 9 9 9 9 9 9 8 8 8 8 7 6 6 5 5
29 29 29 29 29 29 28 27 26 24 23 23 22 21 20 19 17 16 14 13 14 14 13 13 12 11 10 10 9 10 10 10 10 10 10 10 9 8 8 7 7 6
28 28 28 28 29 28 28 28 27 25 24 24 24 23 22 20 18 17 15 15 16 16 15 13 12 12 11 10 10 10 11 12 12 12 12 11 11 10 9 8 8 7
27 27 28 28 28 28 28 28 27 26 25 25 25 24 23 21 20 18 17 17 18 17 16 14 12 12 12 11 10 10 11 12 13 14 13 13 12 12 10 9 9 8
28 28 29 29 29 29 29 29 28 26 26 26 25 24 23 22 21 20 19 19 19 17 16 14 12 12 13 12 11 11 11 12 13 14 14 14 13 12 11 11 10 10
29 29 30 30 30 30 29 29 28 27 27 26 25 25 24 23 22 21 20 20 19 17 15 14 13 13 14 13 11 11 11 12 13 13 14 14 13 13 13 12 11 11
29 30 30 31 31 30 30 29 29 28 28 26 26 25 25 24 23 21 20 19 18 17 15 14 14 15 15 13 12 12 12 12 13 13 14 13 13 13 13 12 12 11
29 30 30 30 30 30 30 30 29 29 27 26 26 26 26 24 23 21 20 19 18 17 16 15 15 16 15 14 13 13 12 13 13 14 13 13 13 13 13 13 12 11
28 29 29 29 29 30 30 30 29 28 27 26 26 27 26 25 23 21 20 19 18 18 17 15 16 17 16 14 14 14 13 14 14 14 13 13 13 12 13 13 12 12
28 28 29 29 29 30 30 29 28 27 26 26 27 27 27 24 22 21 20 19 18 18 17 17 17 18 17 15 15 15 15 15 14 14 13 12 12 12 13 14 13 13
28 28 28 29 29 30 30 29 28 27 27 27 27 27 25 23 22 21 20 19 19 19 19 18 19 19 18 17 16 17 16 16 15 14 13 12 12 13 14 14 14 13
27 26 26 26 27 28 28 27 26 26 26 26 26 25 24 23 22 21 20 20 20 20 20 19 20 20 20 18 18 18 17 16 15 14 14 13 13 14 15 15 14 12
26 25 24 24 24 24 24 23 23 22 23 23 23 23 22 22 22 21 21 22 22 21 20 20 21 22 21 19 20 20 18 17 16 15 15 14 15 15 15 14 13 12
22 21 20 20 20 19 19 18 18 18 19 19 19 19 19 19 20 22 23 24 24 23 22 22 23 23 22 21 21 20 18 17 17 16 16 15 16 16 16 14 14 14
19 19 18 17 16 16 16 16 16 16 17 17 18 18 18 19 20 21 22 23 24 25 25 25 25 24 23 22 22 21 19 18 18 18 17 17 17 18 17 16 16 16
21 20 19 18 17 17 16 16 16 16 16 17 17 17 19 20 21 21 21 22 23 25 27 26 26 26 24 22 22 22 20 20 20 19 18 18 19 19 19 18 18 19
23 22 21 20 20 19 19 18 17 17 17 16 16 17 18 19 20 21 22 22 22 23 26 27 27 27 26 24 23 23 22 21 21 20 20 20 21 21 21 20 20 20

ECMWFNIL_500_spd_069.txt.gz
Wind_Speed
20 21 21 21 21 20 18 17 16 16 15 14 13 13 13 13 12 11 10 9 8 8 7 6 6 7 8 9 10 10 11 10 10 9 9 8 7 6 6 6 7 7
21 22 22 22 21 20 19 18 17 16 15 14 13 13 13 12 11 10 8 7 6 5 5 4 3 3 3 4 5 7 7 8 8 9 9 9 7 6 5 6 6 7
23 24 23 23 23 22 21 20 18 17 16 15 14 14 13 12 11 10 9 8 6 5 4 4 3 3 2 2 2 3 3 4 5 6 7 8 8 7 5 4 5 6
25 25 25 25 25 24 23 21 20 18 17 16 16 15 14 13 12 11 10 9 8 7 6 5 5 5 4 4 3 3 2 2 2 3 3 4 5 6 5 4 3 4
28 28 27 27 26 25 24 23 22 20 19 18 17 16 15 14 13 12 11 10 9 9 8 7 6 6 6 6 5 5 4 4 3 2 1 1 1 2 3 4 3 2
30 29 29 28 27 26 25 25 24 23 21 20 18 17 17 16 15 13 12 12 11 10 9 8 8 8 7 7 7 7 6 6 5 5 4 4 3 2 1 2 3 2
31 31 30 29 28 28 27 27 26 25 23 22 20 19 18 17 17 15 14 13 12 11 10 9 8 8 8 8 8 8 8 8 7 7 7 6 6 5 4 3 3 2
32 32 32 31 30 29 29 29 28 27 26 24 22 21 20 19 18 17 15 14 13 12 12 11 9 9 9 9 9 9 9 9 9 9 8 8 8 8 6 5 5 4
33 34 33 32 31 31 31 30 30 29 27 25 24 23 22 21 20 18 17 16 15 14 13 12 11 10 9 10 10 10 10 11 11 11 10 10 10 9 8 8 7 6
34 34 34 33 32 32 32 32 31 30 28 27 26 25 24 23 21 19 18 17 17 16 15 14 12 11 10 11 11 11 12 12 12 12 11 11 11 9 9 9 9 8
34 34 33 33 32 33 33 33 32 31 29 28 27 26 25 24 22 21 20 19 19 17 16 15 13 12 11 11 11 12 13 13 13 13 13 12 12 11 11 11 10 9
33 33 33 33 33 34 34 34 33 32 30 29 28 27 26 25 23 22 21 21 20 18 17 15 14 13 12 11 11 12 13 14 15 15 14 14 13 12 12 12 11 10
32 32 33 34 34 35 35 35 34 33 31 30 29 28 27 26 25 24 23 23 21 19 17 16 14 13 13 12 12 13 14 15 16 16 15 15 15 14 14 13 12 11
31 32 33 34 35 35 35 35 35 34 32 31 30 29 28 27 26 25 24 23 21 19 18 16 14 14 13 13 13 13 14 15 16 16 16 16 15 15 14 14 13 12
31 33 34 35 35 35 35 35 35 34 33 32 30 29 29 28 27 26 25 23 21 20 18 16 15 14 15 15 14 13 13 15 15 15 15 15 15 15 15 15 15 14
33 33 34 35 34 34 34 34 35 34 33 32 31 30 29 29 27 26 25 23 22 20 19 17 15 15 16 16 15 14 13 14 15 15 15 14 14 15 16 16 16 15
32 33 34 34 34 34 34 34 34 34 33 32 31 30 29 28 27 26 25 24 23 21 19 18 17 17 18 17 16 15 14 14 15 15 14 13 14 15 16 16 16 16
31 32 33 33 33 34 34 34 34 33 33 31 30 30 29 28 27 26 25 25 24 22 20 19 18 19 18 18 17 16 15 16 16 15 14 13 13 14 15 16 16 17
31 31 32 33 33 34 34 34 33 33 32 31 31 30 29 28 27 26 26 25 24 22 20 20 20 19 19 19 18 17 16 17 17 16 15 14 13 14 15 16 17 17
30 30 31 32 33 33 34 33 32 32 32 31 31 30 28 27 26 26 26 25 23 22 21 20 20 20 20 20 19 18 18 17 17 16 15 14 14 14 15 16 17 17
29 29 30 31 31 32 32 31 31 31 31 31 30 29 27 27 26 26 26 25 23 22 21 21 21 21 21 21 20 20 19 18 18 16 15 14 14 15 15 16 17 17
29 29 29 29 29 29 29 30 30 30 30 30 29 28 27 27 26 26 26 25 24 23 21 21 22 23 22 22 22 21 20 19 18 17 16 16 16 16 16 17 17 17
29 29 29 28 28 27 27 28 29 29 30 29 28 28 27 27 26 26 26 25 24 23 22 22 24 24 23 23 23 22 21 19 19 18 18 17 17 17 17 17 17 17
30 29 29 28 27 26 26 27 28 28 29 28 27 26 26 26 26 26 25 25 24 23 23 24 25 25 25 25 24 23 21 20 20 19 19 18 19 19 18 18 18 19
31 30 28 27 26 25 26 26 26 27 26 26 25 25 25 25 25 24 24 23 23 23 23 24 26 27 26 26 26 25 22 21 21 20 20 20 20 20 20 20 20 20
30 29 27 26 25 25 25 25 25 24 24 23 23 23 23 23 23 22 22 23 23 23 24 25 26 27 28 28 28 26 23 22 22 21 21 22 22 22 21 21 21 21

ECMWFNIL_500_spd_072.txt.gz
Wind_Speed
22 23 23 22 21 20 20 19 19 19 18 17 16 16 17 18 17 16 14 13 12 12 11 11 11 11 11 10 9 9 8 6 5 3 3 3 4 5 5 5 5 6
25 25 25 23 22 22 21 21 21 20 19 17 17 18 19 19 18 16 14 12 11 10 9 8 8 8 7 7 7 6 6 6 5 5 4 3 2 3 4 5 6 6
27 27 26 25 24 24 23 23 22 21 19 17 18 19 19 19 18 16 14 12 11 9 8 7 6 5 5 4 4 3 3 3 3 3 3 3 3 2 2 4 6 7
28 28 27 27 26 25 24 23 22 21 19 18 20 20 20 19 18 16 14 13 11 10 8 7 6 5 4 4 3 3 2 1 1 0 1 2 3 4 3 1 3 6
30 30 29 28 27 26 24 23 23 21 20 20 21 21 21 20 18 17 15 13 12 10 8 7 6 6 5 5 4 4 4 3 3 3 3 3 3 3 4 3 1 2
32 32 31 30 29 27 26 26 25 24 22 22 23 22 21 20 19 17 16 14 12 10 9 8 7 7 6 6 6 5 5 5 5 6 6 6 5 5 4 4 4 2
34 33 32 31 30 29 28 28 27 26 25 24 23 23 22 21 19 18 17 15 13 12 11 10 9 9 8 8 7 7 7 7 7 8 8 8 8 7 6 5 4 4
35 35 34 32 31 30 30 29 28 28 27 25 25 24 23 22 21 19 18 16 14 13 13 12 11 10 10 9 9 8 8 8 9 10 10 10 10 9 7 6 6 5
36 35 35 34 32 32 31 31 30 30 28 27 26 26 25 23 22 21 19 17 16 15 14 14 13 12 12 11 10 9 9 9 10 11 11 11 12 11 9 8 9 7
36 35 35 34 33 33 33 32 32 31 30 29 28 27 26 25 24 22 21 19 17 17 17 16 15 14 13 12 11 10 10 10 11 12 13 12 13 13 11 10 11 10
36 36 35 35 34 34 34 34 33 32 31 30 29 28 27 26 25 23 22 20 19 19 18 17 16 15 13 13 12 11 10 10 11 13 14 14 14 14 13 12 13 12
36 35 35 35 35 35 35 35 34 33 33 32 30 29 29 27 26 24 23 22 22 21 20 18 17 15 14 13 12 11 11 12 12 14 15 15 15 15 14 14 14 13
35 35 35 35 36 36 35 35 35 35 34 33 31 30 30 28 27 26 25 24 23 23 21 19 18 16 15 14 12 12 13 13 14 15 15 16 16 16 15 15 15 14
36 36 36 36 36 36 36 36 36 36 35 34 33 31 30 29 28 27 26 25 25 23 22 20 18 17 16 15 14 14 15 15 15 15 15 16 16 16 16 16 16 15
36 37 37 36 36 36 36 36 37 37 37 36 34 32 32 31 30 29 27 26 26 24 22 21 19 18 17 17 16 16 16 15 15 15 16 15 16 16 16 16 16 16
35 37 37 37 37 36 36 36 37 38 38 37 35 34 34 33 31 30 29 28 27 25 24 22 20 20 19 18 18 17 17 16 15 15 15 15 15 15 16 17 17 17
35 36 37 37 37 36 36 36 37 37 38 37 37 35 35 34 33 32 30 29 28 26 24 23 22 21 21 20 19 18 17 16 16 16 15 15 16 16 16 17 17 18
35 35 36 36 36 36 36 36 37 37 37 37 37 36 35 34 33 32 31 30 29 26 25 24 23 23 22 20 20 19 18 17 16 16 15 15 16 16 17 18 18 19
35 34 34 35 35 36 36 36 36 36 36 36 36 36 35 34 33 32 32 31 29 27 25 25 24 24 22 21 20 20 19 18 17 17 16 16 17 17 17 18 19 19
34 34 34 34 35 35 36 36 35 35 35 35 35 35 35 33 33 32 32 31 29 27 27 26 25 24 23 22 21 20 19 19 18 17 17 17 17 18 18 19 20 20
33 33 33 33 34 34 34 34 34 34 34 34 34 35 34 34 33 33 32 31 29 28 27 27 26 26 25 23 22 21 21 20 19 18 17 18 18 18 19 19 20 21
33 33 33 33 33 33 33 32 32 33 33 33 33 33 34 33 33 32 31 30 29 28 27 26 26 27 25 24 23 22 22 21 19 18 18 19 19 19 19 20 20 20
33 33 33 33 32 32 31 31 31 32 32 33 32 32 32 32 32 31 31 30 29 28 27 27 28 28 26 25 24 23 22 21 21 20 20 19 20 20 20 20 20 20
34 34 33 32 31 30 30 31 31 31 32 32 31 31 31 32 32 31 31 30 29 29 28 28 29 28 27 25 24 23 22 22 22 21 21 20 21 21 20 20 20 21
34 34 33 32 30 29 30 30 30 30 31 30 30 30 31 31 31 30 30 29 29 28 28 28 28 28 26 26 25 23 23 23 23 22 21 21 21 22 21 21 21 21
34 34 33 31 30 29 29 29 29 29 29 29 29 29 29 29 29 29 28 28 28 28 27 27 28 27 26 26 26 25 24 25 25 23 22 21 22 23 23 22 22 22

ECMWFNIL_500_spd_075.txt.gz
Wind_Speed
19 18 18 19 18 18 17 17 16 15 15 14 13 12 11 11 11 11 11 10 10 9 9 8 8 7 6 6 5 5 5 4 4 3 1 1 2 2 2 3 3 3
20 20 20 20 19 19 18 18 18 17 16 15 14 13 13 14 14 13 12 12 11 10 10 9 8 8 7 6 6 6 6 6 6 6 5 4 2 1 1 2 2 2
23 22 22 21 20 20 20 20 20 19 18 16 15 15 16 16 15 14 13 12 11 10 9 8 7 6 5 5 4 4 4 5 5 5 6 6 5 5 3 1 1 2
24 24 24 24 23 22 22 21 21 21 19 17 17 18 18 18 17 15 14 12 11 9 8 7 6 5 4 3 2 1 1 2 3 3 4 5 6 6 6 4 1 2
26 26 26 26 24 23 23 22 21 21 20 19 19 20 20 20 19 17 15 13 12 10 8 7 5 4 3 3 2 1 1 2 2 2 3 4 5 6 6 6 5 1
28 28 28 27 26 25 24 23 23 23 21 20 21 21 21 21 20 18 17 15 13 11 9 7 6 5 5 4 4 3 3 3 4 4 4 4 4 5 5 6 6 4
29 30 30 29 28 26 25 25 25 24 23 22 22 23 23 23 22 20 18 17 15 13 11 9 8 7 7 7 6 6 5 5 5 5 5 6 5 5 5 6 5 5
31 32 32 31 29 28 27 27 26 25 24 23 23 24 25 24 23 21 20 19 17 15 13 11 10 9 9 9 8 8 7 7 7 6 6 7 7 6 6 6 5 5
33 33 33 32 31 29 29 29 28 26 25 24 25 26 26 26 25 23 22 21 19 17 15 13 12 11 11 11 11 10 8 8 8 8 7 7 8 8 6 6 6 5
35 34 34 33 32 31 30 30 29 28 27 27 27 28 28 27 26 25 24 23 21 19 17 15 14 13 12 12 13 11 10 9 9 9 9 8 9 9 8 7 7 6
36 35 35 34 32 31 31 31 31 30 29 29 28 28 29 29 28 27 25 24 22 20 19 17 16 14 14 13 13 12 11 10 10 10 10 10 10 9 9 9 8 7
36 36 35 34 33 33 32 32 32 31 31 30 30 29 29 30 29 28 27 26 24 22 20 18 17 16 15 14 14 13 12 12 11 11 11 11 11 10 10 10 9 7
35 36 35 35 35 34 34 33 32 32 32 32 31 31 30 31 30 29 28 27 26 23 21 19 18 17 16 15 15 14 14 13 13 12 12 12 12 12 11 11 10 8
35 35 35 35 36 36 36 35 34 33 33 33 33 32 31 31 31 30 29 28 26 24 22 21 19 18 17 16 16 16 15 15 14 13 12 12 12 12 12 11 11 10
34 35 35 36 36 37 36 36 35 34 33 34 34 33 32 32 32 31 29 28 27 25 23 22 21 19 19 18 17 17 16 15 15 14 14 13 13 12 12 12 11 11
33 34 34 35 35 36 36 36 36 35 34 34 34 34 34 33 32 31 30 29 28 26 25 23 22 21 20 20 19 18 17 16 16 16 15 14 13 13 12 12 12 11
30 32 33 34 34 35 36 37 36 36 35 35 35 35 35 34 34 32 31 31 29 28 26 24 23 23 22 21 21 19 18 17 17 17 16 15 14 14 13 13 12 12
26 29 31 33 33 34 35 36 36 36 36 35 35 35 35 35 35 34 33 33 31 29 28 26 24 24 23 23 22 21 19 18 18 17 17 16 16 15 14 14 13 13
25 26 28 30 32 33 33 34 35 36 36 36 35 35 35 35 36 36 35 35 33 31 30 28 26 24 24 24 23 22 21 19 18 18 17 18 17 16 16 15 14 14
25 25 26 27 29 31 32 32 33 34 35 36 36 36 36 35 35 36 36 36 35 33 32 30 27 25 25 25 24 23 22 20 18 18 18 18 18 17 17 16 15 15
26 25 25 26 27 29 31 31 32 32 34 35 36 36 36 35 35 35 35 36 35 34 33 31 29 26 25 26 26 24 23 21 19 19 19 19 19 19 18 18 17 16
27 26 24 25 26 28 29 30 30 30 32 34 35 36 35 35 35 34 34 35 35 34 32 31 30 27 26 26 26 25 24 22 20 20 20 20 20 20 20 19 18 18
29 26 24 25 26 27 28 29 28 29 30 32 33 34 34 33 33 33 33 34 34 33 32 31 30 28 26 27 27 26 24 23 22 21 20 21 21 22 21 20 20 19
30 26 24 26 26 26 27 28 28 28 29 30 32 33 32 32 32 32 32 32 32 32 31 30 30 28 27 27 27 26 25 23 22 22 21 21 22 23 22 22 21 21
31 27 24 25 26 26 27 28 28 28 28 30 31 32 31 31 31 30 31 31 31 31 30 29 29 28 27 27 26 25 24 23 22 22 22 22 23 23 23 23 22 22
30 26 25 25 26 26 27 27 28 28 29 29 30 31 30 30 30 29 29 30 30 31 30 29 28 28 26 25 25 24 24 23 23 23 23 24 24 25 25 24 24 23

ECMWFNIL_500_spd_078.txt.gz
Wind_Speed
16 16 16 17 18 18 17 16 15 14 12 11 9 8 7 7 7 6 6 5 5 4 4 5 4 4 3 3 2 2 2 3 3 3 3 2 1 1 2 2 2 2
17 17 17 17 18 18 18 17 17 15 14 12 10 9 9 8 8 7 6 6 6 6 6 6 6 6 6 5 6 6 6 6 6 6 6 5 4 3 1 0 1 1
18 18 18 18 18 18 18 18 18 17 15 13 11 11 10 10 9 8 8 7 7 8 8 8 8 8 8 7 7 7 7 7 7 7 7 7 7 6 5 3 2 1
19 19 19 20 20 19 18 18 17 17 16 14 12 13 12 11 11 10 10 9 8 8 8 7 7 7 7 6 6 5 5 5 6 6 7 7 8 8 8 7 5 2
20 20 20 21 21 20 19 18 18 17 16 15 14 14 14 13 13 12 11 10 9 9 8 7 6 5 5 5 4 3 3 3 4 5 6 7 7 8 9 8 7 5
22 21 21 22 22 21 20 19 19 18 17 16 15 15 15 15 14 14 13 11 10 9 8 7 5 4 4 3 2 2 2 2 2 3 4 5 6 7 8 8 8 7
24 23 23 24 23 21 21 20 20 19 18 18 17 16 16 17 16 15 14 13 12 11 9 7 6 5 4 3 2 2 1 0 1 2 3 4 5 6 6 7 7 6
26 25 24 25 24 23 22 21 21 20 20 19 18 18 19 19 18 17 16 15 14 12 10 9 7 6 5 4 3 3 2 2 2 2 3 3 4 5 5 5 5 5
28 27 25 25 25 24 23 22 22 22 21 20 20 20 20 21 20 19 18 17 16 14 12 11 9 8 7 6 5 4 3 4 4 3 3 3 4 4 4 4 4 4
29 29 27 26 25 25 24 24 23 23 22 21 21 21 22 22 22 21 20 19 18 16 15 13 11 10 8 8 7 6 4 5 5 5 4 4 4 4 4 4 3 2
29 29 29 27 26 26 26 25 25 24 23 22 21 22 23 23 23 22 22 21 20 19 17 15 13 12 10 9 9 8 6 5 6 6 5 5 4 4 4 4 3 2
27 28 29 29 28 27 27 27 26 25 25 24 23 23 23 24 24 23 23 23 22 21 20 17 15 14 12 11 11 10 8 7 7 7 6 6 5 4 4 5 4 3
24 26 28 29 29 29 29 29 28 27 26 25 25 24 24 24 25 25 25 25 24 22 21 19 17 16 14 13 12 12 11 9 8 7 7 7 6 5 5 5 5 4
21 24 26 28 29 29 30 30 30 28 27 27 27 26 25 25 25 26 26 26 25 24 22 21 19 17 16 15 14 13 13 11 9 9 8 7 7 7 6 6 6 5
17 20 23 25 27 28 29 30 30 30 29 28 28 27 26 26 26 27 27 26 26 25 23 22 20 19 18 17 16 15 14 13 11 10 10 9 8 8 7 7 7 7
15 16 18 21 24 26 27 28 29 30 30 30 30 29 28 28 27 28 27 27 27 26 24 23 22 21 20 19 18 16 15 15 13 12 11 10 10 9 9 9 9 9
15 15 14 16 19 22 25 26 27 29 29 30 31 31 31 30 29 28 28 28 27 27 25 23 23 22 22 21 19 18 16 16 15 14 12 11 11 10 10 10 10 10
16 15 13 13 15 18 21 23 25 26 28 28 30 32 33 32 30 29 28 29 29 28 26 25 24 24 23 22 21 19 18 17 17 16 15 13 12 11 11 11 11 11
17 16 14 13 14 15 18 21 22 23 25 26 28 30 33 33 31 30 30 30 30 29 28 27 26 25 24 24 22 20 19 18 18 17 16 15 14 13 12 12 12 12
18 18 16 15 14 14 16 18 20 22 23 25 26 28 30 32 32 31 31 31 30 30 30 29 28 27 26 25 24 22 21 19 19 18 18 17 16 15 14 14 13 13
19 19 18 17 15 14 15 16 18 20 22 24 25 26 28 30 31 32 31 31 31 31 31 31 30 29 28 27 26 24 22 21 19 19 19 19 18 18 17 16 14 14
19 20 20 19 17 15 15 16 18 19 20 22 24 25 26 28 30 31 31 31 32 31 31 31 31 30 29 28 28 26 23 21 20 20 20 21 21 20 19 18 16 15
20 21 22 21 19 16 16 17 18 19 20 21 23 24 25 26 28 30 30 31 31 31 31 31 31 31 30 30 29 27 24 22 21 21 21 22 22 22 20 19 18 17
22 22 23 23 21 19 18 18 19 19 20 21 22 23 24 25 27 29 30 30 30 31 31 31 31 31 30 30 30 28 25 23 21 21 22 23 23 22 22 21 20 19
24 24 24 25 24 21 20 20 21 20 21 21 22 23 24 25 26 28 28 29 29 30 30 30 30 30 29 29 29 28 26 24 22 22 22 22 23 23 23 23 21 21
26 25 25 25 25 24 22 21 22 22 22 22 23 23 23 23 25 26 27 27 28 29 29 29 28 28 27 28 28 28 27 25 23 21 21 22 23 24 24 23 22 22

ECMWFNIL_500_spd_081.txt.gz
Wind_Speed
12 12 12 13 14 14 14 13 12 11 9 8 6 5 5 4 3 2 1 1 1 2 2 2 2 2 3 4 5 6 6 6 6 5 5 5 4 3 3 3 3 4
13 12 12 13 13 14 14 14 13 12 11 9 7 6 6 5 3 2 2 2 2 3 4 4 5 6 6 8 8 9 9 9 8 8 7 7 6 5 4 3 3 4
14 13 13 13 14 14 14 14 14 13 11 10 8 8 8 6 4 4 4 4 5 5 7 7 9 9 10 10 10 10 9 9 9 9 9 8 8 7 6 5 4 4
15 14 14 14 15 15 14 14 14 13 11 10 10 9 9 7 6 5 5 6 6 7 8 9 10 10 10 10 9 9 9 8 8 8 8 9 9 9 8 7 6 5
17 15 14 14 15 14 14 13 13 13 12 11 11 10 10 8 7 6 6 7 8 8 9 9 9 9 9 8 8 8 7 7 7 8 8 8 8 9 9 8 7 7
18 16 15 15 15 14 14 14 14 13 13 12 12 11 11 10 8 7 7 8 8 8 9 9 8 8 7 7 7 6 6 6 7 7 7 7 8 8 7 7 7 8
19 18 16 16 16 15 15 14 14 14 13 13 13 13 12 12 10 9 9 9 9 9 9 8 8 7 6 5 5 5 5 5 6 6 6 6 6 6 6 6 6 7
20 19 18 16 16 16 16 15 15 15 14 14 14 14 14 13 12 11 10 10 10 10 9 8 7 6 5 5 4 4 4 4 5 5 6 6 5 5 5 5 4 5
20 20 19 17 16 16 16 16 16 16 15 14 14 14 15 15 14 13 12 11 11 11 10 8 7 5 4 3 3 3 3 3 4 4 5 5 5 4 4 3 3 3
19 20 19 18 17 17 17 17 17 17 16 15 14 14 15 16 15 14 13 13 12 12 11 10 8 6 4 2 1 1 1 1 2 3 3 4 4 4 3 3 2 1
18 19 19 19 19 18 18 18 18 18 17 15 14 14 15 16 17 16 15 14 14 14 13 12 10 7 5 4 3 1 1 1 1 1 2 3 3 3 2 2 1 1
18 18 19 20 20 20 20 19 19 18 18 17 16 15 15 16 17 17 17 16 15 15 14 14 12 9 7 6 5 4 3 2 2 1 1 2 2 2 2 1 0 1
16 18 19 20 20 21 21 21 20 19 19 18 17 16 16 16 17 18 18 18 17 16 15 15 14 12 10 9 8 7 5 4 4 3 2 1 1 1 1 1 1 2
13 15 18 19 20 21 21 21 21 20 20 20 19 18 17 17 18 18 19 19 19 18 17 16 15 14 13 12 11 10 8 7 6 5 4 3 2 2 1 2 3 3
11 11 14 16 19 20 20 21 21 21 22 21 21 20 19 19 19 19 20 20 20 19 19 18 16 16 16 16 15 13 11 9 7 7 7 6 4 4 3 4 4 4
12 11 11 13 15 18 20 21 21 21 22 22 22 22 21 21 21 20 20 20 21 21 20 19 18 18 18 18 17 16 14 12 9 8 8 8 7 6 5 5 6 5
13 11 11 11 12 15 18 20 22 22 21 22 23 24 23 23 23 22 21 21 22 22 21 20 20 20 20 20 19 18 16 14 12 10 9 10 9 8 7 7 7 7
15 13 11 11 11 13 15 18 21 21 22 22 22 23 24 24 24 24 23 23 23 23 22 21 21 21 22 21 21 20 18 16 14 12 11 11 11 11 10 9 9 9
16 15 12 11 12 13 13 15 17 19 21 22 23 24 25 25 25 25 25 25 24 23 23 22 22 22 22 22 22 21 20 17 15 14 13 13 13 13 12 11 10 10
18 17 14 12 13 13 13 13 14 16 19 21 22 24 25 25 25 25 26 26 25 25 24 24 23 23 23 23 22 22 20 19 17 15 14 14 14 14 14 14 13 12
18 18 17 15 14 13 13 13 14 15 17 19 21 23 24 25 25 25 25 26 26 26 25 25 24 24 24 24 23 22 21 20 18 17 15 15 16 16 16 16 15 14
19 20 19 18 17 15 14 14 14 15 16 17 19 21 23 24 25 24 25 25 26 26 26 25 25 25 25 25 25 23 22 21 20 18 17 17 17 18 18 18 17 16
21 21 21 21 20 18 16 15 15 16 16 17 18 20 21 23 24 24 25 25 26 26 26 26 26 26 26 26 26 25 23 21 21 20 19 18 19 19 20 19 19 18
23 23 23 23 22 21 19 17 17 17 17 17 18 19 20 22 24 24 24 24 25 25 26 27 27 27 26 27 27 26 24 22 22 21 20 19 20 21 21 21 20 20
24 25 25 25 24 23 22 20 19 18 19 19 18 19 20 21 23 24 24 23 23 24 26 27 27 27 27 27 27 26 25 23 22 22 21 20 21 22 22 22 21 22
25 26 27 27 26 25 25 24 22 20 20 20 20 20 20 21 22 23 23 22 23 23 24 25 26 27 27 27 27 26 25 24 23 22 21 22 23 23 23 23 23 23

ECMWFNIL_500_spd_084.txt.gz
Wind_Speed
14 15 15 15 15 14 13 12 11 10 8 7 6 5 5 4 4 3 3 2 2 3 4 5 6 6 7 7 6 6 6 5 4 4 3 3 4 5 6 6 7 9
15 15 15 15 14 14 13 12 11 10 9 7 6 5 5 4 4 3 3 3 3 4 6 7 8 9 9 10 9 8 8 7 6 6 5 4 5 6 7 6 6 8
16 15 15 15 15 14 13 12 11 10 8 7 6 5 4 3 3 3 4 5 5 7 9 10 12 12 12 12 11 10 9 8 7 7 6 6 6 6 7 7 6 7
17 16 16 16 15 14 13 12 11 10 8 8 7 6 4 3 2 3 4 6 7 9 11 13 14 14 13 12 11 9 9 8 8 7 7 7 7 8 7 7 7 7
18 18 17 16 15 14 13 13 12 11 10 9 8 7 6 5 4 4 5 6 8 10 12 13 13 13 12 11 10 9 8 8 7 7 7 7 8 8 8 7 7 7
19 18 17 16 16 15 14 14 13 12 11 10 9 9 8 7 6 6 7 8 9 10 11 12 12 12 11 10 9 8 7 7 7 7 7 7 7 8 8 7 6 6
20 19 18 18 17 16 16 15 13 12 11 11 10 10 9 8 8 8 8 9 10 10 11 12 12 11 10 9 8 8 7 6 6 6 6 6 6 7 7 7 7 6
22 20 19 19 18 18 17 15 14 13 12 11 11 11 11 10 9 9 10 10 10 11 12 12 11 10 9 8 8 7 7 6 6 5 5 5 5 5 5 6 6 5
22 21 19 19 18 18 17 16 16 15 13 12 12 11 11 11 10 10 11 11 11 12 12 12 11 10 10 8 8 7 6 6 5 5 4 4 4 4 4 4 5 5
22 21 20 19 19 18 18 18 17 15 14 13 12 11 11 11 11 11 11 11 11 12 12 12 12 11 10 9 8 7 6 6 5 4 4 3 3 3 3 3 3 4
22 22 21 21 20 20 20 19 18 16 15 14 13 12 12 12 11 11 12 12 12 13 13 13 12 11 10 9 9 8 7 6 5 4 4 3 3 3 3 3 3 3
22 22 22 22 22 21 21 20 19 18 17 15 14 13 13 12 12 12 12 13 13 13 13 13 12 11 10 9 8 8 6 5 5 4 4 3 3 3 3 3 3 3
22 22 22 22 22 23 22 21 20 20 18 17 16 15 14 13 13 12 13 13 14 14 13 13 13 13 12 10 8 7 6 5 5 5 4 4 4 4 4 4 4 4
21 21 22 22 22 23 22 22 21 21 20 19 18 16 15 15 15 15 14 14 14 14 15 14 14 14 13 12 10 9 7 6 6 6 6 6 6 5 5 6 6 6
18 19 21 22 22 22 22 22 22 22 22 21 19 18 17 17 17 17 17 16 15 14 15 15 15 15 15 14 13 12 10 9 8 7 7 8 8 8 7 7 7 7
17 17 18 20 21 22 22 23 23 23 23 23 21 20 20 19 19 18 18 18 17 16 15 15 15 16 17 17 16 15 14 13 11 10 9 9 10 10 10 10 9 9
18 17 17 17 19 20 22 22 23 24 24 24 24 23 22 22 21 20 19 20 20 19 18 17 17 17 18 19 18 18 18 16 15 13 12 11 11 12 12 12 12 12
20 19 18 17 17 18 19 21 23 23 24 24 25 25 24 24 23 22 22 22 21 21 20 20 20 20 20 20 20 20 20 19 18 16 15 14 13 13 14 14 14 14
21 21 20 18 18 18 18 19 21 22 23 24 25 26 26 26 25 25 25 24 23 22 22 22 22 23 23 23 22 21 21 21 20 19 17 16 15 15 15 15 15 15
22 22 21 20 19 19 18 17 18 20 22 24 25 26 26 25 26 26 26 26 25 24 24 23 24 24 24 24 24 23 22 22 22 21 19 18 17 16 16 16 17 17
22 22 22 22 20 19 18 17 17 18 20 21 23 25 25 26 26 26 27 27 27 26 26 25 25 25 25 25 25 25 24 23 22 22 21 19 18 17 17 17 18 18
23 23 24 23 23 21 19 18 17 17 18 19 20 22 24 25 25 26 26 27 27 28 27 27 27 27 26 26 26 26 25 24 23 22 21 20 20 19 19 19 19 19
26 25 24 25 25 23 21 19 18 18 18 18 18 19 20 22 23 24 25 26 27 28 27 27 28 28 28 28 28 28 26 25 24 23 22 22 22 21 21 21 21 21
28 27 26 26 26 25 23 22 21 20 19 19 18 18 19 20 21 22 24 25 26 27 27 28 28 29 29 29 29 29 28 26 25 24 24 23 23 23 23 23 23 23
30 29 28 27 26 26 26 25 24 23 21 20 19 18 18 19 20 20 21 23 24 26 26 27 28 29 29 29 30 30 29 27 26 25 25 25 25 25 25 25 25 25
32 32 30 28 27 27 28 28 26 26 24 23 21 20 19 19 20 20 20 21 23 24 25 26 27 28 29 30 30 30 29 28 27 25 25 26 26 26 27 27 27 27

ECMWFNIL_500_spd_087.txt.gz
Wind_Speed
16 15 15 15 14 14 14 13 13 12 11 10 9 7 7 6 6 7 7 7 7 7 7 7 7 7 6 6 5 6 6 6 6 6 6 6 6 7 7 7 9 10
17 16 15 14 14 13 13 13 12 11 10 8 7 6 6 5 5 6 6 7 8 8 8 8 8 8 7 7 7 7 7 7 6 7 7 7 6 7 7 8 9 10
17 17 16 15 15 15 15 14 12 11 9 7 6 6 6 6 5 6 7 8 9 9 10 10 10 10 10 10 9 8 8 8 8 8 8 8 7 7 8 8 8 8
18 17 17 17 17 17 16 14 13 11 10 8 7 6 6 7 6 7 9 10 11 11 11 12 12 12 12 11 10 9 8 8 8 8 8 8 8 8 7 8 8 7
19 18 18 18 18 17 16 14 13 12 11 10 8 8 7 8 8 8 10 12 12 13 13 14 14 13 12 11 9 9 8 8 8 8 8 8 8 7 7 7 7 8
20 19 18 18 17 16 16 15 15 14 13 11 10 10 9 9 9 9 11 13 14 15 15 15 14 13 11 10 9 8 8 7 7 7 7 7 7 7 6 6 6 7
20 19 19 18 17 16 16 16 15 14 14 13 12 11 10 11 11 11 12 14 15 16 16 15 14 13 11 10 9 8 8 7 7 7 6 6 7 6 6 5 5 6
22 21 20 19 18 17 18 17 16 15 15 14 13 12 11 12 12 12 13 15 16 17 17 16 14 12 11 10 9 8 7 7 6 6 6 6 5 5 5 5 5 5
24 22 21 20 19 19 19 18 17 16 15 14 14 14 12 12 13 14 14 16 17 17 17 16 15 13 12 11 10 9 8 7 6 5 5 5 5 4 4 4 4 5
25 24 22 20 20 20 20 19 18 17 15 15 15 14 13 13 13 14 15 16 17 18 18 17 15 14 13 12 11 10 8 7 6 5 4 4 4 4 3 3 4 4
25 24 23 21 21 21 21 20 20 18 16 16 15 13 13 13 13 14 15 16 17 18 19 18 16 15 13 12 11 10 9 8 7 6 5 4 4 4 4 4 4 4
24 24 24 24 23 23 23 22 21 19 18 17 16 15 14 13 14 15 16 17 18 19 20 19 18 16 14 13 11 10 9 8 7 6 6 5 5 5 5 5 5 5
24 24 25 26 26 25 25 23 22 21 21 20 18 17 16 14 14 15 17 18 19 19 20 20 19 18 16 15 13 11 10 9 8 7 6 6 6 6 6 6 6 6
25 26 26 27 27 28 26 25 24 23 22 22 20 19 17 16 16 16 17 18 19 20 20 21 20 19 18 16 15 13 12 10 8 8 7 7 7 8 8 7 7 7
26 26 27 27 27 27 26 25 25 24 24 23 22 21 20 19 18 18 18 18 19 19 20 20 21 20 20 18 17 15 14 12 10 9 9 8 9 9 9 9 9 9
25 25 26 26 26 26 26 26 26 25 25 24 23 22 22 21 20 20 19 18 18 19 19 20 20 21 21 20 19 18 16 15 13 11 10 10 10 10 11 11 11 11
23 24 25 26 26 27 27 27 27 27 27 26 25 24 23 23 22 21 20 20 19 19 19 19 20 21 22 22 22 21 20 18 16 14 13 13 12 12 12 13 13 13
21 22 24 25 26 27 28 29 29 29 29 28 27 26 26 25 24 23 22 22 22 21 20 20 20 21 22 23 23 23 22 21 19 17 16 15 15 14 14 15 15 15
21 21 22 24 25 27 28 29 29 29 29 30 29 29 29 28 26 25 25 24 24 23 23 22 22 23 23 23 23 24 23 23 22 20 19 18 18 17 17 16 16 17
23 22 22 22 23 25 27 28 29 29 30 30 31 31 30 29 28 28 27 27 26 25 25 25 25 25 25 25 24 24 24 24 24 23 22 21 20 20 19 18 18 18
27 25 24 24 23 24 24 25 27 28 29 30 31 31 31 30 30 30 30 29 29 28 27 27 27 28 27 27 26 25 25 25 24 24 24 23 22 22 22 21 20 20
32 30 29 28 27 26 25 24 25 26 28 29 30 30 30 30 31 31 31 31 31 30 29 28 29 29 29 28 28 28 27 25 25 25 25 25 24 24 24 24 23 22
35 34 32 31 30 28 27 25 25 26 26 27 27 28 29 29 30 30 31 31 31 31 31 30 31 31 31 30 30 30 29 27 26 26 26 26 27 27 26 26 26 25
37 35 34 33 32 30 29 27 27 27 26 26 26 26 27 28 29 30 31 31 31 31 31 31 32 33 33 32 32 32 31 29 28 27 27 28 28 28 28 28 28 28
37 34 32 32 32 31 30 29 29 28 28 27 26 26 26 26 27 28 29 29 30 30 30 30 31 32 33 33 33 33 32 31 30 29 28 28 29 30 30 31 31 31
38 33 30 29 30 31 31 31 31 30 29 28 27 27 26 27 26 26 27 27 28 29 29 29 30 31 32 33 33 33 33 33 32 31 29 30 31 31 32 32 33 34

ECMWFNIL_500_spd_090.txt.gz
Wind_Speed
16 15 15 15 14 14 14 13 12 11 10 10 9 9 9 9 9 10 10 10 10 10 10 10 10 9 8 8 8 8 9 9 8 8 9 10 10 9 9 9 10 9
16 15 14 13 13 13 13 13 12 11 9 8 7 7 8 9 9 10 10 10 11 11 11 10 10 9 9 8 8 8 9 9 9 9 9 9 9 9 9 9 10 10
17 16 15 14 14 14 13 12 11 10 9 7 7 7 8 9 9 10 11 11 12 12 12 12 11 10 10 9 9 9 9 9 9 9 9 8 8 8 9 8 9 10
18 17 17 16 16 15 15 13 12 11 10 9 8 8 9 9 9 10 11 12 13 13 13 13 12 12 12 11 10 10 9 9 10 10 9 9 8 9 9 9 9 9
20 19 19 18 17 17 15 14 13 12 11 11 10 9 10 10 10 10 12 13 14 15 15 14 14 14 14 13 12 11 10 10 10 10 10 10 9 9 9 9 9 9
22 21 20 20 19 17 16 16 15 14 13 12 11 11 11 10 10 11 13 14 15 16 16 16 16 16 14 13 12 12 11 11 11 11 10 10 10 8 8 8 8 9
23 22 21 21 19 18 18 17 16 16 15 14 13 12 12 11 11 11 13 14 15 17 17 18 18 16 15 13 12 11 11 11 11 11 10 10 10 9 8 7 8 8
25 25 23 22 20 19 19 18 18 17 17 15 14 14 13 13 13 12 13 14 15 17 18 19 18 16 15 13 12 11 10 10 9 9 9 9 9 8 7 7 7 7
27 26 25 22 20 19 20 20 19 19 18 17 16 16 15 15 14 14 15 15 16 17 18 18 17 16 15 14 12 12 10 10 9 8 8 8 7 7 6 6 6 6
29 27 26 23 22 21 21 21 21 20 19 18 18 17 16 16 16 15 16 17 17 18 18 18 17 16 15 14 13 12 11 10 9 8 7 7 6 5 5 5 5 5
30 28 26 24 24 24 24 23 22 21 20 19 18 17 17 17 16 16 17 18 19 19 19 19 18 17 15 14 13 12 11 10 9 8 7 6 6 5 4 4 4 4
32 30 28 26 26 26 26 25 24 22 21 20 19 18 17 17 17 18 18 19 21 21 20 20 18 17 16 15 14 13 12 11 10 9 8 7 6 5 5 4 4 5
32 31 30 29 29 28 28 27 26 24 23 22 21 19 18 17 17 18 20 21 22 22 22 21 20 18 17 16 15 14 13 12 11 10 9 8 7 7 6 5 5 6
32 32 32 32 32 31 31 29 27 26 25 24 23 21 19 18 18 20 21 22 22 23 23 23 22 20 18 17 16 16 15 14 13 12 11 10 9 8 8 7 7 7
33 33 34 34 34 33 32 31 29 28 27 26 25 23 22 21 20 21 22 22 23 23 24 24 23 21 20 19 18 17 16 15 15 14 13 11 10 10 9 9 9 9
35 35 35 35 35 35 34 33 32 31 29 28 27 25 24 23 22 21 21 22 23 24 24 24 24 23 22 21 20 19 18 17 16 15 14 13 12 11 11 11 11 11
37 36 36 36 36 36 36 35 34 33 31 30 29 27 26 25 23 22 22 22 23 24 24 25 25 25 25 24 23 22 21 20 18 18 16 15 14 13 13 13 13 13
38 37 37 37 37 36 36 36 35 34 33 32 30 29 28 27 25 24 23 23 24 24 24 25 26 27 28 28 27 26 25 23 22 21 19 17 16 15 14 14 15 15
37 37 37 36 37 37 37 37 36 35 34 33 32 31 30 29 27 26 26 25 25 24 24 25 26 28 29 29 30 29 29 27 26 25 23 20 19 17 16 16 16 16
35 35 36 36 37 37 38 37 37 36 36 35 35 34 32 31 30 29 28 27 26 26 25 25 26 27 28 29 30 31 31 31 30 28 27 24 22 21 19 19 18 19
34 34 35 36 36 37 38 37 37 37 37 37 37 36 34 33 33 32 31 30 29 28 27 26 26 27 28 29 30 31 32 32 32 31 30 28 26 25 23 22 22 22
33 34 34 35 36 36 35 35 35 36 37 38 38 37 37 36 35 34 33 32 31 30 29 27 27 28 28 29 30 30 31 31 31 31 31 31 30 28 27 26 26 25
34 33 33 33 33 31 30 30 31 32 35 37 37 38 38 37 36 36 35 34 34 33 31 30 30 30 30 30 30 31 30 30 29 30 30 31 31 31 30 29 29 28
34 32 31 30 29 28 27 28 28 29 31 33 34 35 37 37 37 37 36 36 35 34 33 33 33 33 33 32 32 32 31 30 30 29 29 29 30 31 31 31 31 31
35 32 31 29 28 27 28 29 28 28 29 30 31 31 33 35 35 36 35 35 35 35 34 34 34 35 35 34 34 34 33 32 32 31 30 30 31 31 32 32 33 33
37 34 32 30 30 29 30 31 30 30 29 29 30 31 32 32 33 33 33 33 34 34 33 33 34 35 36 35 35 35 34 34 34 32 32 32 33 33 34 34 34 34

ECMWFNIL_500_spd_093.txt.gz
Wind_Speed
19 19 19 18 17 16 15 15 15 14 13 12 11 10 11 11 11 12 12 11 11 11 11 12 12 12 12 11 11 10 9 9 9 9 9 9 8 8 8 8 8 8
20 19 19 18 17 16 16 15 14 14 13 12 11 11 12 12 12 12 12 12 12 12 12 12 12 12 12 12 11 10 10 9 9 9 8 8 8 8 7 7 7 8
20 19 19 18 18 17 17 16 15 14 13 12 12 13 12 12 12 12 13 13 13 13 13 13 13 13 12 12 11 10 10 10 9 8 8 8 8 7 7 7 7 8
22 21 20 19 19 19 18 17 15 14 14 13 13 12 12 12 12 12 13 13 14 14 14 14 13 13 12 12 11 11 10 10 10 9 8 7 7 7 7 7 7 7
24 23 22 21 21 20 18 17 16 15 15 14 13 12 11 12 12 12 12 13 14 15 15 14 14 13 12 11 11 11 11 10 10 9 8 7 7 7 7 7 8 7
25 24 23 22 21 20 19 18 18 17 16 15 13 12 12 12 12 12 12 13 14 15 15 15 14 13 12 12 11 11 10 11 11 11 9 8 7 7 7 7 8 8
26 25 25 24 22 21 20 19 18 17 17 16 14 13 12 12 12 11 11 12 13 14 15 14 14 13 12 12 11 10 10 11 11 12 11 9 8 7 7 7 7 7
27 27 26 25 24 22 21 20 19 18 18 17 16 15 14 14 13 12 11 12 12 13 14 14 14 14 13 13 11 10 10 10 10 11 11 10 9 8 7 6 7 7
28 28 27 26 25 23 23 22 21 20 19 18 18 17 16 15 14 13 12 12 12 13 14 14 15 15 14 13 12 11 10 9 9 10 10 10 10 9 8 7 7 7
30 29 28 26 25 25 24 24 23 22 21 21 20 19 18 17 16 15 14 14 14 14 14 15 16 16 15 14 12 11 10 9 9 9 9 10 10 9 9 8 7 7
32 31 29 27 26 26 26 26 26 25 24 23 22 21 20 19 18 17 16 16 16 16 16 17 17 17 16 14 13 12 10 10 9 9 9 8 8 8 8 8 7 7
34 33 31 29 28 28 28 28 28 27 26 25 24 23 22 21 19 19 18 18 18 18 18 19 18 18 17 15 14 12 11 10 10 9 9 8 8 8 7 7 7 7
37 35 34 32 31 31 30 30 29 28 28 27 26 25 23 22 21 20 20 20 20 20 20 20 20 19 17 16 14 13 12 12 11 11 10 9 9 8 7 7 7 6
39 38 37 36 35 34 33 32 31 30 29 28 27 26 24 23 22 22 22 22 22 21 22 21 21 20 18 17 16 15 14 14 13 12 12 11 10 9 8 8 7 7
41 41 40 39 38 36 35 34 32 31 30 29 28 27 25 24 24 24 24 24 23 23 23 23 22 21 20 19 18 17 17 16 15 14 13 12 11 11 10 10 9 9
43 43 42 42 40 39 38 36 35 33 32 30 29 28 27 26 25 25 25 25 25 25 25 24 23 23 23 22 21 20 20 19 17 16 15 14 13 13 12 12 11 11
43 44 44 43 43 42 40 39 38 36 34 32 31 30 28 27 26 26 26 26 26 26 26 25 25 25 26 25 24 23 22 21 20 19 18 17 16 15 14 14 13 13
43 44 44 44 44 43 43 42 41 39 37 34 33 31 30 29 28 27 27 27 27 26 26 26 27 28 28 28 27 26 25 24 23 22 20 19 18 17 17 16 15 15
42 44 44 45 45 44 44 44 43 41 39 37 35 34 33 31 29 28 28 27 27 26 26 26 28 29 30 30 30 29 28 27 26 24 23 22 20 20 19 18 17 16
42 43 44 45 45 45 45 45 44 43 41 39 37 36 34 32 30 29 28 28 27 26 26 26 28 30 31 31 32 32 31 30 29 27 26 24 23 22 22 21 20 19
42 43 44 45 46 46 46 46 45 43 42 41 39 37 35 33 32 30 29 28 28 27 27 26 27 30 31 32 33 33 33 33 32 31 29 28 27 26 25 24 23 22
42 44 45 46 46 47 46 46 45 43 42 41 40 39 37 35 34 32 31 30 29 29 28 27 28 30 31 32 33 34 34 34 33 33 33 31 31 30 29 28 27 26
42 43 44 45 46 46 45 45 44 43 42 41 40 39 38 37 37 35 34 33 32 31 29 29 30 32 32 33 33 34 33 33 33 34 34 34 34 34 33 32 31 29
43 43 44 44 44 44 43 43 42 41 41 40 40 39 38 38 38 37 36 35 33 32 31 31 32 34 34 34 34 34 33 32 32 33 33 34 35 35 35 34 33 32
45 44 43 43 42 42 42 41 40 40 39 39 39 38 38 38 38 37 37 36 34 33 32 32 33 35 36 36 36 36 34 33 32 32 31 32 34 34 34 35 34 34
45 44 42 41 41 40 40 40 39 39 39 38 38 37 37 37 37 37 37 37 36 34 33 32 33 35 37 38 38 38 36 34 33 32 31 32 33 33 33 34 34 34

ECMWFNIL_500_spd_096.txt.gz
Wind_Speed
20 21 20 19 18 17 16 16 15 14 13 11 10 9 9 9 9 9 9 9 9 10 10 9 9 9 9 9 9 8 8 8 9 9 10 10 10 10 10 9 8 7
21 21 20 19 19 18 18 17 16 15 13 12 11 10 10 9 9 10 10 9 10 10 10 10 9 9 9 9 8 8 8 8 8 8 9 9 10 10 10 10 9 9
21 21 20 20 20 20 19 18 17 16 14 13 12 12 11 11 11 11 11 10 10 11 11 10 10 9 9 9 8 8 8 8 8 8 8 9 9 10 10 10 10 10
23 22 22 22 21 20 19 18 17 16 15 14 14 13 12 11 11 11 11 11 11 12 12 11 11 10 9 9 9 9 9 8 8 7 7 8 8 9 10 10 10 10
24 24 23 23 22 20 20 19 18 17 16 16 15 14 12 11 11 11 11 12 12 12 13 12 12 11 10 10 9 9 9 8 8 7 7 7 7 8 9 10 10 10
26 25 24 23 22 21 21 20 19 18 17 17 16 14 13 11 11 11 11 11 12 12 13 13 12 11 11 10 10 10 9 9 8 8 7 6 7 7 7 8 9 9
27 27 26 25 24 22 22 21 20 19 18 18 16 15 13 12 11 10 10 10 11 12 12 12 12 11 11 11 11 10 9 9 9 9 8 6 6 6 6 6 7 8
28 28 27 26 25 24 23 23 22 21 20 19 18 17 15 13 12 11 10 10 10 11 12 12 12 12 12 12 11 11 10 9 10 10 9 8 7 6 6 6 6 7
29 29 28 27 26 25 25 24 23 23 21 20 19 18 17 15 14 12 11 10 10 10 11 11 12 12 12 12 12 11 10 10 10 11 11 10 9 8 7 6 6 6
30 30 29 28 27 26 26 26 25 24 23 22 21 20 19 17 16 14 12 11 11 10 11 11 12 12 13 13 13 12 11 10 10 11 12 12 11 10 9 8 7 6
32 31 30 29 28 28 28 28 27 26 25 24 23 22 21 20 18 16 14 13 12 12 11 12 12 13 13 13 13 13 11 11 11 11 12 12 13 12 11 10 9 8
34 33 32 31 30 30 30 30 29 27 27 26 25 24 23 22 20 18 16 15 15 14 13 13 13 13 14 14 14 13 12 12 11 11 12 12 13 13 12 11 11 10
36 35 34 33 33 32 32 31 30 29 28 27 27 26 25 24 22 21 19 18 17 16 15 14 14 14 15 15 15 14 13 13 12 12 12 12 12 12 12 12 12 11
38 38 37 35 35 34 33 32 31 30 29 28 28 27 27 26 24 23 22 21 19 18 17 17 16 16 16 16 16 16 15 15 14 13 13 12 12 12 12 12 12 11
41 40 39 38 37 36 35 34 33 32 31 29 28 28 28 27 26 25 24 23 22 21 20 19 18 17 18 18 18 18 18 17 16 15 14 13 13 12 12 12 12 11
41 42 41 40 39 38 37 36 35 33 32 31 30 29 29 28 27 27 26 25 24 23 22 22 20 20 21 21 21 21 21 20 19 17 17 15 14 14 13 13 12 12
40 42 42 41 40 40 39 38 37 35 34 33 31 30 29 29 28 27 26 26 26 25 24 24 23 23 24 24 24 24 23 23 21 20 19 18 16 16 15 15 14 13
38 40 41 41 42 42 41 41 40 38 36 34 33 32 31 30 29 28 27 27 27 26 25 24 24 25 26 27 26 26 26 25 24 23 22 20 19 18 17 17 16 15
36 38 39 40 41 42 43 43 42 40 39 37 36 34 33 31 30 28 27 27 27 26 25 25 25 26 27 28 28 27 28 27 26 25 24 23 22 21 20 19 18 17
36 37 38 40 41 42 44 44 44 43 41 40 39 37 35 33 31 30 28 27 27 26 26 26 26 26 28 29 29 29 29 29 28 27 26 25 23 22 22 21 20 20
37 37 38 39 40 42 43 44 45 45 44 43 42 40 37 35 33 32 30 28 28 28 27 27 26 27 28 30 31 31 31 31 30 29 27 26 25 24 24 23 22 22
39 38 39 39 40 41 42 43 44 45 45 45 44 43 41 39 36 34 32 30 30 29 29 28 28 29 29 30 32 33 33 32 32 31 30 29 28 27 26 26 25 24
42 40 40 40 40 40 41 42 43 44 45 46 45 44 43 41 40 38 35 33 32 31 30 30 31 31 31 31 32 33 33 32 32 31 31 31 31 30 29 29 28 28
45 43 42 42 41 40 40 42 43 44 45 46 45 45 44 43 42 41 39 36 34 33 32 32 32 33 32 33 33 33 32 31 31 31 31 32 32 32 32 32 31 31
47 46 45 44 43 42 42 43 44 45 45 46 45 45 45 44 43 42 41 39 37 36 35 34 34 34 34 34 35 35 33 32 31 30 30 30 31 32 33 33 34 34
48 49 48 47 46 46 46 45 45 46 46 46 46 46 45 44 43 42 41 40 39 38 37 36 36 36 36 36 37 36 35 33 32 31 30 30 31 32 32 32 33 34

ECMWFNIL_500_spd_099.txt.gz
Wind_Speed
19 19 19 17 16 15 14 13 12 11 10 9 9 8 8 8 9 8 8 7 6 5 5 5 5 5 5 6 6 6 6 7 7 7 7 8 8 8 8 7 6 6
20 20 19 18 17 16 15 14 13 11 11 10 9 9 9 9 9 8 8 7 6 6 5 5 5 5 5 5 6 6 6 6 6 7 7 8 8 8 8 8 7 7
21 21 20 19 18 17 16 14 13 12 11 11 11 10 10 10 9 9 9 8 7 7 6 6 6 6 5 5 5 5 6 6 6 7 7 8 8 8 8 8 8 8
22 22 21 20 19 18 16 15 14 13 12 12 12 11 11 10 10 10 9 9 8 8 8 7 7 7 6 6 6 6 6 6 6 6 7 7 8 8 8 8 9 9
23 23 22 20 19 18 17 17 16 14 14 13 13 12 12 11 11 10 10 9 9 9 9 8 8 8 7 7 7 7 6 6 6 6 6 7 7 8 8 9 9 9
24 23 22 21 20 20 19 19 17 16 15 14 14 13 13 12 11 11 10 10 9 9 9 8 8 8 8 8 8 7 7 7 6 7 6 7 7 7 8 8 9 9
25 25 23 22 22 21 21 20 19 18 17 16 15 15 14 13 12 11 10 10 9 9 8 8 8 8 8 8 8 8 8 7 7 7 7 7 7 7 7 8 8 9
26 26 24 23 23 23 22 22 21 20 19 18 17 17 16 14 13 11 10 10 9 9 8 8 8 8 8 9 9 9 8 8 8 8 8 8 7 7 7 7 8 9
28 27 26 25 24 24 24 23 23 22 21 19 19 19 17 15 14 12 11 10 10 9 9 8 8 8 8 9 9 9 9 9 9 9 10 9 8 7 7 7 7 8
28 28 27 26 26 25 25 25 25 24 22 21 21 20 18 17 15 13 12 11 10 10 9 9 9 8 8 9 9 10 10 10 10 10 11 12 10 9 8 7 7 7
28 28 28 27 27 27 27 26 26 25 24 23 22 21 20 19 17 15 13 12 12 11 10 9 9 9 8 9 9 10 11 11 10 11 12 13 13 12 10 9 8 7
28 28 29 28 28 28 28 27 27 26 25 24 24 23 22 20 19 17 15 14 14 12 11 11 10 10 9 9 10 11 12 12 11 11 12 13 14 14 12 11 10 9
30 30 29 30 30 29 29 28 28 27 26 26 25 24 23 22 21 19 18 17 16 14 13 13 12 11 10 10 10 12 13 13 13 12 12 13 14 14 14 13 13 12
32 32 31 31 31 31 30 29 28 28 28 27 27 25 25 24 23 22 21 20 18 17 16 15 14 13 13 12 12 13 14 14 14 14 13 13 13 14 14 15 14 14
35 35 33 33 33 32 31 31 29 29 29 29 28 27 26 26 25 24 23 22 21 20 18 17 16 16 15 15 14 14 15 15 15 15 14 14 14 14 14 15 15 15
38 37 36 35 34 33 32 32 31 31 30 30 29 28 28 27 27 26 25 24 23 23 21 20 19 18 18 18 17 17 17 16 16 15 15 15 15 14 14 15 15 15
38 38 37 36 36 35 34 33 32 32 31 30 30 30 29 28 28 27 27 26 26 25 24 22 21 20 20 20 20 19 18 18 17 16 16 16 15 15 15 15 15 14
37 37 37 37 37 37 37 36 34 33 32 31 30 30 30 30 29 28 28 27 27 26 26 24 23 22 22 22 23 22 20 20 19 18 18 17 17 16 16 16 15 14
36 34 35 35 35 37 38 38 37 35 33 32 32 32 32 31 30 29 29 28 28 27 27 26 25 23 22 23 24 24 22 22 21 21 20 19 18 18 18 17 16 16
35 33 31 32 33 35 37 38 38 37 36 35 35 34 33 32 31 30 30 29 28 28 27 27 26 25 23 24 26 25 24 24 23 22 22 21 20 20 19 19 18 18
34 32 30 30 31 32 35 37 38 39 39 38 38 37 36 35 34 33 32 30 30 29 28 28 28 27 25 25 27 27 26 25 24 23 23 22 22 22 21 21 21 20
35 32 30 30 31 33 35 37 38 40 41 40 40 40 39 38 37 36 34 33 32 31 30 29 29 29 27 27 28 29 28 27 25 24 23 24 24 24 24 24 23 23
35 34 33 33 34 37 37 37 38 39 40 41 41 40 39 39 39 38 38 37 35 34 33 31 30 31 30 29 30 31 30 28 26 25 24 24 25 26 26 26 25 25
34 34 35 37 38 40 40 38 37 37 38 41 41 38 38 39 38 38 39 39 38 37 36 34 33 33 32 31 32 32 31 29 27 26 25 25 25 27 27 28 28 28
36 36 38 40 40 40 40 39 37 37 37 39 38 36 36 37 37 37 38 39 39 39 39 38 36 35 34 33 33 33 33 32 30 28 26 25 26 27 28 29 30 30
41 40 42 43 42 41 40 39 38 38 37 37 37 35 34 34 34 35 36 38 39 39 40 40 40 38 37 35 35 35 35 34 33 31 28 27 27 28 29 29 31 32

ECMWFNIL_500_spd_102.txt.gz
Wind_Speed
15 14 13 11 10 10 9 8 8 7 6 6 6 6 5 5 4 4 4 4 4 4 3 3 3 3 3 3 2 2 2 3 3 3 3 4 4 4 3 3 3 3
17 16 14 13 12 11 10 9 8 8 7 7 7 7 6 5 5 4 4 4 4 4 4 4 4 4 3 3 3 3 3 3 3 3 3 4 5 5 4 4 4 5
18 17 16 15 13 12 11 10 9 9 8 8 8 8 7 6 6 5 4 4 4 4 4 4 5 4 4 4 4 3 3 3 3 3 4 4 5 6 5 5 5 6
18 18 17 16 14 13 12 11 11 10 9 10 9 9 8 7 6 6 5 5 5 5 5 4 5 5 5 5 5 4 4 4 3 4 4 5 5 6 6 6 6 7
19 19 17 17 15 15 14 13 12 11 11 11 11 10 9 8 8 7 6 5 5 5 5 5 5 5 5 5 5 5 5 4 4 4 4 5 5 6 6 7 7 7
19 19 18 17 16 16 16 15 14 13 12 12 12 12 11 9 9 8 6 6 5 6 6 6 6 6 6 6 6 6 6 5 6 5 4 4 5 5 6 7 7 7
20 20 19 18 17 17 17 16 15 14 14 13 13 13 12 10 10 8 7 6 6 6 6 6 6 6 7 6 7 7 6 7 7 6 5 4 4 5 5 6 6 7
21 21 20 19 18 18 18 17 16 15 15 14 14 14 12 11 10 9 8 7 7 6 6 6 6 6 7 7 7 7 7 8 8 8 7 5 4 4 4 5 5 6
22 22 22 21 20 19 18 18 17 16 16 15 15 14 13 12 11 10 9 8 8 7 6 6 6 6 6 7 7 8 8 8 9 9 9 7 6 5 4 4 4 5
22 22 22 21 21 20 19 19 19 18 17 17 16 15 14 13 12 11 10 10 9 8 6 5 5 5 6 6 7 8 9 9 9 10 10 9 8 6 5 5 4 4
24 23 23 22 22 22 21 20 20 19 18 18 17 16 15 15 14 13 12 11 10 9 7 5 5 5 5 6 7 8 9 10 10 10 10 11 10 8 7 6 5 5
24 24 24 24 23 24 23 22 21 20 20 20 19 18 17 17 16 15 14 13 12 10 8 7 5 5 5 5 6 7 9 10 11 10 10 11 12 11 9 8 7 6
25 25 25 26 26 26 26 24 22 21 21 21 20 20 19 19 18 17 16 15 14 12 10 9 7 6 6 6 6 7 8 10 11 11 11 11 12 13 12 11 10 9
27 24 25 26 27 28 28 26 24 22 21 22 22 21 20 20 20 20 19 18 16 14 12 11 10 9 9 8 8 8 9 10 11 12 12 12 12 12 13 13 13 12
28 26 26 27 28 28 27 26 25 24 23 23 23 22 22 22 21 21 20 19 18 17 15 13 12 11 11 11 11 10 10 11 11 12 12 12 12 12 13 14 14 13
27 26 27 30 31 28 27 27 27 26 25 24 23 23 23 23 22 22 21 20 19 19 18 16 14 14 14 14 14 13 12 12 12 12 13 13 13 13 13 13 13 13
24 25 28 32 32 29 27 28 29 28 27 26 25 25 24 24 23 23 22 21 21 20 20 18 17 16 17 16 16 15 15 14 14 14 14 14 14 14 14 14 14 13
28 28 30 32 33 31 30 30 31 30 29 29 28 27 26 26 25 24 23 22 22 21 21 20 19 18 18 19 19 18 17 16 16 16 16 16 16 15 15 15 15 14
27 29 31 33 34 35 35 33 32 32 32 31 31 30 30 29 28 26 25 24 23 22 21 21 21 21 20 20 21 21 20 19 18 18 17 17 17 17 17 16 16 16
27 29 30 31 33 36 36 34 32 32 32 32 32 32 31 30 29 28 27 26 25 24 23 22 22 22 22 22 22 23 23 22 20 19 19 19 19 19 19 18 18 18
29 30 31 32 33 34 35 34 32 31 30 31 33 32 29 27 28 29 28 27 26 26 25 24 23 23 24 23 23 25 26 25 22 20 20 20 20 20 20 21 21 20
30 30 33 35 35 33 33 34 32 30 30 30 32 32 30 27 28 29 28 28 28 28 27 26 25 25 26 25 24 26 28 28 25 22 21 20 21 22 23 23 23 22
31 31 33 35 35 33 32 31 30 29 29 29 30 32 32 29 28 29 28 28 29 30 30 29 29 28 28 27 27 27 29 29 28 26 23 22 22 23 24 25 25 25
34 33 32 32 33 33 33 31 29 28 27 27 27 30 31 30 30 29 28 30 31 32 31 31 31 32 32 31 30 30 30 30 30 29 27 24 23 24 25 26 27 27
37 35 33 31 31 33 34 33 31 30 29 27 28 30 31 31 31 30 29 31 32 31 31 31 32 33 33 32 32 32 32 32 32 31 29 28 26 25 26 27 28 29
40 38 36 33 32 32 34 34 34 32 30 28 29 31 31 31 31 32 32 32 32 32 32 34 35 35 34 32 32 33 33 34 34 33 32 31 29 28 27 28 28 29

ECMWFNIL_500_spd_105.txt.gz
Wind_Speed
12 12 12 12 11 11 10 9 9 8 8 8 7 7 6 6 5 4 4 4 3 3 4 5 5 5 4 4 3 3 2 2 2 2 2 2 3 2 2 1 1 0
13 12 12 12 12 12 11 10 10 9 8 8 7 7 6 6 6 5 4 4 3 3 3 3 4 4 4 4 3 3 3 2 2 3 3 3 3 3 4 3 3 2
14 13 13 13 13 12 12 11 11 10 9 8 7 7 6 6 6 6 5 4 3 3 3 2 2 3 4 4 4 3 3 3 3 3 3 3 4 4 4 5 5 4
15 15 14 14 13 12 12 12 12 11 10 9 8 8 7 6 6 6 6 5 4 4 3 3 2 3 3 3 4 4 3 3 3 3 3 3 3 4 4 5 6 5
16 16 15 15 14 14 14 13 13 13 12 11 10 9 8 7 7 7 7 6 5 5 4 4 4 4 4 4 5 5 4 4 4 4 4 4 3 4 4 5 5 5
16 16 16 16 15 15 15 15 15 14 13 12 11 10 9 9 8 7 7 6 6 5 5 5 6 6 6 6 6 6 5 5 5 5 4 4 4 4 4 4 5 5
16 17 17 16 16 16 16 16 15 15 14 13 13 12 11 10 9 7 7 6 6 6 6 6 7 7 7 7 7 7 7 7 7 6 5 4 4 4 4 4 4 4
17 17 17 16 16 16 17 17 17 16 15 15 14 13 13 12 10 9 7 7 6 6 6 7 7 7 7 8 8 8 8 8 8 7 6 5 4 4 3 3 3 4
17 17 17 17 16 16 17 17 18 17 16 16 16 15 14 13 12 10 9 8 7 6 6 6 6 7 7 8 8 9 9 9 9 9 8 7 5 4 3 3 2 3
19 18 18 18 18 18 18 18 19 18 18 17 17 16 16 14 13 12 10 9 8 7 6 5 5 5 6 7 8 9 10 10 10 10 10 9 8 6 5 4 4 3
21 19 18 18 19 19 19 19 19 19 19 19 19 18 17 16 15 13 12 11 10 9 7 5 5 4 5 5 7 9 10 10 11 11 11 11 10 9 7 6 5 5
22 20 19 19 20 21 21 20 20 19 20 20 20 20 19 18 17 15 14 13 12 10 8 7 5 4 4 4 6 8 9 10 11 12 12 12 12 12 10 9 8 7
24 23 22 21 22 24 24 23 22 21 21 21 21 21 20 19 19 17 16 15 14 12 10 9 7 6 5 5 5 7 8 9 11 12 12 12 12 13 13 12 10 10
28 27 24 22 22 24 25 25 24 23 22 22 22 22 21 20 20 19 17 16 15 14 12 10 9 8 7 7 7 7 8 9 10 11 13 12 12 13 14 14 14 13
31 29 26 24 24 25 26 25 24 23 23 22 22 22 22 21 20 20 19 17 16 15 14 12 11 10 10 9 9 8 8 9 9 10 12 13 13 13 13 14 15 15
30 30 29 27 26 27 26 25 24 22 21 21 22 21 21 21 20 19 19 18 17 17 16 14 13 13 13 12 11 11 10 10 10 11 12 13 13 13 14 14 14 15
29 29 29 29 29 28 27 25 24 22 21 21 22 21 21 21 21 20 20 19 19 18 17 16 15 15 15 15 14 13 12 12 12 12 13 13 14 14 14 15 15 15
29 29 28 29 29 29 28 27 27 26 24 23 22 22 21 21 22 23 23 22 20 19 18 18 18 17 17 17 17 17 15 14 13 13 14 14 15 16 16 15 15 15
28 28 28 28 28 28 28 29 29 29 27 24 23 23 23 22 24 25 25 24 23 21 19 19 20 20 20 20 20 20 19 18 16 15 15 16 16 17 17 17 17 17
29 29 28 28 28 28 29 31 31 31 30 28 25 25 26 25 25 26 26 26 25 23 21 19 20 21 22 21 22 22 22 20 19 18 17 17 18 18 19 19 19 19
28 30 30 29 29 30 31 34 34 32 32 32 30 28 29 28 27 27 28 27 27 25 23 21 20 21 23 23 23 24 24 23 21 19 18 18 19 19 20 21 21 21
27 29 30 31 31 30 30 32 33 31 31 32 32 31 31 30 30 29 30 29 29 27 25 24 23 23 24 25 25 25 25 24 23 21 20 19 19 20 21 22 22 22
28 28 29 30 31 29 28 29 30 29 31 33 33 33 32 31 31 32 32 31 31 29 27 25 26 27 28 27 28 28 27 26 25 24 22 20 20 20 21 22 23 23
30 30 30 30 30 29 28 29 29 29 31 34 34 33 33 32 34 36 36 34 32 31 30 29 29 30 28 26 26 27 27 27 27 27 25 23 21 21 22 22 23 24
32 31 31 31 31 29 29 30 30 29 31 33 34 33 33 34 35 37 38 36 35 34 34 33 31 28 26 25 26 28 29 29 30 30 28 26 25 24 24 24 24 24
36 34 33 33 32 31 30 30 30 30 31 33 33 32 32 34 35 36 36 37 37 36 36 35 31 27 25 26 28 30 30 31 31 30 29 28 29 28 27 26 25 25

ECMWFNIL_500_spd_108.txt.gz
Wind_Speed
15 15 15 15 15 15 14 14 13 12 11 11 10 10 9 9 9 9 9 9 9 9 8 8 8 9 9 9 8 8 7 7 7 6 6 5 5 5 4 4 4 3
15 15 15 15 15 15 15 14 13 12 12 11 11 10 10 9 9 9 9 9 9 9 8 8 8 8 9 9 9 9 8 7 6 6 6 5 5 5 5 5 4 4
15 16 16 16 16 15 15 14 14 13 12 11 11 11 10 10 10 9 9 9 9 9 9 8 8 8 8 8 9 9 8 7 6 6 6 5 5 6 6 6 5 5
16 16 16 15 15 15 15 15 15 14 13 12 11 11 11 10 10 10 10 10 10 10 9 9 8 8 7 8 8 8 7 7 6 6 5 5 5 6 6 6 6 6
16 16 16 15 15 15 15 15 16 15 14 13 12 12 11 11 11 11 11 10 10 9 9 8 8 8 7 7 7 7 7 7 6 6 5 4 5 5 6 7 7 7
16 16 16 16 16 16 16 16 16 16 15 14 13 12 12 11 11 11 11 10 10 9 8 8 8 8 8 8 7 7 7 7 6 6 5 5 4 5 5 6 7 7
17 17 17 17 17 18 18 17 17 16 15 14 13 13 12 12 11 11 11 10 9 9 8 8 8 9 9 9 9 9 8 8 8 7 6 6 5 5 4 5 6 7
19 19 18 18 18 19 19 19 18 17 16 15 14 13 12 12 12 11 11 10 10 9 9 9 9 10 10 10 10 10 10 10 10 9 8 7 6 5 4 4 5 6
20 20 20 20 20 20 20 19 19 19 18 17 16 14 13 12 12 12 11 11 11 10 10 10 9 10 10 11 11 11 12 12 11 11 11 9 8 6 5 5 5 5
22 21 20 19 20 20 20 20 19 19 19 18 17 15 14 13 13 13 12 12 12 11 10 10 10 10 10 11 11 12 12 13 13 12 12 12 10 8 7 6 6 6
23 22 21 19 19 19 20 20 19 19 19 18 18 17 16 15 14 14 14 13 13 12 11 10 10 10 10 11 11 12 12 13 13 13 13 13 13 11 9 8 7 7
24 22 21 20 20 20 19 19 19 18 18 18 18 18 18 17 16 16 15 15 14 13 12 11 10 10 10 10 11 11 12 12 13 14 14 14 14 14 12 11 10 9
25 22 21 20 20 20 19 18 18 18 18 18 19 19 19 18 18 18 17 16 15 14 13 12 10 10 10 10 10 11 11 12 12 13 14 14 15 15 15 14 13 12
25 24 24 23 22 21 19 19 19 19 19 19 20 20 20 20 19 19 19 18 17 16 15 13 12 11 11 11 11 11 11 11 11 12 13 14 15 15 16 16 16 15
23 25 25 25 25 22 20 20 20 21 21 20 20 21 21 21 21 20 20 19 18 17 16 15 14 14 14 13 12 11 11 11 11 12 13 14 15 15 15 16 17 17
24 25 26 27 27 25 22 21 22 23 23 23 22 22 22 22 22 22 22 21 20 20 19 18 17 17 17 16 15 14 13 12 12 12 12 13 14 15 16 16 16 17
25 26 28 29 29 27 25 23 23 24 25 24 24 25 25 24 23 23 24 24 23 22 22 21 20 20 20 19 17 16 15 14 13 13 12 13 14 15 16 16 16 16
24 27 29 30 31 28 26 25 25 25 25 25 25 25 25 25 24 24 25 26 26 25 24 23 23 23 22 21 19 18 17 16 15 15 14 14 14 15 15 16 16 17
20 24 27 29 30 29 27 27 27 27 27 26 26 25 25 25 25 25 26 27 27 27 26 24 24 24 24 23 22 21 20 18 17 17 16 16 16 16 16 16 17 17
17 20 24 26 27 27 27 28 28 29 29 29 28 27 26 26 26 27 28 29 28 28 27 27 26 25 25 25 25 24 23 21 19 18 17 17 17 17 17 18 18 18
17 18 21 24 26 27 27 27 29 29 30 30 31 30 29 28 28 28 29 30 29 29 28 28 29 27 26 25 25 26 26 24 22 20 18 18 18 18 18 18 19 19
18 18 19 21 24 26 27 28 28 28 29 30 32 32 32 31 30 30 31 31 30 29 28 29 30 29 28 27 28 28 27 26 24 22 21 20 19 19 19 19 19 20
21 20 20 21 22 23 25 28 29 29 29 30 31 32 32 32 32 33 32 32 31 30 29 28 30 30 30 30 31 31 29 28 27 25 24 22 22 22 21 21 21 21
24 23 23 23 23 23 23 25 27 30 31 31 31 32 33 34 34 35 35 34 33 32 31 30 30 32 32 33 33 33 32 31 30 29 27 25 24 24 23 23 23 23
28 27 26 26 26 25 24 24 26 28 30 31 31 31 32 33 34 35 36 37 36 35 34 32 32 33 34 34 34 33 33 33 32 31 29 28 27 27 26 25 24 24
30 30 29 28 28 28 27 27 27 27 27 29 30 30 30 31 32 34 36 38 38 37 36 35 33 34 35 35 35 35 34 34 33 32 31 31 30 29 28 27 25 25

ECMWFNIL_500_spd_111.txt.gz
Wind_Speed
17 16 16 16 16 16 15 15 16 16 16 15 15 14 13 12 12 11 11 10 10 9 8 8 8 8 7 7 6 6 6 6 5 5 5 5 5 5 5 6 6 6
17 17 17 16 16 15 15 14 14 14 14 14 13 13 13 12 12 11 11 10 10 10 9 8 8 7 7 7 7 7 7 7 6 6 6 6 6 6 7 7 7 6
17 18 18 18 17 17 16 14 13 13 13 12 12 12 12 12 12 11 11 11 10 10 9 9 8 8 8 8 8 8 7 7 7 7 7 7 8 8 8 9 8 8
17 18 18 18 18 18 17 16 15 14 13 12 12 12 12 12 12 11 11 11 11 10 10 9 9 8 8 8 8 8 8 7 7 7 8 8 8 8 9 9 9 9
17 17 17 17 17 18 18 17 16 15 14 13 12 12 12 12 12 12 12 11 11 11 10 10 9 9 8 8 8 8 8 8 8 8 8 7 8 8 8 9 9 9
17 17 16 16 16 17 17 17 16 16 15 14 13 13 13 12 12 12 12 12 12 11 11 10 9 9 8 8 8 8 8 8 8 8 8 7 7 7 8 8 9 9
17 17 17 17 16 16 16 16 16 16 16 15 14 13 13 13 13 12 12 12 12 11 11 10 9 9 9 9 9 9 9 9 9 9 8 7 7 7 7 8 8 8
19 18 18 18 18 17 17 17 17 16 16 16 15 14 13 13 13 13 12 12 12 11 11 10 10 9 9 10 10 10 10 10 10 9 9 8 8 7 7 7 7 8
18 18 18 19 19 19 20 19 19 18 17 17 16 14 13 12 12 12 12 12 12 11 11 10 9 9 9 10 10 11 11 11 11 11 10 9 9 8 7 7 7 7
17 18 18 19 20 21 21 21 21 20 19 18 17 16 14 12 11 11 12 12 12 11 10 9 9 9 10 10 11 11 12 12 12 12 12 11 10 9 8 7 7 7
21 21 21 21 21 21 22 23 22 22 21 20 19 18 16 14 12 12 12 12 12 11 10 10 10 10 11 11 12 12 12 13 13 13 13 13 12 11 9 8 8 7
24 23 22 21 21 21 22 23 23 23 23 22 20 19 18 16 15 14 13 13 13 12 11 11 11 11 12 12 12 13 13 13 14 14 14 14 13 13 12 11 10 9
27 25 22 21 22 23 23 23 23 24 24 24 23 22 20 19 18 17 16 15 14 14 13 13 12 13 13 13 13 13 13 14 14 14 15 15 14 14 15 14 13 11
30 28 26 25 26 26 25 24 24 25 26 26 25 24 23 22 21 20 19 18 16 16 15 14 14 14 15 14 14 14 14 14 14 14 15 15 16 15 16 16 16 15
31 31 29 29 29 28 26 26 26 27 28 28 26 25 24 23 22 21 21 20 19 18 17 16 16 16 16 16 15 14 14 14 14 14 14 15 15 16 16 17 17 17
29 31 31 30 30 30 29 29 28 29 31 30 28 26 25 24 23 22 21 21 21 20 20 18 18 18 18 18 17 16 15 14 14 13 13 13 14 15 16 17 17 17
26 29 30 31 31 31 32 32 31 32 34 32 29 27 25 25 24 24 23 22 22 21 21 20 20 21 21 20 20 19 17 16 15 14 13 12 13 13 14 15 16 17
22 25 28 29 30 31 32 32 32 35 35 32 28 26 25 25 25 25 25 24 23 22 22 22 22 22 22 22 22 21 20 19 17 16 14 13 13 13 14 15 15 16
17 21 25 27 29 31 32 32 33 34 32 29 27 26 25 26 27 27 26 25 24 24 24 23 24 24 24 24 24 23 23 21 21 20 19 17 16 15 15 15 16 16
15 17 20 24 28 31 31 31 32 32 29 26 27 26 26 27 28 28 27 27 26 25 25 25 26 26 27 26 26 25 25 24 23 22 22 22 21 20 19 19 18 18
17 17 18 20 24 28 29 30 30 29 26 26 28 28 27 28 29 28 27 27 26 26 26 27 28 29 29 28 27 27 27 26 25 24 24 25 24 24 23 22 21 21
19 19 18 17 20 23 26 27 27 27 27 28 29 28 28 28 28 27 27 26 26 26 27 28 29 30 30 30 29 29 28 28 27 27 26 26 26 27 26 25 24 23
21 20 20 19 19 20 21 23 25 26 27 28 27 27 27 27 28 28 27 27 28 28 28 28 30 31 31 31 31 30 30 29 29 28 28 28 28 29 29 28 27 26
25 23 22 22 22 21 21 21 22 23 24 24 24 24 26 26 26 27 27 28 29 30 30 30 31 31 31 32 33 32 31 30 29 29 29 29 30 30 30 30 29 29
27 27 26 25 25 24 23 22 22 22 21 21 21 23 25 26 25 26 26 27 29 31 32 32 33 33 33 33 33 33 32 31 30 30 31 31 31 31 31 31 31 30
27 28 28 28 27 26 25 25 24 25 24 22 21 21 22 22 23 25 27 28 29 31 32 33 34 36 36 35 35 34 34 33 33 32 33 33 33 33 33 32 32 32

ECMWFNIL_500_spd_114.txt.gz
Wind_Speed
14 14 15 15 15 16 15 15 14 15 15 15 15 15 15 14 14 15 15 14 14 14 13 12 12 11 10 9 8 8 7 6 5 5 4 4 4 4 5 5 6 6
12 13 14 15 15 15 15 15 14 14 14 14 14 14 13 13 14 14 14 14 13 13 13 13 12 11 10 9 8 7 6 5 5 4 4 4 4 4 5 5 5 5
13 13 14 15 16 15 15 15 14 14 14 13 13 12 12 12 13 13 13 13 13 13 12 12 11 11 10 9 8 7 6 5 5 4 4 4 4 5 5 6 6 5
16 15 15 15 15 16 16 16 16 15 14 13 12 12 12 12 12 12 12 12 12 12 12 11 11 10 10 9 8 7 6 6 5 5 4 4 4 4 5 6 6 6
18 18 17 17 16 17 17 17 17 16 14 13 13 12 12 12 12 12 12 12 12 12 12 11 11 11 10 9 8 8 7 6 6 5 5 5 4 4 5 5 6 6
19 19 19 19 19 18 18 17 17 16 15 14 13 13 12 12 12 12 12 12 12 12 12 12 12 11 10 10 9 9 8 7 7 6 5 5 4 4 4 5 5 5
20 20 20 20 20 20 19 18 17 16 15 14 14 13 13 12 12 12 12 13 13 12 12 12 12 11 10 10 10 9 9 8 7 7 6 5 4 4 4 4 5 5
21 20 20 20 19 19 19 18 18 17 16 15 15 13 12 12 11 12 12 12 12 12 12 12 12 11 10 10 10 10 9 8 8 8 7 6 5 5 4 4 4 4
21 21 20 20 20 20 19 19 19 19 18 17 16 14 13 12 11 11 11 11 12 13 13 12 12 11 11 10 10 10 10 10 10 9 9 8 7 6 6 5 4 4
21 21 21 22 22 22 21 21 20 19 18 18 17 15 14 13 12 12 11 11 12 13 13 13 12 11 11 11 11 11 11 11 11 11 11 10 9 8 7 6 5 4
21 22 22 23 24 24 24 23 22 21 20 19 18 17 17 15 14 13 13 13 13 14 14 13 12 12 12 12 12 13 13 13 13 12 12 11 11 10 10 8 7 6
23 23 24 24 25 25 25 25 24 23 22 21 21 20 19 18 17 16 16 16 15 15 15 15 14 14 14 13 13 13 13 13 13 13 13 13 12 12 12 11 9 8
25 26 26 25 25 26 26 25 25 24 24 23 22 22 21 21 20 20 20 19 18 17 17 16 15 15 14 14 14 14 13 13 13 13 13 13 13 13 13 13 13 12
27 28 27 27 26 26 26 25 25 25 24 24 24 23 23 23 23 23 23 22 21 20 20 19 17 16 15 15 15 14 13 13 13 13 13 13 14 14 14 15 15 15
29 29 28 28 27 26 26 25 25 25 24 24 25 25 25 25 25 25 25 25 23 23 22 21 20 19 18 16 16 15 14 13 12 12 13 13 14 14 15 16 16 16
30 31 30 29 29 29 28 27 26 27 26 25 26 26 26 27 26 26 25 26 25 25 24 23 22 22 21 19 18 17 16 15 14 13 13 13 13 14 14 15 16 16
26 29 32 33 32 32 32 31 30 29 28 27 27 27 27 27 27 27 26 26 27 27 27 26 25 25 24 22 21 19 18 17 16 16 15 15 14 15 15 15 15 16
22 25 29 33 34 36 36 35 33 32 30 30 29 29 28 27 27 28 28 28 28 29 29 28 27 27 26 24 22 21 20 19 18 17 17 16 16 16 16 16 16 17
22 22 24 27 31 35 37 36 35 34 32 32 32 31 30 29 29 30 30 30 30 30 30 31 30 30 28 26 23 22 21 20 20 19 18 18 18 18 18 19 18 18
23 21 20 19 22 27 32 35 35 33 32 32 33 33 32 33 33 33 33 32 31 30 31 32 33 33 31 28 25 24 23 22 21 21 20 20 20 20 20 21 21 20
21 20 17 15 16 21 26 30 31 30 30 31 33 33 34 35 36 36 36 35 33 32 33 33 34 34 33 29 27 25 24 23 22 22 22 22 22 23 23 23 23 22
19 18 17 15 14 16 18 22 24 26 27 29 31 32 33 34 35 36 36 36 34 34 34 35 36 35 33 30 27 26 24 24 23 24 24 24 24 25 25 25 25 24
21 21 21 20 18 17 16 18 19 21 24 27 29 30 31 32 34 34 34 34 34 33 34 35 35 33 31 29 28 26 25 25 24 25 25 25 26 26 26 26 27 27
23 23 22 22 22 21 20 20 19 18 19 22 26 28 29 30 32 32 31 32 34 36 36 36 33 29 28 29 29 28 27 26 25 26 26 26 27 26 26 27 28 28
25 25 24 23 23 23 23 23 22 20 19 18 21 24 26 28 30 31 31 32 34 36 36 35 33 29 29 32 32 30 28 27 27 27 27 27 27 27 27 28 28 29
27 27 26 25 24 24 24 24 24 23 22 21 21 22 23 24 25 27 30 31 32 32 32 31 30 30 31 33 33 32 31 30 29 29 28 28 28 28 28 29 29 30

ECMWFNIL_500_spd_117.txt.gz
Wind_Speed
14 15 15 15 14 13 13 13 13 12 11 11 10 9 8 8 8 7 7 7 8 8 7 7 8 8 8 7 7 6 6 6 6 6 6 6 6 6 7 7 8 8
15 15 16 16 15 14 13 13 12 12 11 10 9 9 8 8 8 8 7 7 7 7 7 7 7 7 8 8 7 7 7 6 6 6 6 6 6 6 6 6 7 7
16 16 16 16 16 15 15 13 12 11 11 10 9 9 9 9 8 9 9 8 8 8 8 8 8 8 8 8 8 8 8 8 8 7 7 7 7 7 7 7 7 7
17 17 17 17 17 16 16 15 14 13 12 11 10 10 10 9 9 10 10 10 10 10 10 10 10 10 10 10 9 9 8 8 9 9 8 8 8 8 8 8 8 8
17 17 17 17 17 17 17 16 16 15 14 13 12 12 11 10 10 10 10 10 11 11 11 11 11 11 11 11 11 10 10 9 9 9 9 8 8 8 8 8 8 8
18 17 17 17 17 17 17 17 17 16 15 14 14 13 12 12 11 11 11 11 11 11 12 12 12 12 12 12 12 11 11 10 9 9 8 8 8 8 7 7 8 8
19 18 18 17 17 17 17 17 17 16 16 15 15 14 13 12 12 11 11 12 12 12 12 12 12 12 12 12 11 11 11 10 10 9 9 8 8 7 7 7 7 7
20 19 19 18 18 18 18 18 18 17 16 16 16 15 14 13 12 12 12 12 12 12 12 12 12 12 12 11 11 11 11 11 10 10 10 9 8 8 7 7 7 6
22 21 21 21 21 21 20 20 19 19 18 18 17 16 15 14 13 12 12 12 12 12 12 12 12 12 12 12 12 12 12 12 12 12 12 11 9 9 9 8 7 6
24 24 23 23 23 23 23 22 21 21 20 20 19 18 17 16 14 13 13 12 12 12 12 12 12 13 12 12 12 13 13 13 13 13 13 12 11 10 10 9 7 6
25 25 25 25 25 25 24 23 22 22 22 21 20 20 19 18 17 16 15 14 13 12 12 13 13 13 13 14 14 14 14 14 14 14 14 13 13 12 11 10 9 7
25 25 25 25 24 24 24 23 23 22 22 22 21 21 20 19 18 18 17 16 15 14 14 14 14 14 15 15 15 15 15 14 14 14 14 14 13 13 13 12 11 10
24 24 24 24 24 24 24 24 23 23 23 23 23 22 21 21 20 20 20 19 17 16 16 15 15 16 17 17 17 17 16 15 15 14 14 14 14 13 14 14 13 12
24 24 24 24 24 25 26 26 25 25 25 25 25 24 23 23 23 22 22 21 20 19 18 17 17 18 19 19 19 19 18 17 16 15 14 14 14 14 14 15 15 14
24 25 25 25 26 26 27 27 26 26 27 27 27 27 26 25 25 24 24 23 23 21 20 19 19 19 20 21 21 21 20 19 18 17 16 15 15 15 15 15 16 16
25 26 26 26 27 27 27 27 27 26 27 28 28 28 28 27 27 26 26 25 25 24 23 21 21 21 21 21 21 21 21 21 20 19 18 17 16 16 16 16 16 16
26 27 28 28 29 30 30 29 29 28 28 28 29 29 29 28 28 27 27 27 27 27 25 24 24 23 23 22 21 21 21 21 21 21 20 19 19 18 17 17 16 16
26 27 28 28 29 31 31 32 32 31 31 30 30 30 29 29 28 27 27 28 28 29 28 27 26 26 25 24 23 22 21 21 21 21 21 21 21 20 19 18 17 16
24 24 24 25 26 27 28 31 34 34 33 33 33 33 31 30 29 28 28 28 29 30 30 29 28 27 27 26 25 24 23 22 22 22 22 22 22 22 22 21 19 17
22 22 22 23 23 24 24 27 32 36 37 37 37 36 35 34 33 31 30 30 30 30 31 30 29 28 28 28 27 25 24 24 24 24 23 23 23 24 24 24 22 20
21 20 21 22 22 22 22 23 27 33 38 40 40 39 38 37 35 34 32 31 31 31 32 31 30 29 28 28 28 27 26 26 25 25 25 25 25 25 25 25 25 24
23 21 20 20 20 20 21 22 23 27 32 37 40 40 39 37 36 35 34 33 33 33 34 33 32 31 30 30 29 29 28 28 27 27 27 27 27 27 27 27 27 27
24 23 22 20 19 19 20 21 20 20 22 27 32 36 37 36 35 35 34 34 34 35 35 35 35 35 34 33 32 32 32 31 30 29 28 28 28 28 28 28 29 28
24 24 24 23 21 21 21 22 21 20 18 18 21 26 30 32 33 32 32 33 33 35 36 36 35 36 36 35 34 34 35 35 33 31 30 29 29 30 30 30 30 30
26 25 25 25 24 23 22 22 23 23 21 17 16 18 21 25 28 29 31 31 32 33 35 34 33 33 34 34 34 35 36 37 36 35 33 32 31 30 31 31 32 32
28 27 26 25 25 24 23 22 21 22 21 20 19 18 17 19 21 24 26 26 26 28 30 31 31 31 31 32 34 35 36 36 35 35 34 34 32 31 31 31 33 33

ECMWFNIL_500_spd_123.txt.gz
Wind_Speed
14 14 14 15 14 14 14 13 13 12 11 11 10 9 8 7 6 5 5 4 3 4 4 4 4 3 2 2 2 2 2 3 2 3 3 3 2 2 2 2 2 3
15 14 14 15 15 15 14 14 14 13 12 11 10 9 8 7 6 6 5 5 5 5 5 5 4 4 3 2 1 1 1 1 1 1 2 2 2 2 3 3 3 3
16 15 15 14 14 14 14 14 14 13 12 11 10 9 9 8 7 7 6 6 6 6 5 5 4 4 4 3 3 2 1 1 1 2 2 2 3 3 4 5 5 5
16 16 16 14 14 14 14 13 13 12 11 11 10 10 9 8 8 7 7 7 6 6 5 5 4 4 4 4 4 3 3 3 3 3 3 3 4 4 5 6 6 7
17 17 16 15 15 15 14 14 13 12 11 11 10 10 10 9 8 8 8 7 7 7 6 6 5 5 5 5 5 5 5 4 4 4 5 5 5 5 6 6 7 8
17 17 17 17 17 17 16 15 14 13 12 12 11 11 11 10 10 9 9 8 8 8 7 7 7 7 7 7 6 6 6 6 5 5 6 6 6 6 7 7 7 8
18 18 18 18 18 18 17 16 15 14 14 14 13 13 12 12 11 11 10 9 9 9 9 8 8 8 8 8 7 7 7 6 6 6 6 6 7 7 7 7 7 8
19 18 18 19 18 18 18 17 17 16 16 15 15 14 14 13 13 12 11 10 10 9 9 9 9 9 9 9 9 9 8 8 7 7 7 7 7 7 7 7 8 8
20 20 20 19 19 19 19 19 18 18 17 17 16 16 15 14 14 13 13 12 11 10 10 10 10 10 10 10 10 10 9 9 9 8 8 7 7 8 8 8 8 8
21 21 21 20 20 20 20 19 19 19 19 18 18 17 16 16 15 14 14 13 12 11 11 11 11 11 11 11 11 11 11 10 10 9 9 8 8 8 8 9 9 9
22 21 21 21 21 21 20 20 20 19 19 19 19 18 17 17 16 16 15 14 13 12 12 12 12 12 11 11 11 11 11 11 10 10 10 10 10 10 9 10 10 10
23 22 22 22 22 22 21 21 21 20 20 20 20 19 19 19 18 17 16 15 14 14 13 13 13 12 12 12 12 12 12 11 11 11 11 11 11 11 11 11 11 11
24 24 24 23 23 23 22 23 22 22 22 22 21 21 21 20 20 19 18 17 16 15 14 14 14 13 13 12 12 12 12 12 12 11 11 11 12 12 12 12 12 12
26 25 25 25 24 24 24 23 23 23 23 23 23 23 22 22 22 21 20 19 18 17 16 15 15 14 13 13 12 12 12 13 13 12 12 11 12 13 13 13 13 13
27 27 26 26 26 25 25 24 24 24 24 24 24 24 24 24 24 23 22 21 20 19 18 18 17 16 15 14 13 13 13 13 13 13 13 12 12 13 13 14 14 13
27 27 27 26 26 26 26 26 25 25 25 25 25 25 25 25 25 25 24 23 22 21 20 20 20 19 17 16 15 15 14 14 14 14 14 14 14 14 14 14 14 14
28 28 28 27 27 27 27 27 27 26 26 26 26 26 26 26 26 26 25 25 24 23 22 23 23 21 19 19 18 17 17 17 16 16 15 15 15 16 16 16 16 15
30 29 28 28 28 27 27 27 27 27 27 27 27 27 27 27 27 27 26 26 26 25 25 26 25 23 22 22 21 20 20 20 20 19 19 18 17 17 17 17 17 17
31 30 28 27 27 27 27 27 27 27 28 28 27 27 27 28 28 27 27 28 27 27 29 29 26 24 25 25 24 23 22 22 22 22 22 21 20 19 18 18 18 18
32 30 28 27 27 27 27 27 27 28 29 29 28 28 28 28 28 28 28 28 29 29 31 30 26 25 27 27 26 26 24 24 24 23 23 23 22 21 21 20 20 20
32 30 29 29 29 29 28 28 29 29 30 30 29 29 30 30 29 30 29 30 31 32 32 31 28 28 28 28 28 28 26 25 24 24 24 24 24 24 23 22 22 22
33 32 32 32 31 31 31 31 31 31 31 31 30 30 30 31 31 32 31 31 33 33 31 31 32 32 31 30 30 28 28 27 25 24 24 24 25 26 25 25 24 23
36 36 35 34 34 34 35 34 33 32 32 31 31 30 29 28 29 30 30 31 33 33 31 32 36 37 35 33 31 30 30 29 27 26 26 27 27 28 28 27 26 25
40 39 38 37 36 35 35 35 34 33 32 32 30 29 27 26 26 28 28 28 30 30 29 31 36 39 38 36 35 34 34 33 32 30 29 29 29 29 30 30 28 27
44 43 42 40 38 34 33 33 33 32 32 32 30 29 28 28 27 27 26 27 26 26 27 30 35 39 39 37 37 37 37 36 34 32 31 31 31 31 31 32 32 31
46 46 45 44 42 38 34 33 33 32 32 32 30 29 28 28 27 27 26 26 25 24 25 26 28 32 36 37 36 36 36 36 35 33 32 33 33 33 33 33 33 33

ECMWFNIL_500_spd_126.txt.gz
Wind_Speed
10 9 9 9 9 9 9 9 8 8 7 7 6 5 4 4 3 2 1 1 2 2 3 4 4 4 5 6 5 5 5 4 4 4 4 4 4 4 4 3 3 3
11 10 10 10 10 10 10 9 9 8 8 8 7 6 5 4 3 2 2 2 2 2 2 3 3 3 3 4 4 4 3 2 2 3 3 3 2 2 2 2 3 3
11 11 11 11 11 11 11 10 10 9 8 8 7 6 5 4 3 3 2 2 2 2 2 2 2 2 2 2 2 2 1 1 1 1 1 2 2 2 2 3 4 4
12 12 11 11 11 11 11 11 10 10 9 8 7 6 5 5 4 4 3 3 2 2 2 2 2 1 1 1 0 0 1 0 0 1 1 2 2 2 3 4 4 5
13 13 12 12 12 11 11 11 10 10 9 9 8 7 7 6 5 5 5 4 3 3 3 3 3 3 3 3 2 3 3 2 2 2 2 2 2 2 2 3 3 4
13 13 13 13 12 12 11 11 10 10 10 9 9 9 8 7 7 6 6 5 5 5 5 5 5 5 5 5 4 4 4 4 5 4 3 3 3 3 3 3 2 3
14 14 14 14 13 13 13 12 11 10 10 10 10 10 9 8 8 7 7 6 6 6 6 6 6 6 6 6 6 6 5 6 6 5 4 4 4 4 3 3 3 3
16 15 15 15 14 14 14 14 13 12 12 11 11 11 10 10 10 9 8 7 8 8 8 7 7 7 7 7 7 7 7 7 7 7 6 6 6 6 5 5 4 4
16 16 16 16 15 16 16 15 14 14 14 13 13 12 12 11 11 10 10 9 9 9 10 9 9 9 8 8 8 8 7 8 8 8 8 8 8 8 8 7 7 5
17 17 17 17 16 16 16 16 16 16 15 15 15 14 13 13 13 12 11 11 11 11 11 11 10 10 9 9 9 9 8 8 9 9 9 8 8 9 9 8 9 8
19 19 19 18 18 17 17 17 17 17 17 17 16 16 16 15 15 14 14 13 12 12 12 12 11 10 10 10 10 10 9 9 10 10 10 9 9 9 9 9 9 9
20 20 20 20 19 19 18 18 18 18 18 18 18 18 18 17 16 16 16 15 14 14 14 13 12 11 11 11 11 10 10 10 9 9 10 10 9 9 10 9 9 9
22 22 21 21 21 20 20 20 19 20 19 19 19 19 18 18 18 18 18 16 16 16 15 14 13 13 12 11 11 11 10 10 10 10 10 10 10 9 10 10 9 9
23 23 23 22 22 21 21 21 21 21 21 21 21 19 19 19 18 18 19 18 18 18 17 16 15 15 14 13 12 12 11 11 10 11 11 11 11 11 11 11 10 10
25 24 24 24 24 23 22 22 22 22 22 22 21 21 21 20 19 20 21 21 21 21 19 18 17 17 16 15 14 13 13 12 11 11 12 12 12 12 12 12 12 11
25 25 26 26 26 25 24 24 24 24 24 23 22 22 22 22 22 22 23 23 23 22 21 20 20 20 19 17 16 16 15 13 12 12 13 13 13 13 14 14 13 13
26 26 27 27 27 27 26 26 26 25 25 24 24 23 23 23 23 23 23 23 23 23 23 23 23 22 20 19 18 18 17 16 15 15 15 15 15 15 15 15 14 14
26 27 27 28 28 28 28 28 27 27 26 26 25 25 24 24 24 24 25 24 24 24 23 22 22 22 21 21 20 20 20 19 19 19 19 19 18 17 17 16 16 16
28 27 28 29 29 29 29 29 29 28 27 27 26 26 25 25 25 25 25 25 25 25 23 21 21 21 21 22 22 22 22 22 23 23 22 22 21 20 20 19 18 17
28 28 29 31 31 30 30 30 30 29 28 28 27 26 26 25 26 26 26 26 26 26 25 23 23 24 23 23 24 24 25 25 25 24 24 24 24 24 23 22 20 19
30 30 32 33 33 32 31 31 30 29 28 28 27 27 25 24 27 27 26 26 27 28 27 26 26 27 26 25 26 26 26 26 25 25 25 25 25 26 24 22 20 21
33 33 34 33 32 33 33 32 32 32 30 28 27 27 26 27 30 29 28 27 28 29 29 28 28 29 28 27 28 29 29 28 27 26 26 26 26 25 24 22 22 23
37 36 35 33 32 34 35 34 34 33 31 29 28 28 30 33 34 32 30 30 31 31 31 31 33 33 32 31 30 31 31 30 29 29 28 28 27 26 24 24 24 25
40 40 38 35 35 36 36 36 35 33 32 31 31 31 33 35 34 33 32 31 31 30 31 32 34 33 32 30 29 30 31 31 31 32 31 31 29 27 26 26 26 26
44 44 42 39 38 37 37 36 34 33 33 34 33 33 34 33 32 32 31 29 28 28 29 30 30 28 28 27 27 28 30 32 33 33 33 34 33 30 29 29 28 28
42 45 44 41 39 38 38 37 36 36 36 36 36 36 34 32 31 31 31 29 27 27 28 28 26 24 24 25 24 24 26 29 32 34 33 34 34 33 32 32 31 30